[[{"header":{"parameterUnit":"m.s-1","parameterCategory":1,"la1":31.0,"la2":29.5877,"lo1":-88.7671,"lo2":-86.6584,"dy":0.0162,"dx":0.0185,"nx":115,"ny":88,"refTime":"2023-08-05T00:00:00:Z","depth":0,"parameterNumber":2,"parameterNumberName":"U-component_of_WINDS"},"data":[0.0,0.0,0.0,0.0,0.0,0.0,0.0,0.0,0.0,0.0,0.0,0.0,0.0,0.0,0.0,0.0,0.0,0.0,0.0,0.0,0.0,0.0,0.0,0.0,0.0,0.0,0.0,0.0,0.0,0.0,0.0,0.0,0.0,0.0,0.0,0.0,0.0,0.0,0.0,0.0,0.0,0.0,0.0,0.0,0.0,0.0,0.0,0.0,0.0,0.0,0.0,0.0,0.0,0.0,0.0,0.0,0.0,0.0,0.0,0.0,0.0,0.0,0.0,0.0,0.0,0.0,0.0,0.0,0.0,0.0,0.0,0.0,0.0,0.0,0.0,0.0,0.0,0.0,0.0,0.0,0.0,0.0,0.0,0.0,0.0,0.0,0.0,0.0,0.0,0.0,0.0,0.0,0.0,0.0,0.0,0.0,0.0,0.0,0.0,0.0,0.0,0.0,0.0,0.0,0.0,0.0,0.0,0.0,0.0,0.0,0.0,0.0,0.0,0.0,0.0,0.0,0.0,0.0,0.0,0.0,0.0,0.0,0.0,0.0,0.0,0.0,0.0,0.0,0.0,0.0,0.0,0.0,0.0,0.0,0.0,0.0,0.0,0.0,0.0,0.0,0.0,0.0,0.0,0.0,0.0,0.0,0.0,0.0,0.0,0.0,0.0,0.0,0.0,0.0,0.0,0.0,0.0,0.0,0.0,0.0,0.0,0.0,0.0,0.0,0.0,0.0,0.0,0.0,0.0,0.0,0.0,0.0,0.0,0.0,0.0,0.0,0.0,0.0,0.0,0.0,0.0,0.0,0.0,0.0,0.0,0.0,0.0,0.0,0.0,0.0,0.0,0.0,0.0,0.0,0.0,0.0,0.0,0.0,0.0,0.0,0.0,0.0,0.0,0.0,0.0,0.0,0.0,0.0,0.0,0.0,0.0,0.0,0.0,0.0,0.0,0.0,0.0,0.0,0.0,0.0,0.0,0.0,0.0,0.0,0.0,0.0,0.0,0.0,0.0,0.0,0.0,0.0,0.0,0.0,0.0,0.0,0.0,0.0,0.0,0.0,0.0,0.0,0.0,0.0,0.0,0.0,0.0,0.0,0.0,0.0,0.0,0.0,0.0,0.0,0.0,0.0,0.0,0.0,0.0,0.0,0.0,0.0,0.0,0.0,0.0,0.0,0.0,0.0,0.0,0.0,0.0,0.0,0.0,0.0,0.0,0.0,0.0,0.0,0.0,0.0,0.0,0.0,0.0,0.0,0.0,0.0,0.0,0.0,0.0,0.0,0.0,0.0,0.0,0.0,0.0,0.0,0.0,0.0,0.0,0.0,0.0,0.0,0.0,0.0,0.0,0.0,0.0,0.0,0.0,0.0,0.0,0.0,0.0,0.0,0.0,0.0,0.0,0.0,0.0,0.0,0.0,0.0,0.0,0.0,0.0,0.0,0.0,0.0,0.0,0.0,0.0,0.0,0.0,0.0,0.0,0.0,0.0,0.0,0.0,0.0,0.0,0.0,0.0,0.0,0.0,0.0,0.0,0.0,0.0,0.0,0.0,0.0,0.0,0.0,0.0,0.0,0.0,0.0,0.0,0.0,0.0,0.0,0.0,0.0,0.0,0.0,0.0,0.0,0.0,0.0,0.0,0.0,0.0,0.0,0.0,0.0,0.0,0.0,0.0,0.0,0.0,0.0,0.0,0.0,0.0,0.0,0.0,0.0,0.0,0.0,0.0,0.0,0.0,0.0,0.0,0.0,0.0,0.0,0.0,0.0,0.0,0.0,0.0,0.0,0.0,0.0,0.0,0.0,0.0,0.0,0.0,0.0,0.0,0.0,0.0,0.0,0.0,0.0,0.0,0.0,0.0,0.0,0.0,0.0,0.0,0.0,0.0,0.0,0.0,0.0,0.0,0.0,0.0,0.0,0.0,0.0,0.0,0.0,0.0,0.0,0.0,0.0,0.0,0.0,0.0,0.0,0.0,0.0,0.0,0.0,0.0,0.0,0.0,0.0,0.0,0.0,0.0,0.0,0.0,0.0,0.0,0.0,0.0,0.0,0.0,0.0,0.0,0.0,0.0,0.0,0.0,0.0,0.0,0.0,0.0,0.0,0.0,0.0,0.0,0.0,0.0,0.0,0.0,0.0,0.0,0.0,0.0,0.0,0.0,0.0,0.0,0.0,0.0,0.0,0.0,0.0,0.0,0.0,0.0,0.0,0.0,0.0,0.0,0.0,0.0,0.0,0.0,0.0,0.0,0.0,0.0,0.0,0.0,0.0,0.0,0.0,0.0,0.0,0.0,0.0,0.0,0.0,0.0,0.0,0.0,0.0,0.0,0.0,0.0,0.0,0.0,0.0,0.0,0.0,0.0,0.0,0.0,0.0,0.0,0.0,0.0,0.0,0.0,0.0,0.0,0.0,0.0,0.0,0.0,0.0,0.0,0.0,0.0,0.0,0.0,0.0,0.0,0.0,0.0,0.0,0.0,0.0,0.0,0.0,0.0,0.0,0.0,0.0,0.0,0.0,0.0,0.0,0.0,0.0,0.0,0.0,0.0,0.0,0.0,0.0,0.0,0.0,0.0,0.0,0.0,0.0,0.0,0.0,0.0,0.0,0.0,0.0,0.0,0.0,0.0,0.0,0.0,0.0,0.0,0.0,0.0,0.0,0.0,0.0,0.0,0.0,0.0,0.0,0.0,0.0,0.0,0.0,0.0,0.0,0.0,0.0,0.0,0.0,0.0,0.0,0.0,0.0,0.0,0.0,0.0,0.0,0.0,0.0,0.0,0.0,0.0,0.0,0.0,0.0,0.0,0.0,0.0,0.0,0.0,0.0,0.0,0.0,0.0,0.0,0.0,0.0,0.0,0.0,0.0,0.0,0.0,0.0,0.0,0.0,0.0,0.0,0.0,0.0,0.0,0.0,0.0,0.0,0.0,0.0,0.0,0.0,0.0,0.0,0.0,0.0,0.0,0.0,0.0,0.0,0.0,0.0,0.0,0.0,0.0,0.0,0.0,0.0,0.0,0.0,0.0,0.0,0.0,0.0,0.0,0.0,0.0,0.0,0.0,0.0,0.0,0.0,0.0,0.0,0.0,0.0,0.0,0.0,0.0,0.0,0.0,0.0,0.0,0.0,0.0,0.0,0.0,0.0,0.0,0.0,0.0,0.0,0.0,0.0,0.0,0.0,0.0,0.0,0.0,0.0,0.0,0.0,0.0,0.0,0.0,0.0,0.0,0.0,0.0,0.0,0.0,0.0,0.0,0.0,0.0,0.0,0.0,0.0,0.0,0.0,0.0,0.0,0.0,0.0,0.0,0.0,0.0,0.0,0.0,0.0,0.0,0.0,0.0,0.0,0.0,0.0,0.0,0.0,0.0,0.0,0.0,0.0,0.0,0.0,0.0,0.0,0.0,0.0,0.0,0.0,0.0,0.0,0.0,0.0,0.0,0.0,0.0,0.0,0.0,0.0,0.0,0.0,0.0,0.0,0.0,0.0,0.0,0.0,0.0,0.0,0.0,0.0,0.0,0.0,0.0,0.0,0.0,0.0,0.0,0.0,0.0,0.0,0.0,0.0,0.0,0.0,0.0,0.0,0.0,0.0,0.0,0.0,0.0,0.0,0.0,0.0,0.0,0.0,0.0,0.0,0.0,0.0,0.0,0.0,0.0,0.0,0.0,0.0,0.0,0.0,0.0,0.0,0.0,0.0,0.0,0.0,0.0,0.0,0.0,0.0,0.0,0.0,0.0,0.0,0.0,0.0,0.0,0.0,0.0,0.0,0.0,0.0,0.0,0.0,0.0,0.0,0.0,0.0,0.0,0.0,0.0,0.0,0.0,0.0,0.0,0.0,0.0,0.0,0.0,0.0,0.0,0.0,0.0,0.0,0.0,0.0,0.0,0.0,0.0,0.0,0.0,0.0,0.0,0.0,0.0,0.0,0.0,0.0,0.0,0.0,0.0,0.0,0.0,0.0,0.0,0.0,0.0,0.0,0.0,0.0,0.0,0.0,0.0,0.0,0.0,0.0,0.0,0.0,0.0,0.0,0.0,0.0,0.0,0.0,0.0,0.0,0.0,0.0,0.0,0.0,0.0,0.0,0.0,0.0,0.0,0.0,0.0,0.0,0.0,0.0,0.0,0.0,0.0,0.0,0.0,0.0,0.0,0.0,0.0,0.0,0.0,0.0,0.0,0.0,0.0,0.0,0.0,0.0,0.0,0.0,0.0,0.0,0.0,0.0,0.0,0.0,0.0,0.0,0.0,0.0,0.0,0.0,-0.8779,0.0,0.0,0.0,0.0,0.0,0.0,0.0,0.0,0.0,0.0,0.0,0.0,0.0,0.0,0.0,0.0,0.0,0.0,0.0,0.0,0.0,0.0,0.0,0.0,0.0,0.0,0.0,0.0,0.0,0.0,0.0,0.0,0.0,0.0,0.0,0.0,0.0,0.0,0.0,0.0,0.0,0.0,0.0,0.0,0.0,0.0,0.0,0.0,0.0,0.0,0.0,0.0,0.0,0.0,0.0,0.0,0.0,0.0,0.0,0.0,0.0,0.0,0.0,0.0,0.0,0.0,0.0,0.0,0.0,0.0,0.0,0.0,0.0,0.0,0.0,0.0,0.0,0.0,0.0,0.0,0.0,0.0,0.0,0.0,0.0,0.0,0.0,0.0,0.0,0.0,0.0,0.0,0.0,0.0,0.0,0.0,0.0,0.0,0.0,0.0,0.0,0.0,0.0,0.0,0.0,0.0,0.0,0.0,0.0,0.0,-0.6606,-0.7478,-0.8684,-0.8968,-0.8204,0.0,0.0,0.0,0.0,0.0,0.0,0.0,0.0,0.0,0.0,0.0,0.0,0.0,0.0,0.0,0.0,0.0,0.0,0.0,0.0,0.0,0.0,0.0,0.0,0.0,0.0,0.0,0.0,0.0,0.0,0.0,0.0,0.0,0.0,0.0,0.0,0.0,0.0,0.0,0.0,0.0,0.0,0.0,0.0,0.0,0.0,0.0,0.0,0.0,0.0,0.0,0.0,0.0,0.0,0.0,0.0,0.0,0.0,0.0,0.0,0.0,0.0,0.0,0.0,0.0,0.0,0.0,0.0,0.0,0.0,0.0,0.0,0.0,0.0,0.0,0.0,0.0,0.0,0.0,0.0,0.0,0.0,0.0,0.0,0.0,0.0,0.0,0.0,0.0,0.0,0.0,0.0,0.0,0.0,0.0,0.0,0.0,0.0,0.0,0.0,0.0,0.0,0.0,0.0,0.0,0.0,0.0,0.0,0.0,0.0,0.0,0.0,-0.7631,-0.8099,-0.7714,0.0,0.0,0.0,0.0,0.0,0.0,0.0,0.0,0.0,0.0,0.0,0.0,0.0,0.0,0.0,0.0,0.0,0.0,0.0,0.0,0.0,0.0,0.0,0.0,0.0,0.0,0.0,0.0,0.0,0.0,0.0,0.0,0.0,0.0,0.0,0.0,0.0,0.0,0.0,0.0,0.0,0.0,0.0,0.0,0.0,0.0,0.0,0.0,0.0,0.0,0.0,0.0,0.0,0.0,0.0,0.0,0.0,0.0,0.0,0.0,0.0,0.0,0.0,0.0,0.0,0.0,0.0,0.0,0.0,0.0,0.0,0.0,0.0,0.0,0.0,0.0,0.0,0.0,0.0,0.0,0.0,0.0,0.0,0.0,0.0,0.0,0.0,0.0,0.0,0.0,0.0,0.0,0.0,0.0,0.0,0.0,0.0,0.0,0.0,0.0,0.0,0.0,0.0,0.0,0.0,0.0,0.0,0.0,0.0,0.0,-0.5556,-0.6707,-0.6958,0.0,-0.8033,0.0,0.0,0.0,0.0,0.0,0.0,0.0,0.0,0.0,0.0,0.0,0.0,0.0,0.0,0.0,0.0,0.0,0.0,0.0,0.0,0.0,0.0,0.0,0.0,0.0,0.0,0.0,0.0,0.0,0.0,0.0,0.0,0.0,0.0,0.0,0.0,0.0,0.0,0.0,0.0,0.0,0.0,0.0,0.0,0.0,0.0,0.0,0.0,0.0,0.0,0.0,0.0,0.0,0.0,0.0,0.0,0.0,0.0,0.0,0.0,0.0,0.0,0.0,0.0,0.0,0.0,0.0,0.0,0.0,0.0,0.0,0.0,0.0,0.0,0.0,0.0,0.0,0.0,0.0,0.0,0.0,0.0,0.0,0.0,0.0,0.0,0.0,0.0,0.0,0.0,0.0,0.0,0.0,0.0,0.0,0.0,0.0,0.0,0.0,0.0,0.0,0.0,0.0,0.0,0.0,0.0,0.0,0.0,0.0,0.0,-0.4335,-0.5301,-0.6192,-0.7079,0.0,0.0,0.0,0.0,0.0,0.0,0.0,0.0,0.0,0.0,0.0,0.0,0.0,0.0,0.0,0.0,0.0,0.0,0.0,0.0,0.0,0.0,0.0,0.0,0.0,0.0,0.0,0.0,0.0,0.0,0.0,0.0,0.0,0.0,0.0,0.0,0.0,0.0,0.0,0.0,0.0,0.0,0.0,0.0,0.0,0.0,0.0,0.0,0.0,0.0,0.0,0.0,0.0,0.0,0.0,0.0,0.0,0.0,0.0,0.0,0.0,0.0,0.0,0.0,0.0,0.0,0.0,0.0,0.0,0.0,0.0,0.0,0.0,0.0,0.0,0.0,0.0,0.0,0.0,0.0,0.0,0.0,0.0,0.0,0.0,0.0,0.0,0.0,0.0,0.0,0.0,0.0,0.0,0.0,0.0,0.0,0.0,0.0,0.0,0.0,0.0,0.0,0.0,0.0,0.0,0.0,0.0,0.0,0.0,0.0,-0.2883,-0.3569,-0.4098,-0.5251,-0.6261,-0.7019,0.0,0.0,0.0,0.0,0.0,0.0,0.0,0.0,0.0,0.0,0.0,0.0,0.0,0.0,0.0,0.0,0.0,0.0,0.0,0.0,0.0,0.0,0.0,0.0,0.0,0.0,0.0,0.0,0.0,0.0,0.0,0.0,0.0,0.0,0.0,0.0,0.0,0.0,0.0,0.0,0.0,0.0,0.0,0.0,0.0,0.0,0.0,0.0,0.0,0.0,0.0,0.0,0.0,0.0,0.0,0.0,0.0,0.0,0.0,0.0,0.0,0.0,0.0,0.0,0.0,0.0,0.0,0.0,0.0,0.0,0.0,0.0,0.0,0.0,0.0,0.0,0.0,0.0,0.0,0.0,0.0,0.0,0.0,0.0,0.0,0.0,0.0,0.0,0.0,0.0,0.0,0.0,0.0,0.0,0.0,0.0,0.0,0.0,0.0,0.0,0.0,0.0,0.0,0.0,0.0,0.0,0.0,0.0,-0.1638,-0.3077,-0.3751,-0.3555,-0.4099,-0.4617,0.0,0.0,0.0,0.0,0.0,0.0,0.0,0.0,0.0,0.0,0.0,0.0,0.0,0.0,0.0,0.0,0.0,0.0,0.0,0.0,0.0,0.0,0.0,0.0,0.0,0.0,0.0,0.0,0.0,0.0,0.0,0.0,0.0,0.0,0.0,0.0,0.0,0.0,0.0,0.0,0.0,0.0,0.0,0.0,0.0,0.0,0.0,0.0,0.0,0.0,0.0,0.0,0.0,0.0,0.0,0.0,0.0,0.0,0.0,0.0,0.0,0.0,0.0,0.0,0.0,0.0,0.0,0.0,0.0,0.0,0.0,0.0,0.0,0.0,0.0,0.0,0.0,0.0,0.0,0.0,0.0,0.0,0.0,0.0,0.0,0.0,0.0,0.0,0.0,0.0,0.0,0.0,0.0,0.0,0.0,0.0,0.0,0.0,0.0,0.0,0.0,0.0,0.0,0.0,0.0,0.0,0.0,0.0,0.0,-0.345,-0.3784,-0.3716,-0.3226,-0.3975,-0.4383,0.0,0.0,0.0,0.0,0.0,0.0,0.0,0.0,0.0,0.0,0.0,0.0,0.0,0.0,0.0,0.0,0.0,0.0,0.0,0.0,0.0,0.0,0.0,0.0,0.0,0.0,0.0,0.0,0.0,0.0,0.0,0.0,0.0,0.0,0.0,0.0,0.0,0.0,0.0,0.0,0.0,0.0,0.0,0.0,0.0,0.0,0.0,0.0,0.0,0.0,0.0,0.0,0.0,0.0,0.0,0.0,0.0,0.0,0.0,0.0,0.0,0.0,0.0,0.0,0.0,0.0,0.0,0.0,0.0,0.0,0.0,0.0,0.0,0.0,0.0,0.0,0.0,0.0,0.0,0.0,0.0,0.0,0.0,0.0,0.0,0.0,0.0,0.0,0.0,0.0,0.0,0.0,0.0,0.0,0.0,0.0,0.0,0.0,0.0,0.0,0.0,0.0,0.0,0.0,0.0,0.0,0.0,0.0,0.0,-0.4178,0.0,-0.3417,-0.2942,-0.3544,-0.3764,0.0,0.0,0.0,0.0,0.0,0.0,0.0,0.0,0.0,0.0,0.0,0.0,0.0,0.0,0.0,0.0,0.0,0.0,0.0,0.0,0.0,0.0,0.0,0.0,0.0,0.0,0.0,0.0,0.0,0.0,0.0,0.0,0.0,0.0,0.0,0.0,0.0,0.0,0.0,0.0,0.0,0.0,0.0,0.0,0.0,0.0,0.0,0.0,0.0,0.0,0.0,0.0,0.0,0.0,0.0,0.0,0.0,0.0,0.0,0.0,0.0,0.0,0.0,0.0,0.0,0.0,0.0,0.0,0.0,0.0,0.0,0.0,0.0,0.0,0.0,0.0,0.0,0.0,0.0,0.0,0.0,0.0,0.0,0.0,0.0,0.0,0.0,0.0,0.0,0.0,0.0,0.0,0.0,0.0,0.0,0.0,0.0,0.0,0.0,0.0,0.0,0.0,0.0,0.0,0.0,0.0,0.0,0.0,-0.4224,-0.3532,-0.3181,-0.2912,-0.27,-0.2669,-0.2703,0.0,0.0,0.0,0.0,0.0,0.0,0.0,0.0,0.0,0.0,0.0,0.0,0.0,0.0,0.0,0.0,0.0,0.0,0.0,0.0,0.0,0.0,0.0,0.0,0.0,0.0,0.0,0.0,0.0,0.0,0.0,0.0,0.0,0.0,0.0,0.0,0.0,0.0,0.0,0.0,0.0,0.0,0.0,0.0,0.0,0.0,0.0,0.0,0.0,0.0,0.0,0.0,0.0,0.0,0.0,0.0,0.0,0.0,0.0,0.0,0.0,0.0,0.0,0.0,0.0,0.0,0.0,0.0,0.0,0.0,0.0,0.0,0.0,0.0,0.0,0.0,0.0,0.0,0.0,0.0,0.0,0.0,0.0,0.0,0.0,0.0,0.0,0.0,0.0,0.0,0.0,0.0,0.0,0.0,0.0,0.0,0.0,0.0,0.0,0.0,0.0,0.0,0.0,0.0,0.0,0.0,0.0,0.0,0.0,-0.3296,-0.3024,-0.2604,-0.2136,-0.2519,-0.2575,0.0,0.0,0.0,0.0,0.0,0.0,0.0,0.0,0.0,0.0,0.0,0.0,0.0,0.0,0.0,0.0,0.0,0.0,0.0,0.0,0.0,0.0,0.0,0.0,0.0,0.0,0.0,0.0,0.0,0.0,0.0,0.0,0.0,0.0,0.0,0.0,0.0,0.0,0.0,0.0,0.0,0.0,0.0,0.0,0.0,0.0,0.0,0.0,0.0,0.0,0.0,0.0,0.0,0.0,0.0,0.0,0.0,0.0,0.0,0.0,0.0,0.0,0.0,0.0,0.0,0.0,0.0,0.0,0.0,0.0,0.0,0.0,0.0,0.0,0.0,0.0,0.0,0.0,0.0,0.0,0.0,0.0,0.0,0.0,0.0,0.0,0.0,0.0,0.0,0.0,0.0,0.0,0.0,0.0,0.0,0.0,0.0,0.0,0.0,0.0,0.0,0.0,0.0,0.0,0.0,0.0,0.0,0.0,0.0,-0.2715,-0.2503,-0.2179,-0.1754,-0.2229,-0.2364,-0.2051,0.0,0.0,0.0,0.0,0.0,0.0,0.0,0.0,0.0,0.0,0.0,0.0,0.0,0.0,0.0,0.0,0.0,0.0,0.0,0.0,0.0,0.0,0.0,0.0,0.0,0.0,0.0,0.0,0.0,0.0,0.0,0.0,0.0,0.0,0.0,0.0,0.0,0.0,0.0,0.0,0.0,0.0,0.0,0.0,0.0,0.0,0.0,0.0,0.0,0.0,0.0,0.0,0.0,0.0,0.0,0.0,0.0,0.0,0.0,0.0,0.0,0.0,0.0,0.0,0.0,0.0,0.0,0.0,0.0,0.0,0.0,0.0,0.0,0.0,0.0,0.0,0.0,0.0,0.0,0.0,0.0,0.0,0.0,0.0,0.0,0.0,0.0,0.0,0.0,0.0,0.0,0.0,0.0,0.0,0.0,0.0,0.0,0.0,0.0,0.0,0.0,0.0,0.0,0.0,0.0,0.0,0.0,0.0,-0.19,-0.17,-0.1595,-0.1595,-0.1861,-0.201,0.0,0.0,0.0,0.0,0.0,0.0,0.0,0.0,0.0,0.0,0.0,0.0,0.0,0.0,0.0,0.0,0.0,0.0,0.0,0.0,0.0,0.0,0.0,0.0,0.0,0.0,0.0,0.0,0.0,0.0,0.0,0.0,0.0,0.0,0.0,0.0,0.0,0.0,0.0,0.0,0.0,0.0,0.0,0.0,0.0,0.0,0.0,0.0,0.0,0.0,0.0,0.0,0.0,0.0,0.0,0.0,0.0,0.0,0.0,0.0,0.0,0.0,0.0,0.0,0.0,0.0,0.0,0.0,0.0,0.0,0.0,0.0,0.0,0.0,0.0,0.0,0.0,0.0,0.0,0.0,0.0,0.0,0.0,0.0,0.0,0.0,0.0,0.0,0.0,0.0,0.0,0.0,0.0,0.0,0.0,0.0,0.0,0.0,0.0,0.0,0.0,0.0,0.0,0.0,0.0,0.0,0.0,0.0,0.0,-0.1897,-0.0848,-0.0661,-0.142,-0.1764,-0.1932,0.0,0.0,0.0,0.0,0.0,0.0,0.0,0.0,0.0,0.0,0.0,0.0,0.0,0.0,0.0,0.0,0.0,0.0,0.0,0.0,0.0,0.0,0.0,0.0,0.0,0.0,0.0,0.0,0.0,0.0,0.0,0.0,0.0,0.0,0.0,0.0,0.0,0.0,0.0,0.0,0.0,0.0,0.0,0.0,0.0,0.0,0.0,0.0,0.0,0.0,0.0,0.0,0.0,0.0,0.0,0.0,0.0,0.0,0.0,0.0,0.0,0.0,0.0,0.0,0.0,0.0,0.0,0.0,0.0,0.0,0.0,0.0,0.0,0.0,0.0,0.0,0.0,0.0,0.0,0.0,0.0,0.0,0.0,0.0,0.0,0.0,0.0,0.0,0.0,0.0,0.0,0.0,0.0,0.0,0.0,0.0,0.0,0.0,0.0,0.0,0.0,0.0,0.0,0.0,0.0,0.0,0.0,0.0,-0.1581,-0.1519,-0.0476,-0.0161,-0.0669,-0.115,-0.1605,0.0,0.0,0.0,0.0,0.0,0.0,0.0,0.0,0.0,0.0,0.0,0.0,0.0,0.0,0.0,0.0,0.0,0.0,0.0,0.0,0.0,0.0,0.0,0.0,0.0,0.0,0.0,0.0,0.0,0.0,0.0,0.0,0.0,0.0,0.0,0.0,0.0,0.0,0.0,0.0,0.0,0.0,0.0,0.0,0.0,0.0,0.0,0.0,0.0,0.0,0.0,0.0,0.0,0.0,0.0,0.0,0.0,0.0,0.0,0.0,0.0,0.0,0.0,0.0,0.0,0.0,0.0,0.0,0.0,0.0,0.0,0.0,0.0,0.0,0.0,0.0,0.0,0.0,0.0,0.0,0.0,0.0,0.0,0.0,0.0,0.0,0.0,0.0,0.0,0.0,0.0,0.0,0.0,0.0,0.0,0.0,0.0,0.0,0.0,0.0,0.0,0.0,0.0,0.0,0.0,0.0,0.0,0.0,-0.0569,-0.0878,-0.0383,0.003,0.0262,-0.0434,-0.1274,0.0,0.0,0.0,0.0,0.0,0.0,0.0,0.0,0.0,0.0,0.0,0.0,0.0,0.0,0.0,0.0,0.0,0.0,0.0,0.0,0.0,0.0,0.0,0.0,0.0,0.0,0.0,0.0,0.0,0.0,0.0,0.0,0.0,0.0,0.0,0.0,0.0,0.0,0.0,0.0,0.0,0.0,0.0,0.0,0.0,0.0,0.0,0.0,0.0,0.0,0.0,0.0,0.0,0.0,0.0,0.0,0.0,0.0,0.0,0.0,0.0,0.0,0.0,0.0,0.0,0.0,0.0,0.0,0.0,0.0,0.0,0.0,0.0,0.0,0.0,0.0,0.0,0.0,0.0,0.0,0.0,0.0,0.0,0.0,0.0,0.0,0.0,0.0,0.0,0.0,0.0,0.0,0.0,0.0,0.0,0.0,0.0,0.0,0.0,0.0,0.0,0.0,0.0,0.0,0.0,0.0,0.0,0.0,-0.0755,-0.0223,-0.0131,0.0015,0.0298,-0.1021,-0.1809,0.0,0.0,0.0,0.0,0.0,0.0,0.0,0.0,0.0,0.0,0.0,0.0,0.0,0.0,0.0,0.0,0.0,0.0,0.0,0.0,0.0,0.0,0.0,0.0,0.0,0.0,0.0,0.0,0.0,0.0,0.0,0.0,0.0,0.0,0.0,0.0,0.0,0.0,0.0,0.0,0.0,0.0,0.0,0.0,0.0,0.0,0.0,0.0,-1.5834,0.0,0.0,0.0,0.0,0.0,0.0,0.0,0.0,0.0,0.0,0.0,0.0,0.0,0.0,0.0,0.0,0.0,0.0,0.0,0.0,0.0,0.0,0.0,0.0,0.0,0.0,0.0,0.0,0.0,0.0,0.0,0.0,0.0,0.0,0.0,0.0,0.0,0.0,0.0,0.0,0.0,0.0,0.0,0.0,0.0,0.0,0.0,0.0,0.0,0.0,0.0,0.0,0.0,0.0,0.0,0.0,0.0,0.0,0.0,0.0229,0.0015,-0.0029,0.0012,0.0107,-0.083,-0.1666,0.0,0.0,0.0,0.0,0.0,0.0,0.0,0.0,0.0,0.0,0.0,0.0,0.0,0.0,0.0,0.0,0.0,0.0,0.0,0.0,0.0,0.0,0.0,0.0,0.0,0.0,0.0,0.0,0.0,0.0,0.0,0.0,0.0,0.0,0.0,0.0,0.0,0.0,0.0,0.0,0.0,0.0,0.0,0.0,0.0,0.0,0.0,0.0,0.0,0.0,0.0,0.0,0.0,0.0,0.0,0.0,0.0,0.0,0.0,0.0,0.0,0.0,0.0,0.0,0.0,0.0,0.0,0.0,0.0,0.0,0.0,0.0,0.0,0.0,0.0,0.0,0.0,0.0,0.0,0.0,0.0,0.0,0.0,0.0,0.0,0.0,0.0,0.0,0.0,0.0,0.0,0.0,0.0,0.0,0.0,0.0,0.0,0.0,0.0,0.0,0.0,0.0,0.0,0.0,0.0,0.0,0.0,0.1221,0.1114,-0.0114,-0.0065,0.0,0.0,-0.0331,-0.1228,-0.2732,0.0,0.0,0.0,0.0,0.0,0.0,0.0,0.0,0.0,0.0,0.0,0.0,0.0,0.0,0.0,0.0,0.0,0.0,0.0,0.0,0.0,0.0,0.0,0.0,0.0,0.0,0.0,0.0,0.0,0.0,0.0,0.0,0.0,0.0,0.0,0.0,0.0,0.0,-2.1599,-2.1688,0.0,0.0,0.0,0.0,0.0,0.0,0.0,0.0,-1.1276,0.0,0.0,0.0,0.0,0.0,0.0,0.0,0.0,0.0,0.0,0.0,0.0,0.0,0.0,0.0,0.0,0.0,0.0,0.0,0.0,0.0,0.0,0.0,0.0,0.0,0.0,0.0,0.0,0.0,0.0,0.0,0.0,0.0,0.0,0.0,0.0,0.0,0.0,0.0,0.0,0.0,0.0,0.0,0.0,0.0,0.0,0.0,0.0,0.0,0.0,0.0,0.0,0.0,0.0,0.0,0.0,-0.349,-0.1032,-0.0152,-0.0967,-0.0344,0.0,0.0,-0.0071,-0.0827,-0.2314,0.0,0.0,0.0,0.0,0.0,0.0,0.0,0.0,0.0,0.0,0.0,0.0,0.0,0.0,0.0,0.0,0.0,0.0,0.0,0.0,0.0,0.0,0.0,0.0,0.0,0.0,0.0,0.0,0.0,0.0,0.0,0.0,0.0,0.0,0.0,0.0,0.0,0.0,0.0,-2.4878,-2.3862,0.0,0.0,0.0,0.0,0.0,0.0,0.0,0.0,-1.0742,0.0,0.0,0.0,0.0,0.0,0.0,0.0,0.0,0.0,0.0,0.0,0.0,0.0,0.0,0.0,0.0,0.0,0.0,0.0,0.0,0.0,0.0,0.0,0.0,0.0,0.0,0.0,0.0,0.0,0.0,0.0,0.0,0.0,0.0,0.0,0.0,0.0,0.0,0.0,0.0,0.0,0.0,0.0,0.0,0.0,0.0,0.0,0.0,0.0,0.0,0.0,0.0,0.0,0.0,0.0,-0.4496,-0.307,-0.2009,-0.1488,-0.1318,-0.085,0.0,0.0,-0.0668,0.0,0.0,0.0,0.0,0.0,0.0,0.0,0.0,0.0,0.0,0.0,0.0,0.0,0.0,0.0,0.0,0.0,0.0,0.0,0.0,0.0,0.0,0.0,0.0,0.0,0.0,0.0,0.0,0.0,0.0,0.0,0.0,0.0,0.0,0.0,0.0,0.0,0.0,0.0,0.0,-2.5043,-2.3754,-2.3103,0.0,0.0,0.0,0.0,0.0,0.0,-1.0444,-0.7947,0.0,0.0,0.0,0.0,0.0,0.0,0.0,0.0,0.0,0.0,0.0,0.0,0.0,0.0,0.0,0.0,0.0,0.0,0.0,0.0,0.0,0.0,0.0,0.0,0.0,0.0,0.0,0.0,0.0,0.0,0.0,0.0,0.0,0.0,0.0,0.0,0.0,0.0,0.0,0.0,0.0,0.0,0.0,0.0,0.0,0.0,0.0,0.0,0.0,0.0,0.0,0.0,0.0,0.0,0.0,-0.568,-0.5184,-0.4131,-0.2658,-0.2567,-0.1916,-0.0538,-0.0168,-0.0627,0.0,0.0,0.0,0.0,0.0,0.0,0.0,0.0,0.0,0.0,0.0,0.0,0.0,0.0,0.0,0.0,0.0,0.0,0.0,0.0,0.0,0.0,0.0,0.0,0.0,0.0,0.0,0.0,0.0,0.0,0.0,0.0,0.0,0.0,0.0,0.0,0.0,0.0,0.0,0.0,0.0,-2.3149,-2.3086,-2.0631,0.0,0.0,0.0,0.0,-1.2368,-0.8517,0.0,0.0,0.0,0.0,0.0,0.0,0.0,0.0,0.0,0.0,0.0,0.0,0.0,0.0,0.0,0.0,0.0,0.0,0.0,0.0,0.0,0.0,0.0,0.0,0.0,0.0,0.0,0.0,0.0,0.0,0.0,0.0,0.0,0.0,0.0,0.0,0.0,0.0,0.0,0.0,0.0,0.0,0.0,0.0,0.0,0.0,0.0,0.0,0.0,0.0,0.0,0.0,0.0,0.0,0.0,0.0,-0.8705,-0.7527,-0.6419,-0.5494,-0.3984,-0.2844,-0.2126,-0.0755,-0.0642,0.0,0.0,0.0,0.0,0.0,0.0,0.0,0.0,0.0,0.0,0.0,0.0,0.0,0.0,0.0,0.0,0.0,0.0,0.0,0.0,0.0,0.0,0.0,0.0,0.0,0.0,0.0,0.0,0.0,0.0,0.0,0.0,0.0,0.0,0.0,0.0,0.0,0.0,0.0,0.0,0.0,-2.3273,-2.1524,-1.9794,-1.8264,0.0,0.0,-1.4467,-1.3099,-1.0786,0.0,0.0,0.0,0.0,0.0,0.0,0.0,0.0,0.0,0.0,0.0,0.0,0.0,0.0,0.0,0.0,0.0,0.0,0.0,0.0,0.0,0.0,0.0,0.0,0.0,0.0,0.0,0.0,0.0,0.0,0.0,0.0,0.0,0.0,0.0,0.0,0.0,0.0,0.0,0.0,0.0,0.0,0.0,0.0,0.0,0.0,0.0,0.0,0.0,0.0,0.0,0.0,0.0,0.0,0.0,-0.9099,-0.9588,-0.8838,-0.8008,-0.7074,-0.5344,-0.3942,-0.2942,-0.1449,-0.1383,0.0,0.0,0.0,0.0,0.0,0.0,0.0,0.0,0.0,0.0,0.0,0.0,0.0,0.0,0.0,0.0,0.0,0.0,0.0,0.0,0.0,0.0,0.0,0.0,0.0,0.0,0.0,0.0,0.0,0.0,0.0,0.0,0.0,0.0,0.0,0.0,0.0,0.0,0.0,0.0,0.0,0.0,-2.2244,-2.0557,0.0,0.0,0.0,-1.4424,-1.2338,0.0,0.0,0.0,0.0,0.0,0.0,0.0,0.0,0.0,0.0,0.0,0.0,0.0,0.0,0.0,0.0,0.0,0.0,0.0,0.0,0.0,0.0,0.0,0.0,0.0,0.0,0.0,0.0,0.0,0.0,0.0,0.0,0.0,0.0,0.0,0.0,0.0,0.0,0.0,0.0,0.0,0.0,0.0,0.0,0.0,0.0,0.0,0.0,0.0,0.0,0.0,0.0,0.0,0.0,0.0,0.0,0.0,-1.0853,-1.0238,-0.9452,-0.8496,-0.6728,-0.5005,-0.3336,-0.2268,0.0,0.0,0.0,0.0,0.0,0.0,0.0,0.0,0.0,0.0,0.0,0.0,0.0,0.0,0.0,0.0,0.0,0.0,0.0,0.0,0.0,0.0,0.0,0.0,0.0,0.0,0.0,-0.1776,0.0,0.0,0.0,0.0,0.0,0.0,0.0,0.0,0.0,0.0,0.0,0.0,0.0,0.0,-2.0712,-2.1877,-2.0688,-1.956,0.0,0.0,-1.4289,-1.1927,-0.715,-0.1695,0.0,0.0,0.0,0.0,0.0,0.0,0.0,0.0,0.0,0.0,0.0,0.0,0.0,0.0,0.0,0.0,0.0,0.0,0.0,0.0,0.0,0.0,0.0,0.0,0.0,0.0,0.0,0.0,0.0,0.0,0.0,0.0,0.0,0.0,0.0,0.0,0.0,0.0,0.0,0.0,0.0,0.0,0.0,0.0,0.0,0.0,0.0,0.0,0.0,0.0,0.0,0.0,0.0,0.0,0.0,-1.3426,-1.2097,-1.094,-1.0117,-0.8251,-0.5951,-0.3317,-0.3185,-0.2238,0.0,0.0,0.0,0.0,0.0,0.0,0.0,0.0,0.0,0.0,0.0,0.0,0.0,0.0,0.0,0.0,0.0,0.0,0.0,0.0,0.0,0.0,0.0,0.0,0.0,0.0,0.0,0.0,0.0,0.0,0.0,0.0,0.0,0.0,0.0,0.0,0.0,0.0,0.0,0.0,0.0,-1.8043,-1.8798,-1.9159,-1.9721,0.0,0.0,-1.4344,-1.2529,-0.9897,-0.4882,0.4532,0.0,0.0,0.0,0.0,0.0,0.0,0.0,0.0,0.0,0.0,0.0,0.0,0.0,0.0,0.0,0.0,0.0,0.0,0.0,0.0,0.0,0.0,0.0,0.0,0.0,0.0,0.0,0.0,0.0,0.0,0.0,0.0,0.0,0.0,0.0,0.0,0.0,0.0,0.0,0.0,0.0,0.0,0.0,0.0,0.0,0.0,0.0,0.0,0.0,0.0,0.0,0.0,0.0,-1.1959,-1.2751,-1.2456,-1.17,-1.0441,-0.8854,-0.7023,-0.4978,-0.364,-0.2344,0.0,0.0,0.0,0.0,0.0,0.0,0.0,0.0,0.0,0.0,0.0,0.0,0.0,0.0,0.0,0.0,0.0,0.0,0.0,0.0,0.0,0.0,0.0,0.0,0.0,0.0,0.0,0.0,-0.3986,-0.6026,-0.8534,0.0,0.0,0.0,0.0,0.0,0.0,0.0,0.0,0.0,0.0,-1.7497,-1.9581,-1.8881,0.0,0.0,-1.8552,-1.635,-1.445,-1.1603,-0.7685,-0.2098,0.1782,0.0,0.0,0.0,0.0,0.0,0.0,0.0,0.0,0.0,0.0,0.0,0.0,0.0,0.0,0.0,0.0,0.0,0.0,0.0,0.0,0.0,0.0,0.0,0.0,0.0,0.0,0.0,0.0,0.0,0.0,0.0,0.0,0.0,0.0,0.0,0.0,0.0,0.0,0.0,0.0,0.0,0.0,0.0,0.0,0.0,0.0,0.0,0.0,0.0,0.0,0.0,0.0,-1.2024,-1.258,-1.2801,-1.2238,-1.086,-0.9522,-0.7969,-0.6112,-0.4397,-0.3002,0.0,0.0,0.0,0.0,0.0,0.0,0.0,0.0,0.0,0.0,0.0,0.0,0.0,0.0,0.0,0.0,0.0,0.0,0.0,0.0,0.0,0.0,0.0,0.0,0.0,0.0,0.0,0.0,-0.4791,-0.6252,-0.7646,0.0,0.0,0.0,0.0,0.0,0.0,0.0,0.0,0.0,0.0,-1.6391,-1.8031,-1.75,-1.7502,-1.9098,-1.8179,-1.673,-1.5159,-1.2274,-0.9079,-0.5882,0.0,0.0,0.0,0.0,0.0,0.0,0.0,0.0,0.0,0.0,0.0,0.0,0.0,0.0,0.0,0.0,0.0,0.0,0.0,0.0,0.0,0.0,0.0,0.0,0.0,0.0,0.0,0.0,0.0,0.0,-1.3226,0.0,0.0,0.0,0.0,0.0,0.0,0.0,0.0,0.0,0.0,0.0,0.0,0.0,0.0,0.0,0.0,0.0,0.0,0.0,0.0,0.0,0.0,-1.2396,-1.3625,-1.3347,-1.2684,-1.1589,-1.0463,-0.868,-0.6329,-0.563,-0.4386,-0.2451,0.0,0.0,0.0,0.0,0.0,0.0,0.0,0.0,0.0,0.0,0.0,0.0,0.0,0.0,0.0,0.0,0.0,0.0,0.0,0.0,0.0,0.0,0.0,0.0,0.0,0.0,-0.3755,-0.5944,-0.6992,0.0,0.0,0.0,0.0,0.0,0.0,0.0,0.0,0.0,0.0,-1.5459,-1.445,-1.3234,-1.4621,-1.6223,-1.7334,-1.6049,-1.4744,-1.4296,-1.1846,-0.8641,0.0,0.0,0.0,0.0,0.0,0.0,0.0,0.0,0.0,0.0,0.0,0.0,0.0,0.0,0.0,0.0,0.0,0.0,0.0,0.0,0.0,0.0,0.0,0.0,0.0,0.0,0.0,-2.2995,-2.0502,0.0,0.0,0.0,0.0,0.0,0.0,0.0,0.0,0.0,0.0,0.0,-2.084,-2.1241,0.0,0.0,0.0,0.0,0.0,0.0,0.0,0.0,0.0,0.0,0.0,0.0,-1.2554,-1.3038,-1.3627,-1.3391,-1.2265,-1.0865,-0.9403,-0.7764,-0.6247,-0.4594,-0.2724,0.0,0.0,0.0,0.0,0.0,0.0,0.0,0.0,0.0,0.0,0.0,0.0,0.0,0.0,0.0,0.0,0.0,0.0,0.0,0.0,0.0,0.0,0.0,0.0,0.0,-0.2361,0.0,0.0,0.0,0.0,0.0,0.0,0.0,0.0,0.0,0.0,0.0,-1.706,-1.8333,-1.6737,-1.599,-1.7506,-1.4631,-1.407,0.0,0.0,0.0,0.0,0.0,0.0,0.0,0.0,0.0,0.0,0.0,0.0,0.0,0.0,-3.3853,-3.08,-2.8848,-2.8065,-2.9301,0.0,0.0,0.0,0.0,0.0,0.0,0.0,0.0,0.0,0.0,0.0,0.0,0.0,0.0,-2.866,0.0,-2.5431,0.0,0.0,0.0,0.0,0.0,0.0,0.0,0.0,-2.4201,-2.4585,-2.3664,-2.3946,-2.4364,0.0,-2.168,-1.8879,0.0,0.0,0.0,0.0,0.0,0.0,0.0,0.0,-1.3182,-1.347,-1.4127,-1.3984,-1.3,-1.1656,-1.0148,-0.8449,-0.6557,-0.4979,-0.381,-0.2463,-0.1531,0.0,0.0,0.0,0.0,0.0,0.0,0.0,0.0,0.0,0.0,0.0,0.0,0.0,0.0,0.0,0.0,0.0,0.0,0.0,0.0,0.0,0.0,0.0,-0.2502,0.0,0.0,0.0,0.0,0.0,0.0,0.0,0.0,0.0,-1.6806,-1.7412,-1.8181,-1.9742,-1.7449,-1.5853,-1.6366,0.0,0.0,0.0,0.0,0.0,0.0,0.0,-1.3813,-1.3815,-1.3031,-1.3357,-1.6231,-2.2771,-2.9205,-3.3762,0.0,0.0,-3.8376,-3.6949,-3.632,-3.6735,-3.5771,-3.4793,-3.4604,-3.3315,-3.1528,0.0,0.0,0.0,0.0,0.0,0.0,0.0,0.0,-3.4456,-3.4103,0.0,-3.218,0.0,0.0,0.0,0.0,0.0,-2.4945,0.0,0.0,-2.7234,-2.7531,-2.5963,-2.6076,-2.6201,-2.6137,-2.4763,-2.2998,-2.0805,-1.7058,0.0,0.0,0.0,0.0,0.0,0.0,-1.4202,-1.4854,-1.4847,-1.446,-1.3742,-1.2741,-1.0951,-0.8436,-0.6631,-0.5678,-0.5584,-0.4406,-0.3549,-0.3092,-0.2494,0.0,0.0,0.0,0.0,0.0,0.0,0.0,0.0,0.0,0.0,0.0,0.0,0.0,0.0,0.0,0.0,0.0,0.0,0.0,0.0,-0.2319,0.0,0.0,0.0,0.0,0.0,0.0,0.0,0.0,0.0,0.0,-1.7317,-1.8287,-1.9097,-2.0152,0.0,0.0,0.0,0.0,-1.6266,-1.6168,-1.5018,-1.3938,-1.3391,-1.1847,-1.1118,-1.2029,0.0,0.0,-1.3656,-2.0773,-2.7234,-3.0804,-3.6221,-4.1529,-4.5541,-4.4474,-4.3695,-4.4672,-4.2461,-4.0471,-3.9316,-3.8054,-3.653,-4.107,0.0,0.0,0.0,0.0,-3.8057,-3.9156,-4.0827,-4.0692,-3.9531,-3.7691,-3.6285,0.0,0.0,0.0,0.0,0.0,0.0,-2.8138,-2.7722,-2.9019,-2.8959,-2.7836,-2.8007,-2.7753,-2.7033,-2.593,-2.5055,-2.4331,-2.144,-1.8989,-1.7062,0.0,0.0,0.0,0.0,-1.4951,-1.5241,-1.5421,-1.5181,-1.4511,-1.3369,-1.1538,-0.8937,-0.7766,-0.6924,-0.6458,-0.5772,-0.5251,-0.4868,-0.418,0.0,0.0,0.0,0.0,0.0,0.0,0.0,0.0,0.0,0.0,0.0,0.0,0.0,0.0,0.0,0.0,0.0,0.0,0.0,-0.1247,-0.211,-0.2544,0.0,0.0,0.0,0.0,0.0,0.0,0.0,0.0,0.0,-1.7671,-1.9072,-1.9488,0.0,0.0,-1.663,-1.3471,-1.3294,-1.409,-1.5958,0.0,0.0,0.0,-1.1651,-1.0947,-1.1097,-1.1331,-1.1336,-1.0523,-1.6539,-2.3156,-2.8033,-3.3806,-3.9217,-4.3247,-4.5108,-4.5654,-4.5642,-4.4039,-4.2426,-4.1719,-4.0098,-3.7997,-4.6016,-4.3503,-4.2382,-4.2194,-4.2736,-4.2544,-4.3348,-4.4781,-4.4348,-4.3503,-4.2334,-4.1107,-3.865,-3.5183,-3.2685,0.0,0.0,0.0,-3.0716,-3.0177,-3.0465,-3.0077,-2.9268,-2.9001,-2.864,-2.8174,-2.7185,-2.6384,-2.5811,-2.4348,-2.2147,-1.932,0.0,0.0,-1.7173,-1.6458,-1.6171,-1.6207,-1.6066,-1.5724,-1.5179,-1.3666,-1.1968,-1.0117,-0.9213,-0.8428,-0.7736,-0.7264,-0.684,-0.6521,-0.5831,-0.5547,0.0,0.0,0.0,0.0,0.0,0.0,0.0,0.0,0.0,0.0,0.0,-0.0886,-0.019,0.0,0.0,0.0,-0.0585,-0.1041,-0.1681,-0.2133,0.0,0.0,0.0,0.0,0.0,0.0,0.0,-1.0322,-1.28,-1.545,-1.7893,-1.9157,-1.9509,-1.8417,-1.7096,-1.5945,-1.5079,0.0,-1.2801,-1.4065,-1.219,-1.0888,-1.1669,-1.1398,-1.1002,-1.0719,-1.1493,-1.1482,-0.9987,-1.3807,-1.8786,-2.401,-2.9698,-3.5847,-4.2478,-4.4783,-4.5736,-4.5859,-4.4538,-4.3141,-4.2427,-4.05,-3.8433,-4.9508,-4.8639,-4.6821,-4.6032,-4.6011,-4.5712,-4.6123,-4.6931,-4.616,-4.6154,-4.6826,-4.5953,-4.3723,-4.052,-3.6837,0.0,-3.5122,-3.4168,-3.3192,-3.2266,-3.1642,-3.0964,-3.0172,-2.9264,-2.9054,-2.9441,-2.8349,-2.7153,-2.5924,-2.6023,-2.4913,-2.2558,-2.0492,-1.9294,-1.8913,-1.8061,-1.7582,-1.7522,-1.6738,-1.6151,-1.5726,-1.3822,-1.2381,-1.1589,-1.073,-0.9917,-0.9142,-0.8685,-0.8267,-0.7877,-0.7306,-0.6677,-0.5947,0.0,0.0,0.0,0.0,0.0,0.0,0.0,0.0,0.0,0.0,0.0,0.0,0.0,0.0,0.0,-0.1363,0.0,-0.2418,-0.2354,0.0,0.0,0.0,-0.2769,-0.579,-0.9728,-1.2148,-1.2058,0.0,0.0,-1.788,0.0,-1.9203,-1.9193,-1.544,-1.3222,-1.4827,-1.3486,-1.2064,-1.1155,-1.1319,-1.1468,-1.1223,-1.143,-1.1511,-1.1133,-1.1652,-1.1906,-1.1013,-1.1893,-1.487,-1.9085,-2.4594,-3.1524,-4.1661,-4.324,-4.4214,-4.5279,-4.4334,-4.2962,-4.1848,-4.0195,-3.8459,-5.0991,-5.1077,-5.0679,-4.9378,-4.7825,-4.8258,-4.8083,-4.7362,-4.7317,-4.6811,-4.5867,-4.517,-4.3291,-4.0721,-4.021,-3.8774,-3.6743,-3.6814,-3.5674,-3.3697,-3.2708,-3.1605,-3.0417,-2.9488,-2.91,-2.915,-2.8459,-2.7811,-2.7203,-2.6607,-2.5782,-2.4734,-2.3397,-2.1892,-2.0183,-1.9143,-1.8398,-1.7873,-1.7093,-1.627,-1.5419,-1.4134,-1.3066,-1.2197,-1.138,-1.0443,-0.9314,-0.9103,-0.8607,-0.7726,-0.7715,-0.7499,-0.6963,-0.6202,0.0,0.0,0.0,0.0,0.0,0.0,0.0,0.0,0.0,-0.3497,-0.2995,0.0,-0.2014,0.0,-0.2796,-0.2912,-0.3078,-0.29,0.0,0.0,-0.3568,-0.433,-0.7541,-1.0954,-1.3022,-1.3134,-1.4423,-1.5931,-1.7405,-1.7868,-1.7871,-1.7504,-1.547,-1.3259,-1.1472,-1.1139,-1.0632,-0.9695,-1.025,-1.0913,-1.1482,-1.263,-1.3345,-1.2948,-1.3197,-1.3064,-1.2292,-1.1966,-1.2781,-1.5898,-2.1411,-2.7734,-3.3933,-3.8549,-4.1949,-4.2857,-4.3095,-4.2884,-4.1808,-4.0273,-3.8758,-5.1642,-5.1887,-5.1988,-5.1,-4.9538,-4.9934,-4.9523,-4.8699,-4.8483,-4.798,-4.7296,-4.5802,-4.4146,-4.2412,-4.2061,-4.0921,-3.925,-3.8619,-3.7238,-3.5214,-3.3777,-3.2225,-3.0724,-3.0028,-2.983,-3.0032,-2.9339,-2.8742,-2.8314,-2.8042,-2.7293,-2.6132,-2.5596,-2.4306,-2.231,-2.0904,-1.9651,-1.8545,-1.7921,-1.6905,-1.5565,-1.4907,-1.3998,-1.2747,-1.2239,-1.1359,-1.0104,-0.9886,-0.939,-0.8444,-0.8346,-0.8001,-0.7321,-0.6666,-0.6123,0.0,0.0,0.0,0.0,0.0,0.0,0.0,0.0,0.0,0.0,0.0,-0.3677,-0.4475,-0.4634,-0.4812,-0.5073,-0.4216,-0.452,-0.6747,-0.6623,-0.7401,-0.9776,-1.2605,-1.4378,-1.4316,-1.5286,-1.6186,-1.7013,-1.7167,-1.7139,-1.6714,-1.5475,-1.3732,-1.1529,-1.1014,-1.078,-1.0115,-1.0613,-1.1547,-1.2779,-1.3975,-1.4855,-1.501,-1.4895,-1.4374,-1.3503,-1.2492,-1.2365,-1.4226,-1.9385,-2.517,-2.9862,-3.632,-4.1108,-4.1944,-4.274,-4.258,-4.094,-3.9547,-3.8256,-5.2133,-5.1918,-5.2222,-5.1927,-5.1322,-5.1217,-5.0788,-5.0122,-4.9476,-4.9347,-4.9358,-4.7229,-4.5566,-4.4423,-4.3286,-4.2349,-4.1554,-3.9974,-3.8424,-3.6769,-3.4946,-3.3201,-3.1549,-3.1037,-3.1099,-3.1607,-3.0656,-2.9815,-2.9297,-2.9659,-2.8952,-2.7298,-2.7203,-2.641,-2.4856,-2.3098,-2.1263,-1.9328,-1.891,-1.7844,-1.6087,-1.5945,-1.5046,-1.327,-1.3048,-1.2333,-1.0973,-1.0726,-1.019,-0.9318,-0.8972,-0.8332,-0.7266,-0.6906,-0.6379,0.0,-0.542,0.0,0.0,0.0,0.0,0.0,0.0,0.0,0.0,-0.4808,-0.5702,-0.639,-0.6707,-0.7084,-0.7569,-0.6125,-0.641,-0.9387,-1.035,-1.1154,-1.2322,-1.4402,-1.5729,-1.5573,-1.6224,-1.6648,-1.6814,-1.6826,-1.6771,-1.6461,-1.5746,-1.4678,-1.3228,-1.2289,-1.184,-1.1856,-1.2151,-1.3101,-1.4582,-1.5386,-1.5914,-1.6547,-1.6207,-1.5587,-1.4601,-1.3487,-1.2872,-1.3917,-1.861,-2.3999,-2.832,-3.5325,-4.0571,-4.1827,-4.2692,-4.2377,-4.0078,-3.8743,-3.7375,-5.3344,-5.345,-5.373,-5.3373,-5.2506,-5.2875,-5.1828,-4.992,-5.0427,-5.0044,-4.9037,-4.8434,-4.6948,-4.5091,-4.5101,-4.3969,-4.2003,-4.1528,-4.0166,-3.8109,-3.6892,-3.5652,-3.4458,-3.2944,-3.2723,-3.342,-3.1746,-3.0664,-3.0212,-3.0152,-2.9753,-2.899,-2.8163,-2.7606,-2.726,0.0,0.0,0.0,-1.9864,-1.9005,-1.7349,-1.7151,-1.5933,-1.3627,-1.3472,0.0,-1.0569,-1.0601,-0.9976,-0.8544,-0.9116,0.0,0.0,0.0,0.0,0.0,0.0,0.0,0.0,0.0,0.0,0.0,-0.5847,-0.5601,-0.5641,-0.7266,-0.8186,-0.7822,-0.8767,-0.9456,-0.9395,-0.8973,-0.9387,-1.1344,-1.3428,-1.46,-1.4301,-1.5562,-1.6352,-1.6271,-1.6345,-1.6571,-1.702,-1.6949,-1.6836,-1.662,-1.639,-1.5881,-1.5202,-1.3819,-1.3208,-1.3899,-1.4405,-1.5077,-1.5748,-1.6373,-1.6619,-1.6547,-1.6288,-1.6157,-1.6114,-1.5117,-1.4387,-1.4901,-1.9291,-2.444,-2.9,-3.4614,-3.9539,-4.1699,-4.2284,-4.1766,-3.9813,-3.8838,-3.7606,-5.3795,0.0,-5.4214,-5.3689,0.0,-5.3053,-5.2341,-5.1045,-5.1286,-5.0759,-4.9641,-4.9233,-4.831,-4.696,-4.6375,-4.5451,-4.4202,-4.3325,-4.1978,-4.0245,-3.8674,-3.7536,-3.6793,-3.4516,-3.386,-3.4415,-3.2949,-3.195,-3.1479,-3.156,-3.1179,-3.0213,-2.9758,-2.9296,-2.8754,-2.7333,-2.4946,-2.1574,-2.1017,-2.0036,-1.86,-1.7948,-1.6741,-1.4947,0.0,0.0,0.0,0.0,0.0,0.0,0.0,0.0,0.0,0.0,0.0,-0.7501,-0.7767,-0.7472,-0.6595,-0.7842,-0.8681,-0.8689,-0.8844,-0.8675,-0.816,-0.9319,-0.9961,-0.9787,-1.0846,-1.1581,-1.1484,-1.156,-1.2132,-1.3585,-1.5371,-1.6324,-1.596,-1.6573,-1.7039,-1.6872,-1.6617,-1.6655,-1.6771,-1.6753,-1.656,-1.6245,-1.6173,-1.6081,-1.5842,-1.5172,-1.4832,-1.4949,-1.5204,-1.5617,-1.6018,-1.6451,-1.6616,-1.6243,-1.6505,-1.7017,-1.7568,-1.6285,-1.5576,-1.6969,-2.054,-2.4998,-3.0246,-3.5679,-4.0084,-4.1648,-4.2181,-4.1201,-3.8856,-3.7609,-3.6152,-5.4027,-5.4951,-5.4317,-5.3699,-5.3226,-5.2893,-5.2685,-5.2516,0.0,0.0,0.0,-5.0508,-4.9947,-4.9093,-4.7785,-4.6909,-4.6477,-4.5128,-4.3802,-4.2461,-4.0585,-3.9446,-3.8886,-3.6405,-3.5399,-3.5706,-3.4476,-3.359,-3.314,-3.3325,-3.2805,-3.1827,-3.1718,-3.116,-2.9988,-2.8324,-2.634,-2.4081,-2.2539,-2.1145,-1.986,-1.8871,-1.7682,-1.6231,-1.5452,-1.4357,-1.3035,-1.2662,-1.1894,-1.0638,-1.0509,-1.0182,-0.9518,-0.9056,-0.8696,-0.8464,-0.9076,-0.9154,-0.8488,-0.9649,-1.0577,-1.0954,-1.1618,-1.1652,-1.0958,-1.1242,-1.1659,-1.1896,-1.2803,-1.3419,-1.3677,-1.3755,-1.4358,-1.5616,-1.6707,-1.7261,-1.7072,-1.7237,-1.7398,-1.7283,-1.6943,-1.6624,-1.6491,-1.6453,-1.6199,-1.5733,-1.5901,-1.6077,-1.5999,-1.6097,-1.6017,-1.5729,-1.585,-1.5922,-1.6193,-1.6355,-1.637,-1.6309,-1.6882,-1.7804,-1.8479,-1.7522,-1.7295,-1.9328,-2.2518,-2.7058,-3.2135,-3.7528,-4.1325,-4.2182,-4.2266,-4.1201,-3.7791,-3.5844,-3.3909,-5.4096,-5.378,-5.467,-5.4416,-5.345,-5.3648,-5.3638,-5.3465,-5.3412,-5.2942,-5.2439,-5.3176,-5.22,-5.0103,-4.9818,-4.8751,-4.7012,-4.6679,-4.5484,0.0,-4.2972,-4.2113,-4.1222,-3.9506,-3.887,-3.9009,-3.6831,-3.5778,-3.5803,-3.492,-3.4463,-3.4428,-3.4046,-3.3082,-3.1657,-2.935,-2.796,-2.7504,-2.4953,-2.2824,-2.1174,-2.0506,-1.9005,-1.6755,-1.632,-1.5254,-1.3426,-1.3544,-1.2988,-1.1618,-1.2066,-1.1955,-1.0946,-1.0338,-0.9868,-0.9543,-0.9931,-1.0188,-1.0215,-1.1115,-1.1801,-1.2245,-1.2626,-1.2999,-1.3525,-1.3454,-1.348,-1.3783,-1.4346,-1.5085,-1.5791,-1.5253,-1.5443,-1.6772,-1.7203,-1.7341,-1.7301,-1.7296,-1.7268,-1.6978,-1.6802,-1.6557,-1.6287,-1.6188,-1.5944,-1.5618,-1.5831,-1.6197,-1.6517,-1.676,-1.6751,-1.6742,-1.6979,-1.7116,-1.6902,-1.6784,-1.6744,-1.7261,-1.7292,-1.8069,-1.9754,-1.9146,-1.943,-2.2118,-2.6775,-3.1368,-3.5345,-3.9441,-4.222,-4.3104,-4.2716,-4.095,-3.7322,-3.4201,-3.1245,-5.4206,-5.4492,-5.4436,-5.4451,-5.4222,-5.4173,-5.4246,-5.4292,-5.4372,-5.4094,-5.3682,-5.3708,-5.3143,-5.2061,-5.1007,-5.0045,-4.9277,-4.8528,-4.7334,-4.5721,-4.4947,-4.3993,-4.2782,-4.0725,-3.9952,-4.0199,-3.8207,-3.7056,-3.6786,-3.6111,-3.5632,-3.5357,-3.5209,-3.4612,-3.3388,-3.1972,-3.0523,-2.9089,-2.6251,-2.4156,-2.2946,-2.1959,-2.0428,-1.8237,-1.7529,-1.6363,-1.468,-1.4471,-1.3905,-1.2933,-1.2839,-1.2401,-1.159,-1.1499,-1.1277,-1.0842,-1.1421,-1.1647,-1.1395,-1.2211,-1.2802,-1.3053,-1.3566,-1.4014,-1.4363,-1.4141,-1.4183,-1.4591,-1.5042,-1.559,-1.6218,-1.6551,-1.6959,-1.7301,-1.7301,-1.7297,-1.7319,-1.7065,-1.6763,-1.6445,-1.6241,-1.5978,-1.5514,-1.5429,-1.5402,-1.5333,-1.5718,-1.6231,-1.6457,-1.6551,-1.6621,-1.6709,-1.6845,-1.6732,-1.6483,-1.6331,-1.6419,-1.6747,-1.7476,-1.836,-1.9687,-1.965,-2.1343,-2.4881,-3.0967,-3.6185,-3.8716,-4.1468,-4.3418,-4.3831,-4.2544,-4.005,-3.6017,-3.0689,-2.6297,-5.4343,-5.4982,-5.4376,-5.4431,-5.4988,-5.462,-5.469,-5.4907,-5.4937,-5.4772,-5.4533,-5.3955,-5.3736,-5.3598,-5.1995,-5.1186,-5.1021,-5.0203,-4.8887,-4.7498,-4.6794,-4.579,-4.434,-4.2182,-4.1288,-4.1181,-3.9773,-3.8682,-3.8061,-3.7595,-3.6952,-3.6262,-3.631,-3.5939,-3.5108,-3.4142,-3.263,-3.0532,-2.7772,-2.5676,-2.4304,-2.3204,-2.1756,-1.9913,-1.8936,-1.7678,-1.6124,-1.561,-1.4975,-1.413,-1.3475,-1.2897,-1.2359,-1.2653,-1.262,-1.2238,-1.2696,-1.2913,-1.2585,-1.3176,-1.3566,-1.3537,-1.4323,-1.4824,-1.4972,-1.4741,-1.4862,-1.5327,-1.5772,-1.6176,-1.683,-1.7573,-1.8113,-1.7722,-1.7644,-1.7561,-1.723,-1.6607,-1.6151,-1.5865,-1.5711,-1.5305,-1.4831,-1.4744,-1.4891,-1.5216,-1.5811,-1.6246,-1.6307,-1.6473,-1.6682,-1.6612,-1.6482,-1.6228,-1.5876,-1.5735,-1.5893,-1.6228,-1.7351,-1.8451,-1.9288,-2.0196,-2.2528,-2.6922,-3.4541,-3.9406,-4.0991,-4.3052,-4.4218,-4.3927,-4.1976,-3.8664,-3.2749,-2.6785,-2.1966,-5.4594,-5.451,-5.4864,-5.5239,-5.5226,-5.494,-5.5018,-5.5359,-5.5064,-5.4912,-5.5014,-5.4896,-5.448,-5.3905,-5.3308,-5.2398,-5.1307,-5.107,-5.006,-4.859,-4.8475,-4.776,-4.6439,-4.5306,-4.4404,-4.3358,-4.2228,-4.1306,-4.073,-3.9731,-3.8929,-3.8259,-3.7709,-3.7234,-3.6648,-3.4666,-3.3325,-3.2853,-3.0406,-2.7638,-2.4735,-2.4051,-2.2875,-2.1094,-2.0638,-1.9402,-1.7348,-1.7169,-1.6383,-1.4882,-1.4351,-1.4049,-1.384,-1.3816,-1.3705,-1.3335,-1.321,-1.3324,-1.371,-1.4038,-1.4015,-1.3666,-1.4638,-1.5548,-1.6027,-1.5876,-1.5914,-1.6397,-1.6763,-1.7254,-1.8228,-1.8338,-1.83,-1.8088,-1.8285,-1.8241,-1.7014,-1.5826,-1.5312,-1.5759,-1.5325,-1.497,-1.4639,-1.4535,-1.476,-1.5116,-1.592,-1.6495,-1.6625,-1.7065,-1.7194,-1.6908,-1.6621,-1.6219,-1.5893,-1.5568,-1.5726,-1.6325,-1.7124,-1.836,-1.9725,-2.0919,-2.2626,-2.8239,-3.5597,-4.0653,-4.1742,-4.3283,-4.4598,-4.2811,-4.0349,-3.6719,-2.894,-2.3643,-2.0814,-5.4376,-5.4686,-5.5055,-5.5641,-5.6226,-5.5775,-5.573,-5.5986,-5.5261,-5.5047,-5.5113,-5.5162,-5.5051,-5.4614,-5.3823,-5.312,-5.2595,-5.2335,-5.1469,-5.0185,-5.0042,-4.9314,-4.8099,-4.6565,-4.5571,-4.5032,-4.3447,-4.2492,-4.2085,-4.0738,-3.9877,-3.9674,-3.8886,-3.8258,-3.7851,-3.6113,-3.475,-3.3875,-3.1585,-2.9233,-2.7043,-2.5517,-2.3928,-2.2245,-2.1426,-2.0273,-1.8748,-1.8422,-1.7772,-1.6503,-1.5283,-1.4701,-1.4888,-1.4988,-1.4744,-1.4058,-1.3541,-1.3603,-1.4317,-1.4449,-1.4355,-1.4136,-1.5212,-1.6281,-1.7161,-1.7101,-1.7189,-1.7555,-1.7342,-1.751,-1.8322,-1.8502,-1.8456,-1.8277,-1.8439,-1.8144,-1.6855,-1.5466,-1.4694,-1.4993,-1.4776,-1.4441,-1.4202,-1.4507,-1.4823,-1.5083,-1.5934,-1.6749,-1.6546,-1.6942,-1.6988,-1.6544,-1.5921,-1.5535,-1.5588,-1.54,-1.5606,-1.642,-1.7518,-1.8874,-2.0034,-2.2173,-2.4635,-2.8834,-3.538,-4.0204,-4.1494,-4.2674,-4.3753,-4.1604,-3.7081,-3.2331,-2.5774,-2.2287,-2.0016,-5.42,-5.4875,-5.5381,-5.6244,-5.7261,-5.6636,-5.6583,-5.6669,-5.5792,-5.536,-5.5344,-5.5572,-5.5588,-5.5312,-5.4268,-5.377,-5.3787,-5.329,-5.2432,-5.1528,-5.1264,-5.0575,-4.9384,-4.77,-4.6688,-4.6106,-4.451,-4.3378,-4.2915,-4.1471,-4.0654,-4.0475,-3.9415,-3.8719,-3.8456,-3.6883,-3.5549,-3.456,-3.2408,-3.0504,-2.8909,-2.7102,-2.5164,-2.3328,-2.2289,-2.1138,-1.9844,-1.96,-1.8983,-1.7815,-1.6366,-1.5697,-1.5955,-1.6077,-1.5644,-1.4647,-1.396,-1.4014,-1.4894,-1.4935,-1.4916,-1.4991,-1.5904,-1.6996,-1.7996,-1.817,-1.8237,-1.8424,-1.8126,-1.8213,-1.8576,-1.8938,-1.8785,-1.8237,-1.8337,-1.7913,-1.652,-1.5211,-1.4616,-1.4522,-1.4402,-1.4144,-1.403,-1.458,-1.4976,-1.4919,-1.617,-1.7175,-1.6694,-1.7036,-1.7234,-1.6555,-1.5564,-1.508,-1.5381,-1.517,-1.5378,-1.6188,-1.7355,-1.8556,-1.9964,-2.2469,-2.5521,-2.8894,-3.45,-3.8318,-4.0276,-4.1706,-4.1556,-3.9587,-3.5157,-2.9125,-2.4534,-2.1642,-1.9814,-5.4194,-5.4932,-5.613,-5.7084,-5.7761,-5.7324,-5.7222,-5.7365,-5.6499,-5.6023,-5.6086,-5.6244,-5.6307,-5.6208,-5.4705,-5.4227,-5.4549,-5.3676,-5.2893,-5.2267,-5.2221,-5.1467,-5.0114,-4.9083,-4.7992,-4.6995,-4.5905,-4.4564,-4.3148,-4.2136,-4.1407,-4.076,-3.9146,-3.8401,-3.8309,-3.6305,-3.521,-3.4983,-3.2924,-3.1219,-3.0057,-2.8605,-2.6694,-2.46,-2.3513,-2.234,-2.1123,-2.0849,-2.0025,-1.8377,-1.7862,-1.7457,-1.7176,-1.6927,-1.6312,-1.5309,-1.4525,-1.451,-1.5378,-1.568,-1.5797,-1.5951,-1.6668,-1.7754,-1.8772,-1.8685,-1.8708,-1.8966,-1.9276,-1.9535,-1.959,-1.9703,-1.93,-1.8087,-1.8196,-1.7447,-1.5849,-1.5488,-1.507,-1.4608,-1.4405,-1.4371,-1.4357,-1.4707,-1.4998,-1.5381,-1.6669,-1.7778,-1.7506,-1.7861,-1.7761,-1.6892,-1.6002,-1.5292,-1.496,-1.4816,-1.4952,-1.5891,-1.7107,-1.8044,-1.9721,-2.1793,-2.5106,-2.8576,-3.2926,-3.6389,-3.8733,-3.9169,-3.814,-3.5832,-3.1991,-2.6954,-2.3919,-2.1519,-1.9974,-5.4232,-5.5439,-5.6723,-5.7668,-5.83,-5.8197,-5.7984,-5.7718,-5.7054,-5.6592,-5.6356,-5.6385,-5.6603,-5.6937,-5.5712,-5.5016,-5.4795,-5.4376,-5.3822,-5.3143,-5.327,-5.2708,-5.1516,-5.0929,-4.9897,-4.8436,-4.7518,-4.625,-4.4531,-4.2838,-4.1867,-4.1374,-3.9352,-3.8259,-3.7966,-3.6131,-3.5052,-3.4902,-3.3015,-3.1464,-3.054,-2.8927,-2.7341,-2.5941,-2.455,-2.3215,-2.199,-2.1698,-2.1059,-1.9972,-1.9779,-1.9303,-1.8435,-1.7383,-1.6441,-1.5501,-1.4846,-1.4953,-1.5891,-1.6674,-1.695,-1.6828,-1.7089,-1.7802,-1.8806,-1.8971,-1.9083,-1.9541,-2.0048,-2.0335,-2.0159,-1.9925,-1.9297,-1.8495,-1.7606,-1.692,-1.6126,-1.5397,-1.4851,-1.4732,-1.4543,-1.4465,-1.4621,-1.5153,-1.5502,-1.5552,-1.7094,-1.792,-1.7613,-1.8064,-1.8199,-1.7013,-1.6135,-1.546,-1.4784,-1.4641,-1.4935,-1.606,-1.7213,-1.8324,-1.9806,-2.1686,-2.4679,-2.7257,-3.1268,-3.4176,-3.6394,-3.7201,-3.5861,-3.2947,-2.8965,-2.6317,-2.3699,-2.1835,-2.0945,-5.484,-5.6244,-5.7371,-5.8227,-5.8786,-5.8891,-5.8619,-5.81,-5.7641,-5.7156,-5.6702,-5.6757,-5.6987,-5.7281,-5.6885,-5.6354,-5.5598,-5.5144,-5.4667,-5.4302,-5.4192,-5.376,-5.2933,-5.2165,-5.1285,-5.0078,-4.8648,-4.7108,-4.5382,-4.3183,-4.2184,-4.2057,-3.9373,-3.8115,-3.8021,-3.5972,-3.4844,-3.4794,-3.3345,-3.1966,-3.1027,-2.9637,-2.8273,-2.7134,-2.5754,-2.4321,-2.3,-2.2378,-2.1764,-2.1182,-2.1007,-2.0361,-1.9058,-1.7814,-1.6846,-1.6239,-1.5461,-1.552,-1.647,-1.7224,-1.7519,-1.7456,-1.7625,-1.8129,-1.8762,-1.91,-1.9534,-1.996,-2.0276,-2.0565,-2.0539,-2.0043,-1.9312,-1.8621,-1.7627,-1.682,-1.637,-1.574,-1.528,-1.5038,-1.4624,-1.4602,-1.4914,-1.5614,-1.5904,-1.5912,-1.7605,-1.8419,-1.7775,-1.8122,-1.824,-1.6919,-1.6237,-1.561,-1.5057,-1.4905,-1.4852,-1.5835,-1.6943,-1.8243,-1.9613,-2.1565,-2.3696,-2.6237,-2.8927,-3.1665,-3.3513,-3.4584,-3.3177,-3.0572,-2.8027,-2.5367,-2.369,-2.252,-2.138,-5.6301,-5.6978,-5.8119,-5.8786,-5.921,-5.9389,-5.9218,-5.8608,-5.825,-5.7676,-5.713,-5.7364,-5.7514,-5.7718,-5.8014,-5.7976,-5.7226,-5.5961,-5.5503,-5.5754,-5.4874,-5.4407,-5.4222,-5.2766,-5.1964,-5.1756,-4.9139,-4.701,-4.5543,-4.352,-4.2423,-4.1674,-3.9146,-3.8107,-3.9017,-3.5943,-3.4715,-3.5096,-3.39,-3.2606,-3.1737,-3.0772,-2.9609,-2.8177,-2.7108,-2.575,-2.3964,-2.301,-2.2224,-2.1601,-2.1324,-2.0514,-1.9058,-1.8198,-1.7744,-1.7375,-1.6402,-1.6322,-1.7171,-1.7399,-1.7514,-1.7733,-1.84,-1.8665,-1.8856,-1.9422,-1.9986,-2.008,-2.0163,-2.0379,-2.0703,-2.0502,-1.9803,-1.8594,-1.8362,-1.7716,-1.6684,-1.6373,-1.6162,-1.5419,-1.4934,-1.4785,-1.5399,-1.5996,-1.6253,-1.6657,-1.783,-1.8692,-1.7929,-1.8199,-1.8048,-1.6945,-1.6254,-1.5855,-1.5511,-1.5154,-1.5126,-1.536,-1.6457,-1.7671,-1.8904,-2.061,-2.2498,-2.4964,-2.804,-3.069,-3.1762,-3.2524,-3.1403,-2.9034,-2.6646,-2.467,-2.3419,-2.2172,-2.1081,-5.5922,-5.5893,-5.7227,-5.8325,-5.9096,-5.9294,-5.9218,-5.898,-5.8873,-5.8308,-5.7515,-5.7514,-5.7808,-5.8188,-5.8402,-5.8633,-5.8749,-5.7443,-5.6564,-5.6081,-5.5501,-5.4944,-5.4482,-5.3935,-5.2821,-5.1158,-4.9306,-4.7649,-4.6234,-4.4571,-4.3307,-4.1952,-4.0,-3.877,-3.8402,-3.6203,-3.519,-3.522,-3.4066,-3.2936,-3.2159,-3.1578,-3.0505,-2.8912,-2.7996,-2.6972,-2.5782,-2.4528,-2.3245,-2.2024,-2.1433,-2.0628,-1.9551,-1.8755,-1.8137,-1.7671,-1.7677,-1.7634,-1.777,-1.7763,-1.776,-1.8012,-1.8544,-1.9346,-2.0036,-2.0012,-2.0194,-2.046,-2.0722,-2.0976,-2.1251,-2.1339,-2.0755,-1.9659,-1.9152,-1.8611,-1.7709,-1.6869,-1.6263,-1.6046,-1.551,-1.5404,-1.5634,-1.6013,-1.627,-1.6544,-1.7576,-1.8018,-1.7619,-1.8142,-1.7959,-1.6657,-1.6382,-1.6029,-1.5471,-1.5215,-1.5307,-1.5388,-1.6225,-1.7234,-1.8441,-1.9643,-2.1551,-2.3997,-2.705,-2.8919,-2.9994,-3.0047,-2.9098,-2.7678,-2.5507,-2.4018,-2.2897,-2.149,-1.9922,-5.594,-5.5811,-5.7061,-5.8023,-5.872,-5.907,-5.9148,-5.8947,-5.8942,-5.8488,-5.7756,-5.7735,-5.8044,-5.849,-5.8701,-5.9098,-5.9412,-5.8286,-5.7368,-5.6834,-5.6129,-5.5511,-5.4919,-5.4503,-5.3108,-5.0945,-4.9658,-4.8282,-4.6619,-4.5198,-4.3713,-4.2109,-4.044,-3.9289,-3.844,-3.6577,-3.5581,-3.579,-3.441,-3.3354,-3.3024,-3.2283,-3.1285,-3.0208,-2.9116,-2.8152,-2.7242,-2.6237,-2.4785,-2.2958,-2.1918,-2.1012,-2.0106,-1.9796,-1.9455,-1.9017,-1.9073,-1.9269,-1.91,-1.8862,-1.835,-1.8239,-1.8807,-1.989,-2.0935,-2.0625,-2.0477,-2.0786,-2.1007,-2.1355,-2.1674,-2.1658,-2.1393,-2.1068,-2.0323,-1.9559,-1.8748,-1.7674,-1.6858,-1.6572,-1.6154,-1.5951,-1.599,-1.622,-1.6435,-1.6785,-1.7401,-1.7986,-1.7714,-1.7961,-1.7308,-1.6698,-1.6385,-1.5914,-1.517,-1.5192,-1.5462,-1.5731,-1.6069,-1.7001,-1.8047,-1.9066,-2.0612,-2.3384,-2.6354,-2.7066,-2.8054,-2.8183,-2.7599,-2.5898,-2.3935,-2.2298,-2.064,-1.9274,-1.7796,-5.6224,-5.6503,-5.7397,-5.7901,-5.8232,-5.8817,-5.8881,-5.8528,-5.8614,-5.8345,-5.7853,-5.8027,-5.8331,-5.8701,-5.9098,-5.9401,-5.9352,-5.8492,-5.797,-5.7577,-5.6727,-5.5794,-5.532,-5.4459,-5.2919,-5.0993,-5.0305,-4.8837,-4.6643,-4.5431,-4.3762,-4.222,-4.0841,-3.9665,-3.9055,-3.6931,-3.6451,-3.6885,-3.4979,-3.4069,-3.4407,-3.2997,-3.2054,-3.1856,-3.0448,-2.9269,-2.8452,-2.7725,-2.6311,-2.3961,-2.275,-2.1999,-2.1202,-2.1469,-2.1416,-2.0852,-2.0737,-2.0653,-2.0657,-2.0221,-1.9486,-1.8536,-1.9429,-2.0479,-2.1128,-2.103,-2.0868,-2.0991,-2.1209,-2.1556,-2.1958,-2.2015,-2.1995,-2.2232,-2.1645,-2.0678,-1.944,-1.8592,-1.7963,-1.7406,-1.6955,-1.6623,-1.6555,-1.6812,-1.6936,-1.7231,-1.7752,-1.7979,-1.7882,-1.7536,-1.7189,-1.6738,-1.6387,-1.5683,-1.5009,-1.4874,-1.5135,-1.5285,-1.5709,-1.6481,-1.7454,-1.8523,-1.9931,-2.2676,-2.4621,-2.5328,-2.5733,-2.586,-2.5024,-2.3054,-2.1341,-1.979,-1.8209,-1.6685,-1.5122,-5.5773,-5.5792,-5.6725,-5.7446,-5.7912,-5.8071,-5.8364,-5.8564,-5.8682,-5.8524,-5.829,-5.8348,-5.8754,-5.9301,-5.9436,-5.9487,-5.9159,-5.857,-5.7901,-5.7402,-5.6312,-5.5484,-5.4977,-5.4234,-5.2864,-5.1203,-5.0674,-4.9324,-4.6741,-4.6221,-4.4897,-4.2838,-4.2239,-4.1315,-4.0077,-3.8846,-3.8052,-3.7403,-3.5735,-3.4761,-3.4751,-3.3889,-3.2995,-3.2426,-3.1503,-3.0494,-2.9493,-2.8072,-2.6425,-2.4522,-2.3955,-2.3966,-2.3999,-2.3285,-2.2549,-2.2056,-2.1721,-2.1484,-2.132,-2.1227,-2.0737,-2.008,-2.0322,-2.0519,-2.0328,-2.1092,-2.1296,-2.14,-2.1898,-2.2362,-2.2434,-2.28,-2.3123,-2.3143,-2.2628,-2.1811,-2.0823,-1.9736,-1.8955,-1.9091,-1.8187,-1.7766,-1.7705,-1.7479,-1.7279,-1.7315,-1.7512,-1.7427,-1.7203,-1.7248,-1.6946,-1.655,-1.6051,-1.5389,-1.4887,-1.4728,-1.4726,-1.4781,-1.5209,-1.5756,-1.6766,-1.786,-1.9537,-2.1718,-2.2647,-2.3418,-2.3478,-2.3516,-2.1849,-2.004,-1.815,-1.6387,-1.5094,-1.3642,-1.1986,-5.5263,-5.5246,-5.599,-5.6826,-5.7493,-5.7456,-5.7624,-5.8118,-5.8535,-5.8464,-5.8253,-5.8651,-5.9098,-5.9569,-5.9683,-5.9459,-5.9179,-5.8662,-5.7983,-5.716,-5.5917,-5.5049,-5.4422,-5.3617,-5.2462,-5.1464,-5.0803,-4.9321,-4.7462,-4.6874,-4.5536,-4.3933,-4.3212,-4.2146,-4.0587,-3.9703,-3.8952,-3.8005,-3.6565,-3.5653,-3.5515,-3.4779,-3.3997,-3.3246,-3.2435,-3.1483,-3.0149,-2.8652,-2.7103,-2.5824,-2.5263,-2.5424,-2.6079,-2.4971,-2.3895,-2.3285,-2.3069,-2.2903,-2.2612,-2.2449,-2.2039,-2.1479,-2.1352,-2.1389,-2.1524,-2.1995,-2.2097,-2.2555,-2.296,-2.3095,-2.3176,-2.3748,-2.406,-2.4024,-2.3717,-2.2979,-2.1928,-2.0875,-2.0359,-2.0062,-1.9385,-1.8697,-1.8912,-1.8246,-1.7796,-1.755,-1.777,-1.7071,-1.6361,-1.669,-1.6763,-1.628,-1.5988,-1.5373,-1.5067,-1.4925,-1.4726,-1.4764,-1.4484,-1.5104,-1.5554,-1.6655,-1.8011,-1.946,-2.0537,-2.1122,-2.0784,-2.0112,-1.8458,-1.658,-1.468,-1.2999,-1.1622,-1.0481,-0.8865,-5.4829,-5.5029,-5.5428,-5.6221,-5.7171,-5.6942,-5.7077,-5.743,-5.834,-5.8376,-5.8101,-5.8855,-5.9418,-5.9635,-5.9639,-5.951,-5.902,-5.8515,-5.7712,-5.6724,-5.5566,-5.464,-5.3964,-5.2883,-5.2007,-5.1374,-5.0454,-4.9299,-4.7961,-4.701,-4.5978,-4.4711,-4.368,-4.2482,-4.1295,-4.0095,-3.9342,-3.8792,-3.747,-3.6491,-3.6122,-3.5475,-3.4747,-3.4006,-3.2971,-3.1782,-3.0472,-2.931,-2.8308,-2.7269,-2.6593,-2.668,-2.7147,-2.6266,-2.5491,-2.4794,-2.4582,-2.4402,-2.4194,-2.3606,-2.3259,-2.2765,-2.2423,-2.2644,-2.3248,-2.3257,-2.3241,-2.3655,-2.3774,-2.3803,-2.3904,-2.4548,-2.4788,-2.4755,-2.4779,-2.407,-2.2818,-2.2051,-2.1523,-2.0747,-2.0224,-1.9895,-1.9492,-1.9068,-1.8594,-1.797,-1.7898,-1.7099,-1.6454,-1.653,-1.6352,-1.5929,-1.5692,-1.5518,-1.53,-1.5146,-1.4967,-1.4818,-1.4166,-1.4185,-1.3992,-1.4878,-1.5924,-1.7033,-1.7865,-1.7861,-1.7291,-1.6218,-1.485,-1.3014,-1.1019,-0.9406,-0.7956,-0.7011,-0.5655,-5.4667,-5.4891,-5.5291,-5.6056,-5.6972,-5.6942,-5.7102,-5.738,-5.8324,-5.8513,-5.8336,-5.9106,-5.9631,-5.992,-5.9485,-5.9038,-5.8461,-5.7925,-5.6922,-5.5496,-5.5245,-5.4328,-5.3493,-5.2537,-5.1669,-5.0861,-5.0268,-4.928,-4.8105,-4.7173,-4.6184,-4.5335,-4.4485,-4.3501,-4.2408,-4.1512,-4.0709,-3.9793,-3.8414,-3.7355,-3.656,-3.6006,-3.531,-3.4564,-3.3236,-3.1695,-3.032,-2.9626,-2.9258,-2.8796,-2.8204,-2.7753,-2.7607,-2.7265,-2.6653,-2.6062,-2.5595,-2.5262,-2.4773,-2.4311,-2.4131,-2.4519,-2.3839,-2.3774,-2.4357,-2.4403,-2.4188,-2.4243,-2.4313,-2.4426,-2.4436,-2.4696,-2.5033,-2.5173,-2.529,-2.5075,-2.4244,-2.3327,-2.2292,-2.1349,-2.0918,-2.0665,-2.0138,-1.9866,-1.93,-1.8692,-1.7924,-1.7177,-1.6803,-1.6524,-1.6144,-1.5773,-1.5596,-1.5401,-1.5068,-1.4804,-1.4351,-1.4082,-1.3605,-1.2857,-1.2701,-1.2965,-1.398,-1.4582,-1.5057,-1.4782,-1.4415,-1.2777,-1.148,-0.94,-0.7583,-0.609,-0.4801,-0.3716,-0.3114,-5.4306,-5.4594,-5.4949,-5.5924,-5.7019,-5.697,-5.7209,-5.786,-5.8685,-5.8678,-5.8311,-5.8975,-5.9352,-5.925,-5.8905,-5.8467,-5.7921,-5.7402,-5.6683,-5.5831,-5.5564,-5.4702,-5.3463,-5.2751,-5.1916,-5.028,-4.9705,-4.9139,-4.8525,-4.7722,-4.6937,-4.6169,-4.5327,-4.4213,-4.3154,-4.2557,-4.1603,-4.0558,-3.964,-3.8548,-3.728,-3.6719,-3.5883,-3.4926,-3.3674,-3.2364,-3.1301,-3.0665,-3.0149,-2.9645,-2.9175,-2.8712,-2.8201,-2.7844,-2.7391,-2.6939,-2.6683,-2.6077,-2.5461,-2.5105,-2.4987,-2.5277,-2.449,-2.4565,-2.4761,-2.4947,-2.4915,-2.4927,-2.508,-2.5179,-2.5084,-2.4935,-2.514,-2.5329,-2.5515,-2.5197,-2.4326,-2.3537,-2.292,-2.2024,-2.1757,-2.1271,-2.0907,-2.0508,-2.0009,-1.9316,-1.8644,-1.7803,-1.6729,-1.6473,-1.6088,-1.5791,-1.5553,-1.5248,-1.4916,-1.4316,-1.3511,-1.3138,-1.2647,-1.1707,-1.0972,-1.1388,-1.1981,-1.2357,-1.2633,-1.2385,-1.1783,-1.0012,-0.8668,-0.737,-0.5743,-0.3459,-0.1894,-0.137,-0.0973,-5.3894,-5.4328,-5.4601,-5.5655,-5.6952,-5.6808,-5.7209,-5.8102,-5.8977,-5.8614,-5.8105,-5.8712,-5.8799,-5.839,-5.8184,-5.7828,-5.7438,-5.7101,-5.6617,-5.6303,-5.6127,-5.524,-5.4051,-5.3367,-5.2568,-5.0112,-4.9896,-4.9702,-4.9351,-4.8602,-4.7704,-4.6963,-4.6034,-4.4842,-4.3671,-4.2996,-4.2286,-4.1139,-4.0578,-3.9544,-3.8046,-3.7451,-3.6482,-3.4916,-3.4216,-3.3353,-3.2397,-3.1665,-3.0925,-3.0118,-2.9844,-2.9398,-2.8828,-2.8246,-2.7736,-2.7474,-2.7283,-2.6814,-2.6253,-2.6021,-2.5878,-2.5409,-2.5093,-2.5185,-2.5728,-2.5881,-2.5928,-2.5937,-2.6093,-2.5827,-2.5758,-2.5587,-2.544,-2.5592,-2.5756,-2.5203,-2.4112,-2.3586,-2.3147,-2.2443,-2.2173,-2.1876,-2.1418,-2.0927,-2.0502,-1.9945,-1.9248,-1.8411,-1.7374,-1.6444,-1.6148,-1.5748,-1.5496,-1.4724,-1.4268,-1.3757,-1.2943,-1.2527,-1.1977,-1.0885,-0.9912,-1.0239,-1.064,-1.0107,-1.0114,-1.011,-0.9665,-0.8333,-0.7028,-0.5752,-0.3884,-0.1653,-0.0276,0.0739,0.1156,-5.3887,-5.4264,-5.4493,-5.5248,-5.6212,-5.6241,-5.6854,-5.7601,-5.8094,-5.8053,-5.8026,-5.8295,-5.8355,-5.8155,-5.7663,-5.7273,-5.6994,-5.6917,-5.6826,-5.6532,-5.6387,-5.5724,-5.5262,-5.4146,-5.3516,-5.3225,-5.2102,-5.1054,-5.0271,-4.9527,-4.8421,-4.7181,-4.6289,-4.5313,-4.4393,-4.3568,-4.2922,-4.1977,-4.1244,-4.0052,-3.8773,-3.7657,-3.6516,-3.4793,-3.4391,-3.3865,-3.3029,-3.2134,-3.1463,-3.1238,-3.0323,-2.9754,-2.9377,-2.8874,-2.8371,-2.7853,-2.754,-2.73,-2.7052,-2.6842,-2.7114,-2.7376,-2.7214,-2.7311,-2.7628,-2.7685,-2.7352,-2.725,-2.6924,-2.6447,-2.58,-2.5903,-2.6027,-2.6223,-2.6347,-2.6427,-2.5405,-2.4489,-2.3418,-2.2497,-2.2417,-2.2285,-2.1727,-2.1257,-2.0773,-2.037,-1.9775,-1.899,-1.8033,-1.706,-1.6273,-1.5824,-1.5336,-1.4407,-1.351,-1.293,-1.2368,-1.2167,-1.1567,-1.0453,-0.9705,-0.9527,-0.9413,-0.9166,-0.8841,-0.8784,-0.7975,-0.6928,-0.6378,-0.5806,-0.303,0.0,0.115,0.2109,0.2952,-5.4028,-5.435,-5.462,-5.5303,-5.6105,-5.6745,-5.7464,-5.8174,-5.8448,-5.8403,-5.8178,-5.7924,-5.7615,-5.7299,-5.7018,-5.6814,-5.6831,-5.7054,-5.7071,-5.6951,-5.6616,-5.6684,-5.6444,-5.505,-5.4352,-5.4033,-5.3318,-5.2098,-5.0804,-5.0284,-4.9102,-4.7972,-4.7212,-4.6459,-4.5397,-4.4805,-4.398,-4.3154,-4.2077,-4.0816,-3.9275,-3.7984,-3.6285,-3.538,-3.4886,-3.4552,-3.3759,-3.2888,-3.2116,-3.1501,-3.0562,-2.9991,-2.9738,-2.9628,-2.9289,-2.8678,-2.8425,-2.8237,-2.8202,-2.8113,-2.8272,-2.8029,-2.8003,-2.7826,-2.7971,-2.7889,-2.8123,-2.7936,-2.7615,-2.7071,-2.6674,-2.6493,-2.6357,-2.6245,-2.634,-2.6069,-2.5541,-2.5056,-2.4093,-2.2932,-2.2977,-2.2734,-2.1924,-2.1474,-2.1083,-2.0689,-2.0313,-1.9485,-1.8589,-1.7734,-1.6741,-1.5937,-1.5441,-1.4471,-1.3593,-1.2928,-1.212,-1.1787,-1.1426,-1.0293,-0.9563,-0.9427,-0.9033,-0.8685,-0.8299,-0.7917,-0.7586,-0.6984,-0.6443,-0.5561,-0.2564,0.0156,0.2099,0.3442,0.4208,-5.4367,-5.47,-5.4992,-5.5462,-5.6195,-5.7228,-5.7965,-5.8554,-5.8694,-5.852,-5.8241,-5.7516,-5.6896,-5.6561,-5.6563,-5.6618,-5.6847,-5.7105,-5.7211,-5.7061,-5.6689,-5.6867,-5.6738,-5.5955,-5.4593,-5.4055,-5.4086,-5.3106,-5.141,-5.0954,-4.9927,-4.8671,-4.8257,-4.7542,-4.611,-4.5612,-4.5162,-4.4097,-4.3014,-4.1589,-3.9623,-3.799,-3.6524,-3.5734,-3.5629,-3.5301,-3.4672,-3.3829,-3.3081,-3.2239,-3.1284,-3.0395,-3.021,-3.0376,-3.0272,-2.9863,-2.9823,-2.9606,-2.9448,-2.9379,-2.927,-2.9065,-2.8527,-2.8273,-2.821,-2.8594,-2.8386,-2.8132,-2.7864,-2.763,-2.7357,-2.6974,-2.6712,-2.6476,-2.595,-2.5439,-2.5591,-2.5439,-2.5147,-2.4385,-2.3991,-2.3368,-2.2681,-2.1876,-2.1544,-2.1086,-2.0712,-1.9781,-1.894,-1.8307,-1.738,-1.6305,-1.5475,-1.4614,-1.3883,-1.3248,-1.2357,-1.1577,-1.1306,-1.0629,-0.9886,-0.9345,-0.9014,-0.8736,-0.7824,-0.7481,-0.7255,-0.6992,-0.634,-0.488,-0.2086,0.0258,0.2148,0.3949,0.5158,-5.4965,-5.5389,-5.5448,-5.566,-5.6011,-5.6887,-5.7339,-5.7522,-5.7686,-5.7605,-5.7882,-5.6989,-5.6597,-5.6473,-5.6653,-5.676,-5.6899,-5.7087,-5.7066,-5.6872,-5.6591,-5.6264,-5.5948,-5.5291,-5.4494,-5.4038,-5.4183,-5.3262,-5.1926,-5.163,-5.056,-4.8907,-4.8485,-4.7813,-4.6584,-4.6229,-4.5066,-4.368,-4.2801,-4.1087,-3.8821,-3.8111,-3.7123,-3.6173,-3.5756,-3.5696,-3.5377,-3.4651,-3.4032,-3.3768,-3.2297,-3.1424,-3.1118,-3.0791,-3.0832,-3.075,-3.0603,-3.0307,-3.03,-3.0289,-3.0378,-3.0337,-3.0272,-3.0342,-2.9955,-2.9577,-2.9307,-2.8779,-2.8511,-2.8222,-2.791,-2.761,-2.7357,-2.7167,-2.6855,-2.6578,-2.6457,-2.6172,-2.5875,-2.5536,-2.4966,-2.4279,-2.3591,-2.2786,-2.2064,-2.162,-2.1027,-2.0117,-1.9295,-1.8761,-1.775,-1.6577,-1.5917,-1.5139,-1.4022,-1.3442,-1.2633,-1.1574,-1.1274,-1.099,-1.0293,-0.9734,-0.9563,-0.9098,-0.8061,-0.7313,-0.7294,-0.6921,-0.6211,-0.4849,-0.2886,-0.039,0.2164,0.3934,0.5369,-5.5329,-5.5507,-5.5549,-5.5782,-5.6156,-5.6865,-5.7317,-5.7537,-5.8024,-5.8295,-5.8208,-5.7511,-5.6939,-5.6581,-5.6689,-5.6794,-5.6899,-5.7156,-5.7291,-5.7039,-5.6739,-5.6273,-5.5655,-5.5124,-5.4513,-5.4036,-5.3869,-5.323,-5.2267,-5.1724,-5.0929,-4.9418,-4.9164,-4.8832,-4.7401,-4.7015,-4.6247,-4.4957,-4.3292,-4.1303,-3.9662,-3.8569,-3.7672,-3.6541,-3.6118,-3.5912,-3.5663,-3.5018,-3.4551,-3.4236,-3.304,-3.2377,-3.2154,-3.1927,-3.1859,-3.2288,-3.1931,-3.1696,-3.1646,-3.1341,-3.1347,-3.1312,-3.1201,-3.0794,-3.0675,-3.0359,-2.9957,-2.9438,-2.9136,-2.8811,-2.8446,-2.8171,-2.8171,-2.8024,-2.7825,-2.7458,-2.7225,-2.7078,-2.6776,-2.64,-2.5988,-2.539,-2.4708,-2.3713,-2.2971,-2.2368,-2.1799,-2.1005,-2.014,-1.9444,-1.8189,-1.668,-1.6201,-1.5811,-1.4544,-1.3565,-1.2862,-1.2012,-1.1778,-1.1367,-1.0688,-1.0221,-1.0067,-0.9333,-0.8201,-0.7663,-0.7474,-0.665,-0.5777,-0.4946,-0.4085,-0.1875,0.0314,0.2435,0.4163,-5.5566,-5.5683,-5.5822,-5.6067,-5.638,-5.711,-5.7486,-5.7723,-5.8568,-5.8964,-5.8823,-5.8159,-5.7316,-5.6743,-5.6742,-5.6899,-5.6951,-5.7239,-5.7389,-5.7288,-5.7015,-5.6389,-5.573,-5.5147,-5.4513,-5.3831,-5.4037,-5.3325,-5.2442,-5.1823,-5.1205,-4.9738,-4.9637,-4.9267,-4.8621,-4.77,-4.6695,-4.5271,-4.3535,-4.1872,-4.0457,-3.9432,-3.8427,-3.7472,-3.6689,-3.6168,-3.6017,-3.5356,-3.4925,-3.4708,-3.3945,-3.3423,-3.3519,-3.3146,-3.29,-3.3137,-3.2924,-3.292,-3.2721,-3.2429,-3.2196,-3.1949,-3.1671,-3.1342,-3.1221,-3.0734,-3.0481,-3.0364,-2.9726,-2.9457,-2.9167,-2.8858,-2.8748,-2.8748,-2.87,-2.8286,-2.813,-2.8571,-2.8147,-2.7181,-2.6881,-2.6763,-2.5911,-2.4758,-2.3897,-2.3258,-2.2567,-2.1827,-2.0996,-2.0085,-1.8796,-1.7262,-1.6907,-1.6307,-1.4731,-1.3647,-1.2939,-1.249,-1.223,-1.188,-1.1304,-1.0867,-1.0592,-0.9636,-0.8608,-0.8073,-0.7898,-0.6575,-0.5349,-0.5031,-0.4589,-0.3758,-0.1953,0.0357,0.3071,-5.5742,-5.6141,-5.6308,-5.6455,-5.6617,-5.7459,-5.78,-5.7853,-5.8715,-5.9074,-5.893,-5.834,-5.7657,-5.6956,-5.6899,-5.7054,-5.7138,-5.7356,-5.7291,-5.7023,-5.6722,-5.6607,-5.6098,-5.5507,-5.4642,-5.4054,-5.4074,-5.3605,-5.28,-5.2086,-5.1086,-4.9849,-4.9816,-4.9306,-4.8567,-4.7693,-4.636,-4.5052,-4.367,-4.245,-4.1223,-4.0279,-3.9603,-3.8345,-3.7491,-3.7,-3.6954,-3.618,-3.5768,-3.5724,-3.4855,-3.4563,-3.4674,-3.4079,-3.3713,-3.3677,-3.3733,-3.3703,-3.3542,-3.3075,-3.2705,-3.2472,-3.2301,-3.2207,-3.2287,-3.1466,-3.124,-3.1515,-3.0838,-3.0277,-2.9915,-2.9547,-2.9337,-2.9641,-2.9658,-2.9155,-2.9543,-3.0945,-3.0297,-2.85,-2.7824,-2.788,-2.7563,-2.6497,-2.5189,-2.4524,-2.3305,-2.2555,-2.1502,-2.061,-1.9391,-1.8291,-1.7812,-1.6765,-1.479,-1.3928,-1.3789,-1.316,-1.2635,-1.2378,-1.2036,-1.1653,-1.1211,-1.067,-0.9797,-0.9048,-0.8175,-0.7073,-0.6184,-0.5714,-0.518,-0.4667,-0.313,-0.0669,0.2127,-5.6162,-5.6723,-5.6597,-5.6653,-5.6901,-5.7604,-5.7999,-5.8268,-5.9402,-5.9672,-5.9204,-5.8916,-5.8106,-5.7187,-5.7054,-5.7156,-5.7239,-5.7553,-5.7525,-5.7556,-5.7555,-5.7611,-5.7154,-5.6232,-5.5365,-5.4761,-5.4354,-5.368,-5.2893,-5.224,-5.1418,-5.0522,-4.9946,-4.9306,-4.8575,-4.7591,-4.6253,-4.5217,-4.4094,-4.291,-4.212,-4.0835,-4.0056,-3.9168,-3.8277,-3.7916,-3.7766,-3.7036,-3.6825,-3.6498,-3.5736,-3.5581,-3.5434,-3.4642,-3.4312,-3.4204,-3.4224,-3.407,-3.4087,-3.3633,-3.334,-3.3532,-3.3477,-3.3497,-3.3485,-3.2935,-3.2669,-3.2538,-3.2107,-3.1543,-3.1073,-3.0429,-3.0057,-3.0615,-3.0654,-3.0117,-3.0623,-3.2088,-3.1726,-2.9572,-2.9249,-2.9275,-2.8857,-2.8374,-2.699,-2.5704,-2.4426,-2.3233,-2.2297,-2.1307,-2.0177,-1.9203,-1.8674,-1.7525,-1.5633,-1.5049,-1.4768,-1.3921,-1.3086,-1.2941,-1.2744,-1.2241,-1.1822,-1.137,-1.08,-0.9855,-0.8846,-0.7795,-0.7007,-0.646,-0.6194,-0.5963,-0.4006,-0.1855,0.047,-5.6351,-5.6834,-5.667,-5.6832,-5.7243,-5.7567,-5.7872,-5.8374,-5.9437,-5.9761,-5.92,-5.9146,-5.8477,-5.7394,-5.7206,-5.7338,-5.7437,-5.7649,-5.7857,-5.7941,-5.806,-5.8171,-5.7653,-5.6774,-5.5532,-5.5077,-5.4485,-5.3699,-5.2895,-5.2225,-5.1474,-5.071,-5.0026,-4.939,-4.874,-4.7473,-4.6463,-4.5677,-4.4711,-4.3457,-4.2699,-4.1848,-4.0699,-4.0014,-3.9121,-3.879,-3.8555,-3.7949,-3.7199,-3.6892,-3.6431,-3.6067,-3.559,-3.514,-3.4889,-3.4751,-3.4583,-3.4224,-3.43,-3.4492,-3.4109,-3.3705,-3.427,-3.4386,-3.4432,-3.4083,-3.3635,-3.3828,-3.3423,-3.2854,-3.226,-3.1589,-3.1516,-3.2101,-3.1838,-3.1498,-3.1797,-3.272,-3.188,-3.0654,-3.0741,-3.0838,-3.0105,-2.9565,-2.8381,-2.6816,-2.494,-2.4046,-2.3561,-2.2518,-2.1363,-2.0361,-1.9482,-1.8148,-1.6633,-1.6185,-1.5619,-1.4663,-1.399,-1.3753,-1.3472,-1.2989,-1.2492,-1.2058,-1.1402,-1.0504,-0.9682,-0.8863,-0.7986,-0.7143,-0.7042,-0.7029,-0.6109,-0.4107,-0.2288,-5.6436,-5.6418,-5.66,-5.7065,-5.7676,-5.7241,-5.7544,-5.8336,-5.8743,-5.8896,-5.8906,-5.8833,-5.8427,-5.765,-5.7553,-5.7583,-5.7697,-5.7792,-5.7904,-5.7997,-5.7886,-5.756,-5.6928,-5.6145,-5.5306,-5.4203,-5.3944,-5.3699,-5.3026,-5.245,-5.1713,-5.0842,-5.0078,-4.9427,-4.9208,-4.7725,-4.661,-4.593,-4.5294,-4.4178,-4.3289,-4.285,-4.2002,-4.1029,-4.0231,-3.9927,-3.9712,-3.906,-3.8241,-3.7408,-3.7214,-3.69,-3.6469,-3.5767,-3.5432,-3.5339,-3.5179,-3.5001,-3.4963,-3.5713,-3.5297,-3.4235,-3.5007,-3.5256,-3.4901,-3.4559,-3.4519,-3.4905,-3.444,-3.3804,-3.3347,-3.3138,-3.3408,-3.358,-3.3417,-3.3351,-3.3734,-3.3557,-3.2867,-3.2478,-3.2545,-3.2493,-3.1558,-3.0714,-2.9635,-2.7967,-2.5755,-2.48,-2.4619,-2.3908,-2.2824,-2.1656,-2.0748,-1.9329,-1.8058,-1.7201,-1.6404,-1.5506,-1.4809,-1.4546,-1.4219,-1.3792,-1.331,-1.2814,-1.2208,-1.1513,-1.0794,-1.0073,-0.9069,-0.8164,-0.8107,-0.7944,-0.7293,-0.6421,-0.4601,-5.6704,-5.7186,-5.7241,-5.7549,-5.7891,-5.7923,-5.8404,-5.9108,-5.9369,-5.9247,-5.8896,-5.8823,-5.8367,-5.7802,-5.7697,-5.7745,-5.7792,-5.7886,-5.7997,-5.7941,-5.7638,-5.725,-5.6639,-5.5845,-5.5025,-5.4591,-5.4317,-5.3997,-5.3717,-5.299,-5.2287,-5.1474,-5.0191,-4.937,-4.8877,-4.789,-4.7024,-4.7136,-4.6342,-4.5242,-4.4345,-4.3846,-4.3193,-4.2202,-4.1635,-4.1308,-4.117,-4.0383,-3.9604,-3.8704,-3.8566,-3.7948,-3.7912,-3.7448,-3.5958,-3.6055,-3.6069,-3.6178,-3.6623,-3.7287,-3.7368,-3.6498,-3.6083,-3.6469,-3.6432,-3.6063,-3.6047,-3.6091,-3.6002,-3.5728,-3.5844,-3.5638,-3.5769,-3.6092,-3.6013,-3.5808,-3.5786,-3.5236,-3.4676,-3.4518,-3.4494,-3.3979,-3.3187,-3.2357,-3.1278,-3.0162,-2.8201,-2.6581,-2.6056,-2.5559,-2.4658,-2.3327,-2.211,-2.076,-1.9568,-1.8605,-1.7472,-1.6467,-1.5724,-1.5157,-1.4852,-1.4713,-1.4313,-1.3939,-1.3263,-1.2561,-1.1954,-1.1219,-1.0005,-0.9259,-0.91,-0.8916,-0.8392,-0.7875,-0.7023,-5.6653,-5.7297,-5.737,-5.7658,-5.8016,-5.8298,-5.8685,-5.9037,-5.9219,-5.9006,-5.8604,-5.8512,-5.8256,-5.7902,-5.7792,-5.7857,-5.7904,-5.795,-5.7978,-5.7905,-5.7592,-5.7339,-5.6744,-5.5872,-5.5426,-5.4966,-5.4447,-5.4069,-5.3583,-5.3346,-5.2714,-5.1737,-5.045,-4.995,-4.9276,-4.8409,-4.751,-4.7552,-4.6845,-4.6074,-4.5366,-4.4772,-4.4116,-4.3434,-4.2922,-4.257,-4.2381,-4.2011,-4.1441,-4.0684,-3.9917,-3.9267,-3.9499,-3.8917,-3.7203,-3.7187,-3.716,-3.73,-3.7804,-3.8371,-3.8313,-3.7866,-3.779,-3.7524,-3.7423,-3.7088,-3.7004,-3.7134,-3.756,-3.7627,-3.7541,-3.7428,-3.7681,-3.7969,-3.7821,-3.7563,-3.7138,-3.6549,-3.627,-3.6175,-3.5918,-3.5368,-3.4762,-3.3996,-3.3066,-3.196,-3.0756,-2.9213,-2.7751,-2.7067,-2.6331,-2.4978,-2.3696,-2.2459,-2.1166,-2.0016,-1.884,-1.7486,-1.6805,-1.6265,-1.6077,-1.6021,-1.5529,-1.5169,-1.4812,-1.4314,-1.3346,-1.2365,-1.1214,-1.0359,-0.9928,-0.9687,-0.9438,-0.888,-0.8283,-5.623,-5.6793,-5.6969,-5.7403,-5.7962,-5.8223,-5.8214,-5.8024,-5.807,-5.8088,-5.8033,-5.8107,-5.8052,-5.8015,-5.7997,-5.7997,-5.8015,-5.7997,-5.8042,-5.7923,-5.7689,-5.747,-5.6973,-5.6206,-5.5376,-5.4969,-5.4593,-5.3973,-5.3203,-5.3174,-5.279,-5.2145,-5.1101,-5.0675,-5.0011,-4.9295,-4.8385,-4.8103,-4.7526,-4.6816,-4.6177,-4.5521,-4.4878,-4.4268,-4.3808,-4.3506,-4.3305,-4.3092,-4.2377,-4.1634,-4.0869,-4.0768,-4.0694,-4.0579,-3.9411,-3.8517,-3.8156,-3.8228,-3.8516,-3.9063,-3.9099,-3.8776,-3.8428,-3.781,-3.7668,-3.7923,-3.7953,-3.8042,-3.8339,-3.8518,-3.8568,-3.8832,-3.9037,-3.9076,-3.9032,-3.8677,-3.8253,-3.7903,-3.7656,-3.7496,-3.7287,-3.6848,-3.6162,-3.5393,-3.5064,-3.4091,-3.305,-3.1869,-3.0389,-2.8813,-2.7945,-2.654,-2.531,-2.4238,-2.2991,-2.1743,-2.0489,-1.93,-1.8358,-1.7773,-1.7576,-1.712,-1.6545,-1.6255,-1.6553,-1.5938,-1.4391,-1.3308,-1.2444,-1.1712,-1.1085,-1.0239,-0.9906,-0.9435,-0.8885,-5.6281,-5.6987,-5.7616,-5.7722,-5.75,-5.7733,-5.7832,-5.7857,-5.7932,-5.7978,-5.7997,-5.8197,-5.8179,-5.8133,-5.8133,-5.8088,-5.8042,-5.8088,-5.8152,-5.7884,-5.7353,-5.6737,-5.6103,-5.5429,-5.4689,-5.4485,-5.4295,-5.4233,-5.3931,-5.3605,-5.3311,-5.2817,-5.1851,-5.1484,-5.1174,-5.0685,-4.9784,-4.8987,-4.8309,-4.7663,-4.6992,-4.6372,-4.5726,-4.5168,-4.4935,-4.4575,-4.4172,-4.3954,-4.3408,-4.3228,-4.1621,-4.1071,-4.174,-4.0938,-3.9783,-3.8838,-3.8633,-3.8727,-3.9248,-3.9339,-3.9335,-3.9397,-3.9228,-3.9175,-3.8961,-3.8982,-3.9095,-3.9161,-3.9486,-3.9822,-4.0193,-4.0426,-4.0626,-4.0611,-4.0414,-3.9856,-3.9583,-3.9719,-3.9453,-3.9048,-3.8818,-3.8552,-3.7852,-3.7602,-3.7173,-3.6276,-3.534,-3.4228,-3.2811,-3.1249,-2.9694,-2.8278,-2.7398,-2.6414,-2.4903,-2.3568,-2.2348,-2.1182,-2.0304,-1.9275,-1.8512,-1.8027,-1.7457,-1.7224,-1.7231,-1.6303,-1.4858,-1.4146,-1.3955,-1.3008,-1.2291,-1.1242,-1.0369,-0.9954,-0.9537,-5.6382,-5.7174,-5.7662,-5.7692,-5.7491,-5.7486,-5.7649,-5.781,-5.7857,-5.7969,-5.8088,-5.8331,-5.8393,-5.8305,-5.8305,-5.8242,-5.8197,-5.8223,-5.8139,-5.742,-5.6866,-5.6584,-5.5813,-5.5116,-5.4802,-5.4613,-5.4703,-5.4903,-5.4621,-5.4431,-5.4142,-5.3616,-5.2626,-5.2292,-5.1999,-5.1504,-5.091,-5.0191,-4.9501,-4.8795,-4.807,-4.7413,-4.6839,-4.6202,-4.6108,-4.5513,-4.4927,-4.4643,-4.4635,-4.4689,-4.3046,-4.2662,-4.2898,-4.1872,-4.094,-4.0158,-4.0023,-4.0013,-4.0226,-4.0203,-3.9858,-3.9768,-4.0184,-4.0775,-4.0612,-4.0513,-4.0394,-4.0373,-4.0902,-4.1405,-4.1752,-4.2098,-4.2244,-4.2345,-4.1738,-4.1126,-4.1278,-4.1548,-4.119,-4.0759,-4.0464,-4.0317,-4.003,-3.9817,-3.9203,-3.8058,-3.731,-3.6753,-3.5153,-3.3287,-3.1677,-3.0177,-2.9477,-2.8776,-2.7132,-2.566,-2.4567,-2.3511,-2.2527,-2.1434,-2.0068,-1.9296,-1.9126,-1.846,-1.7745,-1.6857,-1.6113,-1.6001,-1.5724,-1.4716,-1.3815,-1.3047,-1.1896,-1.0681,-1.0253,-5.6563,-5.7437,-5.7455,-5.7589,-5.7745,-5.7553,-5.7553,-5.7792,-5.7781,-5.7941,-5.8215,-5.8375,-5.8462,-5.8375,-5.8393,-5.8393,-5.8238,-5.8208,-5.795,-5.7156,-5.701,-5.6763,-5.6437,-5.5828,-5.5529,-5.5563,-5.5465,-5.5238,-5.5332,-5.5028,-5.4559,-5.4318,-5.3487,-5.2989,-5.2879,-5.2325,-5.1712,-5.1057,-5.0527,-4.9917,-4.9215,-4.8739,-4.8287,-4.7384,-4.6816,-4.6241,-4.5726,-4.5533,-4.5605,-4.5582,-4.537,-4.472,-4.3981,-4.2891,-4.2106,-4.1433,-4.099,-4.0953,-4.1127,-4.1424,-4.0787,-4.0756,-4.1176,-4.1896,-4.1866,-4.1725,-4.16,-4.169,-4.2123,-4.2667,-4.3093,-4.316,-4.3254,-4.3543,-4.3376,-4.2947,-4.2908,-4.3139,-4.3131,-4.2769,-4.2698,-4.2472,-4.2203,-4.1927,-4.1418,-3.9984,-3.9306,-3.9041,-3.7629,-3.5658,-3.4063,-3.2488,-3.1562,-3.0844,-2.9561,-2.8188,-2.6972,-2.5924,-2.4787,-2.3418,-2.1926,-2.1296,-2.0957,-1.9959,-1.8895,-1.8429,-1.7861,-1.7571,-1.7033,-1.6277,-1.5463,-1.4904,-1.3727,-1.2265,-1.0944,-5.6758,-5.7679,-5.7697,-5.7792,-5.7886,-5.7649,-5.7631,-5.7792,-5.7697,-5.7802,-5.8179,-5.8381,-5.8486,-5.8486,-5.8486,-5.8425,-5.827,-5.8055,-5.7913,-5.7511,-5.7208,-5.7029,-5.696,-5.6332,-5.6257,-5.6199,-5.5915,-5.5332,-5.5066,-5.4841,-5.4656,-5.4324,-5.3807,-5.368,-5.359,-5.3033,-5.2605,-5.1806,-5.1452,-5.0645,-4.9632,-4.922,-4.8777,-4.7749,-4.6949,-4.6762,-4.6256,-4.5726,-4.5592,-4.5438,-4.5457,-4.5208,-4.4898,-4.348,-4.2654,-4.211,-4.138,-4.143,-4.1927,-4.2589,-4.249,-4.1876,-4.2038,-4.2454,-4.2666,-4.2741,-4.2857,-4.2979,-4.3286,-4.3845,-4.4248,-4.4277,-4.4319,-4.4696,-4.4992,-4.4749,-4.4461,-4.47,-4.4913,-4.4843,-4.4848,-4.4582,-4.4233,-4.383,-4.3333,-4.274,-4.2086,-4.1445,-4.0132,-3.8451,-3.7117,-3.5533,-3.3783,-3.2788,-3.1682,-3.0536,-2.9306,-2.7936,-2.6722,-2.5273,-2.3798,-2.2687,-2.174,-2.0962,-2.0125,-1.9671,-1.9111,-1.8535,-1.8002,-1.7471,-1.7058,-1.6447,-1.5681,-1.4347,-1.2592,-5.6919,-5.7849,-5.7904,-5.7904,-5.7886,-5.7745,-5.7627,-5.7455,-5.7372,-5.7308,-5.7445,-5.814,-5.8596,-5.8638,-5.8614,-5.8294,-5.8098,-5.8034,-5.7571,-5.726,-5.7283,-5.697,-5.6792,-5.6461,-5.5977,-5.5865,-5.5767,-5.5296,-5.4844,-5.4934,-5.4884,-5.4329,-5.4127,-5.4018,-5.3926,-5.3758,-5.3385,-5.2549,-5.2326,-5.1471,-5.0266,-4.9907,-4.9194,-4.8098,-4.787,-4.7642,-4.6717,-4.6099,-4.5722,-4.5569,-4.5589,-4.5277,-4.4941,-4.4309,-4.3555,-4.3061,-4.2593,-4.2281,-4.2937,-4.3538,-4.4074,-4.3371,-4.2976,-4.3382,-4.4142,-4.4219,-4.3948,-4.4074,-4.4342,-4.4853,-4.5242,-4.5344,-4.5493,-4.5787,-4.5917,-4.5781,-4.5821,-4.6092,-4.5962,-4.5701,-4.5746,-4.5839,-4.55,-4.5061,-4.4512,-4.3941,-4.3559,-4.3141,-4.1971,-4.0951,-3.972,-3.8451,-3.6616,-3.5065,-3.3944,-3.2762,-3.1557,-3.0132,-2.8706,-2.715,-2.5654,-2.385,-2.2467,-2.205,-2.1532,-2.0885,-2.0335,-1.9838,-1.9201,-1.8668,-1.8355,-1.7983,-1.7155,-1.6237,-1.4531,-5.7141,-5.796,-5.8042,-5.795,-5.7857,-5.7839,-5.751,-5.703,-5.6816,-5.6522,-5.6399,-5.7617,-5.8371,-5.8591,-5.8423,-5.8029,-5.7747,-5.7691,-5.7227,-5.7342,-5.7342,-5.7138,-5.6657,-5.6085,-5.5864,-5.5585,-5.5416,-5.5355,-5.5144,-5.5053,-5.4737,-5.422,-5.4055,-5.3981,-5.3851,-5.3794,-5.3534,-5.3199,-5.2864,-5.2474,-5.1676,-5.085,-4.9837,-4.9333,-4.9116,-4.8956,-4.7739,-4.6773,-4.6275,-4.6069,-4.605,-4.5502,-4.5223,-4.491,-4.4687,-4.4172,-4.4008,-4.3856,-4.4081,-4.4468,-4.459,-4.4391,-4.4253,-4.4549,-4.5294,-4.5403,-4.5078,-4.5104,-4.5374,-4.5611,-4.6051,-4.6242,-4.6342,-4.6603,-4.6667,-4.7,-4.7265,-4.7494,-4.7154,-4.6841,-4.6938,-4.7099,-4.6791,-4.635,-4.581,-4.5202,-4.4599,-4.4191,-4.3558,-4.2616,-4.1526,-4.0556,-3.9232,-3.7767,-3.6262,-3.5022,-3.3781,-3.2369,-3.0932,-2.9205,-2.7494,-2.5686,-2.4322,-2.3689,-2.3136,-2.23,-2.1812,-2.1352,-2.0674,-1.9978,-1.9641,-1.9302,-1.8447,-1.7473,-1.6238,-5.7757,-5.8152,-5.8152,-5.8152,-5.8088,-5.7997,-5.7602,-5.6871,-5.5974,-5.5729,-5.602,-5.6065,-5.6641,-5.7575,-5.7032,-5.7032,-5.7806,-5.749,-5.7862,-5.8215,-5.7494,-5.7327,-5.7029,-5.6364,-5.62,-5.5697,-5.5118,-5.4985,-5.4832,-5.468,-5.4441,-5.4091,-5.4091,-5.3963,-5.3773,-5.366,-5.3513,-5.3195,-5.2823,-5.236,-5.1769,-5.1118,-5.0866,-5.0333,-4.983,-4.9598,-4.8966,-4.8143,-4.7579,-4.7233,-4.6992,-4.6252,-4.5874,-4.5691,-4.55,-4.5315,-4.5187,-4.5095,-4.5162,-4.5462,-4.5518,-4.4897,-4.491,-4.5579,-4.6084,-4.6257,-4.6047,-4.5982,-4.6159,-4.6253,-4.6491,-4.64,-4.648,-4.7004,-4.7209,-4.8221,-4.886,-4.8933,-4.8787,-4.8693,-4.8673,-4.8635,-4.8428,-4.7972,-4.7567,-4.6937,-4.6184,-4.5678,-4.4966,-4.4113,-4.3366,-4.237,-4.1444,-3.9865,-3.8116,-3.7187,-3.6019,-3.4624,-3.3095,-3.1348,-2.9522,-2.7559,-2.6357,-2.5862,-2.4694,-2.3638,-2.3191,-2.2823,-2.2142,-2.1503,-2.1085,-2.0598,-1.9723,-1.8699,-1.7458]},{"header":{"parameterUnit":"m.s-1","parameterCategory":1,"la1":31.0,"la2":29.5877,"lo1":-88.7671,"lo2":-86.6584,"dy":0.0162,"dx":0.0185,"nx":115,"ny":88,"refTime":"2023-08-05T00:00:00:Z","depth":0,"parameterNumber":3,"parameterNumberName":"V-component_of_WINDS"},"data":[0.0,0.0,0.0,0.0,0.0,0.0,0.0,0.0,0.0,0.0,0.0,0.0,0.0,0.0,0.0,0.0,0.0,0.0,0.0,0.0,0.0,0.0,0.0,0.0,0.0,0.0,0.0,0.0,0.0,0.0,0.0,0.0,0.0,0.0,0.0,0.0,0.0,0.0,0.0,0.0,0.0,0.0,0.0,0.0,0.0,0.0,0.0,0.0,0.0,0.0,0.0,0.0,0.0,0.0,0.0,0.0,0.0,0.0,0.0,0.0,0.0,0.0,0.0,0.0,0.0,0.0,0.0,0.0,0.0,0.0,0.0,0.0,0.0,0.0,0.0,0.0,0.0,0.0,0.0,0.0,0.0,0.0,0.0,0.0,0.0,0.0,0.0,0.0,0.0,0.0,0.0,0.0,0.0,0.0,0.0,0.0,0.0,0.0,0.0,0.0,0.0,0.0,0.0,0.0,0.0,0.0,0.0,0.0,0.0,0.0,0.0,0.0,0.0,0.0,0.0,0.0,0.0,0.0,0.0,0.0,0.0,0.0,0.0,0.0,0.0,0.0,0.0,0.0,0.0,0.0,0.0,0.0,0.0,0.0,0.0,0.0,0.0,0.0,0.0,0.0,0.0,0.0,0.0,0.0,0.0,0.0,0.0,0.0,0.0,0.0,0.0,0.0,0.0,0.0,0.0,0.0,0.0,0.0,0.0,0.0,0.0,0.0,0.0,0.0,0.0,0.0,0.0,0.0,0.0,0.0,0.0,0.0,0.0,0.0,0.0,0.0,0.0,0.0,0.0,0.0,0.0,0.0,0.0,0.0,0.0,0.0,0.0,0.0,0.0,0.0,0.0,0.0,0.0,0.0,0.0,0.0,0.0,0.0,0.0,0.0,0.0,0.0,0.0,0.0,0.0,0.0,0.0,0.0,0.0,0.0,0.0,0.0,0.0,0.0,0.0,0.0,0.0,0.0,0.0,0.0,0.0,0.0,0.0,0.0,0.0,0.0,0.0,0.0,0.0,0.0,0.0,0.0,0.0,0.0,0.0,0.0,0.0,0.0,0.0,0.0,0.0,0.0,0.0,0.0,0.0,0.0,0.0,0.0,0.0,0.0,0.0,0.0,0.0,0.0,0.0,0.0,0.0,0.0,0.0,0.0,0.0,0.0,0.0,0.0,0.0,0.0,0.0,0.0,0.0,0.0,0.0,0.0,0.0,0.0,0.0,0.0,0.0,0.0,0.0,0.0,0.0,0.0,0.0,0.0,0.0,0.0,0.0,0.0,0.0,0.0,0.0,0.0,0.0,0.0,0.0,0.0,0.0,0.0,0.0,0.0,0.0,0.0,0.0,0.0,0.0,0.0,0.0,0.0,0.0,0.0,0.0,0.0,0.0,0.0,0.0,0.0,0.0,0.0,0.0,0.0,0.0,0.0,0.0,0.0,0.0,0.0,0.0,0.0,0.0,0.0,0.0,0.0,0.0,0.0,0.0,0.0,0.0,0.0,0.0,0.0,0.0,0.0,0.0,0.0,0.0,0.0,0.0,0.0,0.0,0.0,0.0,0.0,0.0,0.0,0.0,0.0,0.0,0.0,0.0,0.0,0.0,0.0,0.0,0.0,0.0,0.0,0.0,0.0,0.0,0.0,0.0,0.0,0.0,0.0,0.0,0.0,0.0,0.0,0.0,0.0,0.0,0.0,0.0,0.0,0.0,0.0,0.0,0.0,0.0,0.0,0.0,0.0,0.0,0.0,0.0,0.0,0.0,0.0,0.0,0.0,0.0,0.0,0.0,0.0,0.0,0.0,0.0,0.0,0.0,0.0,0.0,0.0,0.0,0.0,0.0,0.0,0.0,0.0,0.0,0.0,0.0,0.0,0.0,0.0,0.0,0.0,0.0,0.0,0.0,0.0,0.0,0.0,0.0,0.0,0.0,0.0,0.0,0.0,0.0,0.0,0.0,0.0,0.0,0.0,0.0,0.0,0.0,0.0,0.0,0.0,0.0,0.0,0.0,0.0,0.0,0.0,0.0,0.0,0.0,0.0,0.0,0.0,0.0,0.0,0.0,0.0,0.0,0.0,0.0,0.0,0.0,0.0,0.0,0.0,0.0,0.0,0.0,0.0,0.0,0.0,0.0,0.0,0.0,0.0,0.0,0.0,0.0,0.0,0.0,0.0,0.0,0.0,0.0,0.0,0.0,0.0,0.0,0.0,0.0,0.0,0.0,0.0,0.0,0.0,0.0,0.0,0.0,0.0,0.0,0.0,0.0,0.0,0.0,0.0,0.0,0.0,0.0,0.0,0.0,0.0,0.0,0.0,0.0,0.0,0.0,0.0,0.0,0.0,0.0,0.0,0.0,0.0,0.0,0.0,0.0,0.0,0.0,0.0,0.0,0.0,0.0,0.0,0.0,0.0,0.0,0.0,0.0,0.0,0.0,0.0,0.0,0.0,0.0,0.0,0.0,0.0,0.0,0.0,0.0,0.0,0.0,0.0,0.0,0.0,0.0,0.0,0.0,0.0,0.0,0.0,0.0,0.0,0.0,0.0,0.0,0.0,0.0,0.0,0.0,0.0,0.0,0.0,0.0,0.0,0.0,0.0,0.0,0.0,0.0,0.0,0.0,0.0,0.0,0.0,0.0,0.0,0.0,0.0,0.0,0.0,0.0,0.0,0.0,0.0,0.0,0.0,0.0,0.0,0.0,0.0,0.0,0.0,0.0,0.0,0.0,0.0,0.0,0.0,0.0,0.0,0.0,0.0,0.0,0.0,0.0,0.0,0.0,0.0,0.0,0.0,0.0,0.0,0.0,0.0,0.0,0.0,0.0,0.0,0.0,0.0,0.0,0.0,0.0,0.0,0.0,0.0,0.0,0.0,0.0,0.0,0.0,0.0,0.0,0.0,0.0,0.0,0.0,0.0,0.0,0.0,0.0,0.0,0.0,0.0,0.0,0.0,0.0,0.0,0.0,0.0,0.0,0.0,0.0,0.0,0.0,0.0,0.0,0.0,0.0,0.0,0.0,0.0,0.0,0.0,0.0,0.0,0.0,0.0,0.0,0.0,0.0,0.0,0.0,0.0,0.0,0.0,0.0,0.0,0.0,0.0,0.0,0.0,0.0,0.0,0.0,0.0,0.0,0.0,0.0,0.0,0.0,0.0,0.0,0.0,0.0,0.0,0.0,0.0,0.0,0.0,0.0,0.0,0.0,0.0,0.0,0.0,0.0,0.0,0.0,0.0,0.0,0.0,0.0,0.0,0.0,0.0,0.0,0.0,0.0,0.0,0.0,0.0,0.0,0.0,0.0,0.0,0.0,0.0,0.0,0.0,0.0,0.0,0.0,0.0,0.0,0.0,0.0,0.0,0.0,0.0,0.0,0.0,0.0,0.0,0.0,0.0,0.0,0.0,0.0,0.0,0.0,0.0,0.0,0.0,0.0,0.0,0.0,0.0,0.0,0.0,0.0,0.0,0.0,0.0,0.0,0.0,0.0,0.0,0.0,0.0,0.0,0.0,0.0,0.0,0.0,0.0,0.0,0.0,0.0,0.0,0.0,0.0,0.0,0.0,0.0,0.0,0.0,0.0,0.0,0.0,0.0,0.0,0.0,0.0,0.0,0.0,0.0,0.0,0.0,0.0,0.0,0.0,0.0,0.0,0.0,0.0,0.0,0.0,0.0,0.0,0.0,0.0,0.0,0.0,0.0,0.0,0.0,0.0,0.0,0.0,0.0,0.0,0.0,0.0,0.0,0.0,0.0,0.0,0.0,0.0,0.0,0.0,0.0,0.0,0.0,0.0,0.0,0.0,0.0,0.0,0.0,0.0,0.0,0.0,0.0,0.0,0.0,0.0,0.0,0.0,0.0,0.0,0.0,0.0,0.0,0.0,0.0,0.0,0.0,0.0,0.0,0.0,0.0,0.0,0.0,0.0,0.0,0.0,0.0,0.0,0.0,0.0,0.0,0.0,0.0,0.0,0.0,0.0,0.0,0.0,0.0,0.0,0.0,0.0,0.0,0.0,0.0,0.0,0.0,0.0,0.0,0.0,0.0,0.0,0.0,0.0,0.0,0.0,0.0,0.0,0.0,0.0,0.0,0.0,0.0,0.0,0.0,0.0,0.0,0.0,0.0,0.0,0.0,0.0,0.0,0.0,0.0,0.0,0.0,0.0,0.0,0.0,0.0,0.0,0.0,0.0,0.0,0.0,0.0,0.0,0.0,0.0,0.0,0.0,0.0,0.0,0.0,0.0,0.0,0.0,0.0,0.0,0.0,0.0,0.0,0.0,0.1097,0.0,0.0,0.0,0.0,0.0,0.0,0.0,0.0,0.0,0.0,0.0,0.0,0.0,0.0,0.0,0.0,0.0,0.0,0.0,0.0,0.0,0.0,0.0,0.0,0.0,0.0,0.0,0.0,0.0,0.0,0.0,0.0,0.0,0.0,0.0,0.0,0.0,0.0,0.0,0.0,0.0,0.0,0.0,0.0,0.0,0.0,0.0,0.0,0.0,0.0,0.0,0.0,0.0,0.0,0.0,0.0,0.0,0.0,0.0,0.0,0.0,0.0,0.0,0.0,0.0,0.0,0.0,0.0,0.0,0.0,0.0,0.0,0.0,0.0,0.0,0.0,0.0,0.0,0.0,0.0,0.0,0.0,0.0,0.0,0.0,0.0,0.0,0.0,0.0,0.0,0.0,0.0,0.0,0.0,0.0,0.0,0.0,0.0,0.0,0.0,0.0,0.0,0.0,0.0,0.0,0.0,0.0,0.0,0.0,0.0,0.0987,0.1101,0.159,0.1662,0.1263,0.0,0.0,0.0,0.0,0.0,0.0,0.0,0.0,0.0,0.0,0.0,0.0,0.0,0.0,0.0,0.0,0.0,0.0,0.0,0.0,0.0,0.0,0.0,0.0,0.0,0.0,0.0,0.0,0.0,0.0,0.0,0.0,0.0,0.0,0.0,0.0,0.0,0.0,0.0,0.0,0.0,0.0,0.0,0.0,0.0,0.0,0.0,0.0,0.0,0.0,0.0,0.0,0.0,0.0,0.0,0.0,0.0,0.0,0.0,0.0,0.0,0.0,0.0,0.0,0.0,0.0,0.0,0.0,0.0,0.0,0.0,0.0,0.0,0.0,0.0,0.0,0.0,0.0,0.0,0.0,0.0,0.0,0.0,0.0,0.0,0.0,0.0,0.0,0.0,0.0,0.0,0.0,0.0,0.0,0.0,0.0,0.0,0.0,0.0,0.0,0.0,0.0,0.0,0.0,0.0,0.0,0.0,0.0,0.0,0.0,0.0,0.0,0.185,0.1907,0.1465,0.0,0.0,0.0,0.0,0.0,0.0,0.0,0.0,0.0,0.0,0.0,0.0,0.0,0.0,0.0,0.0,0.0,0.0,0.0,0.0,0.0,0.0,0.0,0.0,0.0,0.0,0.0,0.0,0.0,0.0,0.0,0.0,0.0,0.0,0.0,0.0,0.0,0.0,0.0,0.0,0.0,0.0,0.0,0.0,0.0,0.0,0.0,0.0,0.0,0.0,0.0,0.0,0.0,0.0,0.0,0.0,0.0,0.0,0.0,0.0,0.0,0.0,0.0,0.0,0.0,0.0,0.0,0.0,0.0,0.0,0.0,0.0,0.0,0.0,0.0,0.0,0.0,0.0,0.0,0.0,0.0,0.0,0.0,0.0,0.0,0.0,0.0,0.0,0.0,0.0,0.0,0.0,0.0,0.0,0.0,0.0,0.0,0.0,0.0,0.0,0.0,0.0,0.0,0.0,0.0,0.0,0.0,0.0,0.0,0.0,0.1372,0.2744,0.2584,0.0,0.1929,0.0,0.0,0.0,0.0,0.0,0.0,0.0,0.0,0.0,0.0,0.0,0.0,0.0,0.0,0.0,0.0,0.0,0.0,0.0,0.0,0.0,0.0,0.0,0.0,0.0,0.0,0.0,0.0,0.0,0.0,0.0,0.0,0.0,0.0,0.0,0.0,0.0,0.0,0.0,0.0,0.0,0.0,0.0,0.0,0.0,0.0,0.0,0.0,0.0,0.0,0.0,0.0,0.0,0.0,0.0,0.0,0.0,0.0,0.0,0.0,0.0,0.0,0.0,0.0,0.0,0.0,0.0,0.0,0.0,0.0,0.0,0.0,0.0,0.0,0.0,0.0,0.0,0.0,0.0,0.0,0.0,0.0,0.0,0.0,0.0,0.0,0.0,0.0,0.0,0.0,0.0,0.0,0.0,0.0,0.0,0.0,0.0,0.0,0.0,0.0,0.0,0.0,0.0,0.0,0.0,0.0,0.0,0.0,0.0,0.0,0.2682,0.2586,0.2987,0.3115,0.0,0.0,0.0,0.0,0.0,0.0,0.0,0.0,0.0,0.0,0.0,0.0,0.0,0.0,0.0,0.0,0.0,0.0,0.0,0.0,0.0,0.0,0.0,0.0,0.0,0.0,0.0,0.0,0.0,0.0,0.0,0.0,0.0,0.0,0.0,0.0,0.0,0.0,0.0,0.0,0.0,0.0,0.0,0.0,0.0,0.0,0.0,0.0,0.0,0.0,0.0,0.0,0.0,0.0,0.0,0.0,0.0,0.0,0.0,0.0,0.0,0.0,0.0,0.0,0.0,0.0,0.0,0.0,0.0,0.0,0.0,0.0,0.0,0.0,0.0,0.0,0.0,0.0,0.0,0.0,0.0,0.0,0.0,0.0,0.0,0.0,0.0,0.0,0.0,0.0,0.0,0.0,0.0,0.0,0.0,0.0,0.0,0.0,0.0,0.0,0.0,0.0,0.0,0.0,0.0,0.0,0.0,0.0,0.0,0.0,0.2972,0.3446,0.2726,0.3426,0.3762,0.3519,0.0,0.0,0.0,0.0,0.0,0.0,0.0,0.0,0.0,0.0,0.0,0.0,0.0,0.0,0.0,0.0,0.0,0.0,0.0,0.0,0.0,0.0,0.0,0.0,0.0,0.0,0.0,0.0,0.0,0.0,0.0,0.0,0.0,0.0,0.0,0.0,0.0,0.0,0.0,0.0,0.0,0.0,0.0,0.0,0.0,0.0,0.0,0.0,0.0,0.0,0.0,0.0,0.0,0.0,0.0,0.0,0.0,0.0,0.0,0.0,0.0,0.0,0.0,0.0,0.0,0.0,0.0,0.0,0.0,0.0,0.0,0.0,0.0,0.0,0.0,0.0,0.0,0.0,0.0,0.0,0.0,0.0,0.0,0.0,0.0,0.0,0.0,0.0,0.0,0.0,0.0,0.0,0.0,0.0,0.0,0.0,0.0,0.0,0.0,0.0,0.0,0.0,0.0,0.0,0.0,0.0,0.0,0.0,0.2041,0.2771,0.3246,0.3433,0.3993,0.4067,0.0,0.0,0.0,0.0,0.0,0.0,0.0,0.0,0.0,0.0,0.0,0.0,0.0,0.0,0.0,0.0,0.0,0.0,0.0,0.0,0.0,0.0,0.0,0.0,0.0,0.0,0.0,0.0,0.0,0.0,0.0,0.0,0.0,0.0,0.0,0.0,0.0,0.0,0.0,0.0,0.0,0.0,0.0,0.0,0.0,0.0,0.0,0.0,0.0,0.0,0.0,0.0,0.0,0.0,0.0,0.0,0.0,0.0,0.0,0.0,0.0,0.0,0.0,0.0,0.0,0.0,0.0,0.0,0.0,0.0,0.0,0.0,0.0,0.0,0.0,0.0,0.0,0.0,0.0,0.0,0.0,0.0,0.0,0.0,0.0,0.0,0.0,0.0,0.0,0.0,0.0,0.0,0.0,0.0,0.0,0.0,0.0,0.0,0.0,0.0,0.0,0.0,0.0,0.0,0.0,0.0,0.0,0.0,0.0,0.236,0.28,0.3287,0.3794,0.4171,0.4345,0.0,0.0,0.0,0.0,0.0,0.0,0.0,0.0,0.0,0.0,0.0,0.0,0.0,0.0,0.0,0.0,0.0,0.0,0.0,0.0,0.0,0.0,0.0,0.0,0.0,0.0,0.0,0.0,0.0,0.0,0.0,0.0,0.0,0.0,0.0,0.0,0.0,0.0,0.0,0.0,0.0,0.0,0.0,0.0,0.0,0.0,0.0,0.0,0.0,0.0,0.0,0.0,0.0,0.0,0.0,0.0,0.0,0.0,0.0,0.0,0.0,0.0,0.0,0.0,0.0,0.0,0.0,0.0,0.0,0.0,0.0,0.0,0.0,0.0,0.0,0.0,0.0,0.0,0.0,0.0,0.0,0.0,0.0,0.0,0.0,0.0,0.0,0.0,0.0,0.0,0.0,0.0,0.0,0.0,0.0,0.0,0.0,0.0,0.0,0.0,0.0,0.0,0.0,0.0,0.0,0.0,0.0,0.0,0.0,0.2818,0.0,0.3569,0.4067,0.4242,0.4388,0.0,0.0,0.0,0.0,0.0,0.0,0.0,0.0,0.0,0.0,0.0,0.0,0.0,0.0,0.0,0.0,0.0,0.0,0.0,0.0,0.0,0.0,0.0,0.0,0.0,0.0,0.0,0.0,0.0,0.0,0.0,0.0,0.0,0.0,0.0,0.0,0.0,0.0,0.0,0.0,0.0,0.0,0.0,0.0,0.0,0.0,0.0,0.0,0.0,0.0,0.0,0.0,0.0,0.0,0.0,0.0,0.0,0.0,0.0,0.0,0.0,0.0,0.0,0.0,0.0,0.0,0.0,0.0,0.0,0.0,0.0,0.0,0.0,0.0,0.0,0.0,0.0,0.0,0.0,0.0,0.0,0.0,0.0,0.0,0.0,0.0,0.0,0.0,0.0,0.0,0.0,0.0,0.0,0.0,0.0,0.0,0.0,0.0,0.0,0.0,0.0,0.0,0.0,0.0,0.0,0.0,0.0,0.0,0.2639,0.3456,0.3807,0.4064,0.4301,0.4251,0.4183,0.0,0.0,0.0,0.0,0.0,0.0,0.0,0.0,0.0,0.0,0.0,0.0,0.0,0.0,0.0,0.0,0.0,0.0,0.0,0.0,0.0,0.0,0.0,0.0,0.0,0.0,0.0,0.0,0.0,0.0,0.0,0.0,0.0,0.0,0.0,0.0,0.0,0.0,0.0,0.0,0.0,0.0,0.0,0.0,0.0,0.0,0.0,0.0,0.0,0.0,0.0,0.0,0.0,0.0,0.0,0.0,0.0,0.0,0.0,0.0,0.0,0.0,0.0,0.0,0.0,0.0,0.0,0.0,0.0,0.0,0.0,0.0,0.0,0.0,0.0,0.0,0.0,0.0,0.0,0.0,0.0,0.0,0.0,0.0,0.0,0.0,0.0,0.0,0.0,0.0,0.0,0.0,0.0,0.0,0.0,0.0,0.0,0.0,0.0,0.0,0.0,0.0,0.0,0.0,0.0,0.0,0.0,0.0,0.0,0.3629,0.3784,0.4107,0.4607,0.4342,0.4286,0.0,0.0,0.0,0.0,0.0,0.0,0.0,0.0,0.0,0.0,0.0,0.0,0.0,0.0,0.0,0.0,0.0,0.0,0.0,0.0,0.0,0.0,0.0,0.0,0.0,0.0,0.0,0.0,0.0,0.0,0.0,0.0,0.0,0.0,0.0,0.0,0.0,0.0,0.0,0.0,0.0,0.0,0.0,0.0,0.0,0.0,0.0,0.0,0.0,0.0,0.0,0.0,0.0,0.0,0.0,0.0,0.0,0.0,0.0,0.0,0.0,0.0,0.0,0.0,0.0,0.0,0.0,0.0,0.0,0.0,0.0,0.0,0.0,0.0,0.0,0.0,0.0,0.0,0.0,0.0,0.0,0.0,0.0,0.0,0.0,0.0,0.0,0.0,0.0,0.0,0.0,0.0,0.0,0.0,0.0,0.0,0.0,0.0,0.0,0.0,0.0,0.0,0.0,0.0,0.0,0.0,0.0,0.0,0.0,0.3988,0.4124,0.437,0.4786,0.4519,0.4494,0.4688,0.0,0.0,0.0,0.0,0.0,0.0,0.0,0.0,0.0,0.0,0.0,0.0,0.0,0.0,0.0,0.0,0.0,0.0,0.0,0.0,0.0,0.0,0.0,0.0,0.0,0.0,0.0,0.0,0.0,0.0,0.0,0.0,0.0,0.0,0.0,0.0,0.0,0.0,0.0,0.0,0.0,0.0,0.0,0.0,0.0,0.0,0.0,0.0,0.0,0.0,0.0,0.0,0.0,0.0,0.0,0.0,0.0,0.0,0.0,0.0,0.0,0.0,0.0,0.0,0.0,0.0,0.0,0.0,0.0,0.0,0.0,0.0,0.0,0.0,0.0,0.0,0.0,0.0,0.0,0.0,0.0,0.0,0.0,0.0,0.0,0.0,0.0,0.0,0.0,0.0,0.0,0.0,0.0,0.0,0.0,0.0,0.0,0.0,0.0,0.0,0.0,0.0,0.0,0.0,0.0,0.0,0.0,0.0,0.4477,0.4702,0.4801,0.4801,0.4725,0.4706,0.0,0.0,0.0,0.0,0.0,0.0,0.0,0.0,0.0,0.0,0.0,0.0,0.0,0.0,0.0,0.0,0.0,0.0,0.0,0.0,0.0,0.0,0.0,0.0,0.0,0.0,0.0,0.0,0.0,0.0,0.0,0.0,0.0,0.0,0.0,0.0,0.0,0.0,0.0,0.0,0.0,0.0,0.0,0.0,0.0,0.0,0.0,0.0,0.0,0.0,0.0,0.0,0.0,0.0,0.0,0.0,0.0,0.0,0.0,0.0,0.0,0.0,0.0,0.0,0.0,0.0,0.0,0.0,0.0,0.0,0.0,0.0,0.0,0.0,0.0,0.0,0.0,0.0,0.0,0.0,0.0,0.0,0.0,0.0,0.0,0.0,0.0,0.0,0.0,0.0,0.0,0.0,0.0,0.0,0.0,0.0,0.0,0.0,0.0,0.0,0.0,0.0,0.0,0.0,0.0,0.0,0.0,0.0,0.0,0.4414,0.4809,0.4936,0.4794,0.4783,0.4781,0.0,0.0,0.0,0.0,0.0,0.0,0.0,0.0,0.0,0.0,0.0,0.0,0.0,0.0,0.0,0.0,0.0,0.0,0.0,0.0,0.0,0.0,0.0,0.0,0.0,0.0,0.0,0.0,0.0,0.0,0.0,0.0,0.0,0.0,0.0,0.0,0.0,0.0,0.0,0.0,0.0,0.0,0.0,0.0,0.0,0.0,0.0,0.0,0.0,0.0,0.0,0.0,0.0,0.0,0.0,0.0,0.0,0.0,0.0,0.0,0.0,0.0,0.0,0.0,0.0,0.0,0.0,0.0,0.0,0.0,0.0,0.0,0.0,0.0,0.0,0.0,0.0,0.0,0.0,0.0,0.0,0.0,0.0,0.0,0.0,0.0,0.0,0.0,0.0,0.0,0.0,0.0,0.0,0.0,0.0,0.0,0.0,0.0,0.0,0.0,0.0,0.0,0.0,0.0,0.0,0.0,0.0,0.0,0.3551,0.3556,0.3877,0.4333,0.4916,0.4886,0.4797,0.0,0.0,0.0,0.0,0.0,0.0,0.0,0.0,0.0,0.0,0.0,0.0,0.0,0.0,0.0,0.0,0.0,0.0,0.0,0.0,0.0,0.0,0.0,0.0,0.0,0.0,0.0,0.0,0.0,0.0,0.0,0.0,0.0,0.0,0.0,0.0,0.0,0.0,0.0,0.0,0.0,0.0,0.0,0.0,0.0,0.0,0.0,0.0,0.0,0.0,0.0,0.0,0.0,0.0,0.0,0.0,0.0,0.0,0.0,0.0,0.0,0.0,0.0,0.0,0.0,0.0,0.0,0.0,0.0,0.0,0.0,0.0,0.0,0.0,0.0,0.0,0.0,0.0,0.0,0.0,0.0,0.0,0.0,0.0,0.0,0.0,0.0,0.0,0.0,0.0,0.0,0.0,0.0,0.0,0.0,0.0,0.0,0.0,0.0,0.0,0.0,0.0,0.0,0.0,0.0,0.0,0.0,0.0,0.2734,0.2173,0.2451,0.3398,0.4993,0.4962,0.4795,0.0,0.0,0.0,0.0,0.0,0.0,0.0,0.0,0.0,0.0,0.0,0.0,0.0,0.0,0.0,0.0,0.0,0.0,0.0,0.0,0.0,0.0,0.0,0.0,0.0,0.0,0.0,0.0,0.0,0.0,0.0,0.0,0.0,0.0,0.0,0.0,0.0,0.0,0.0,0.0,0.0,0.0,0.0,0.0,0.0,0.0,0.0,0.0,0.0,0.0,0.0,0.0,0.0,0.0,0.0,0.0,0.0,0.0,0.0,0.0,0.0,0.0,0.0,0.0,0.0,0.0,0.0,0.0,0.0,0.0,0.0,0.0,0.0,0.0,0.0,0.0,0.0,0.0,0.0,0.0,0.0,0.0,0.0,0.0,0.0,0.0,0.0,0.0,0.0,0.0,0.0,0.0,0.0,0.0,0.0,0.0,0.0,0.0,0.0,0.0,0.0,0.0,0.0,0.0,0.0,0.0,0.0,0.0,0.1822,0.0563,0.187,0.3398,0.505,0.4855,0.4682,0.0,0.0,0.0,0.0,0.0,0.0,0.0,0.0,0.0,0.0,0.0,0.0,0.0,0.0,0.0,0.0,0.0,0.0,0.0,0.0,0.0,0.0,0.0,0.0,0.0,0.0,0.0,0.0,0.0,0.0,0.0,0.0,0.0,0.0,0.0,0.0,0.0,0.0,0.0,0.0,0.0,0.0,0.0,0.0,0.0,0.0,0.0,0.0,0.3985,0.0,0.0,0.0,0.0,0.0,0.0,0.0,0.0,0.0,0.0,0.0,0.0,0.0,0.0,0.0,0.0,0.0,0.0,0.0,0.0,0.0,0.0,0.0,0.0,0.0,0.0,0.0,0.0,0.0,0.0,0.0,0.0,0.0,0.0,0.0,0.0,0.0,0.0,0.0,0.0,0.0,0.0,0.0,0.0,0.0,0.0,0.0,0.0,0.0,0.0,0.0,0.0,0.0,0.0,0.0,0.0,0.0,0.0,0.0,0.1249,0.0077,0.0898,0.1816,0.2713,0.4037,0.4673,0.0,0.0,0.0,0.0,0.0,0.0,0.0,0.0,0.0,0.0,0.0,0.0,0.0,0.0,0.0,0.0,0.0,0.0,0.0,0.0,0.0,0.0,0.0,0.0,0.0,0.0,0.0,0.0,0.0,0.0,0.0,0.0,0.0,0.0,0.0,0.0,0.0,0.0,0.0,0.0,0.0,0.0,0.0,0.0,0.0,0.0,0.0,0.0,0.0,0.0,0.0,0.0,0.0,0.0,0.0,0.0,0.0,0.0,0.0,0.0,0.0,0.0,0.0,0.0,0.0,0.0,0.0,0.0,0.0,0.0,0.0,0.0,0.0,0.0,0.0,0.0,0.0,0.0,0.0,0.0,0.0,0.0,0.0,0.0,0.0,0.0,0.0,0.0,0.0,0.0,0.0,0.0,0.0,0.0,0.0,0.0,0.0,0.0,0.0,0.0,0.0,0.0,0.0,0.0,0.0,0.0,0.0,0.249,0.0951,-0.027,-0.012,0.0,0.0,0.2695,0.4016,0.3761,0.0,0.0,0.0,0.0,0.0,0.0,0.0,0.0,0.0,0.0,0.0,0.0,0.0,0.0,0.0,0.0,0.0,0.0,0.0,0.0,0.0,0.0,0.0,0.0,0.0,0.0,0.0,0.0,0.0,0.0,0.0,0.0,0.0,0.0,0.0,0.0,0.0,0.0,0.5486,0.9486,0.0,0.0,0.0,0.0,0.0,0.0,0.0,0.0,0.2811,0.0,0.0,0.0,0.0,0.0,0.0,0.0,0.0,0.0,0.0,0.0,0.0,0.0,0.0,0.0,0.0,0.0,0.0,0.0,0.0,0.0,0.0,0.0,0.0,0.0,0.0,0.0,0.0,0.0,0.0,0.0,0.0,0.0,0.0,0.0,0.0,0.0,0.0,0.0,0.0,0.0,0.0,0.0,0.0,0.0,0.0,0.0,0.0,0.0,0.0,0.0,0.0,0.0,0.0,0.0,0.0,0.1572,0.2104,0.0984,-0.1809,-0.0658,0.0,0.0,0.0523,0.1064,0.1598,0.0,0.0,0.0,0.0,0.0,0.0,0.0,0.0,0.0,0.0,0.0,0.0,0.0,0.0,0.0,0.0,0.0,0.0,0.0,0.0,0.0,0.0,0.0,0.0,0.0,0.0,0.0,0.0,0.0,0.0,0.0,0.0,0.0,0.0,0.0,0.0,0.0,0.0,0.0,1.2608,1.5719,0.0,0.0,0.0,0.0,0.0,0.0,0.0,0.0,0.3778,0.0,0.0,0.0,0.0,0.0,0.0,0.0,0.0,0.0,0.0,0.0,0.0,0.0,0.0,0.0,0.0,0.0,0.0,0.0,0.0,0.0,0.0,0.0,0.0,0.0,0.0,0.0,0.0,0.0,0.0,0.0,0.0,0.0,0.0,0.0,0.0,0.0,0.0,0.0,0.0,0.0,0.0,0.0,0.0,0.0,0.0,0.0,0.0,0.0,0.0,0.0,0.0,0.0,0.0,0.0,0.0374,0.0681,-0.0101,-0.2057,-0.2261,-0.1583,0.0,0.0,0.0442,0.0,0.0,0.0,0.0,0.0,0.0,0.0,0.0,0.0,0.0,0.0,0.0,0.0,0.0,0.0,0.0,0.0,0.0,0.0,0.0,0.0,0.0,0.0,0.0,0.0,0.0,0.0,0.0,0.0,0.0,0.0,0.0,0.0,0.0,0.0,0.0,0.0,0.0,0.0,0.0,1.3597,1.6402,1.7728,0.0,0.0,0.0,0.0,0.0,0.0,1.3797,0.7314,0.0,0.0,0.0,0.0,0.0,0.0,0.0,0.0,0.0,0.0,0.0,0.0,0.0,0.0,0.0,0.0,0.0,0.0,0.0,0.0,0.0,0.0,0.0,0.0,0.0,0.0,0.0,0.0,0.0,0.0,0.0,0.0,0.0,0.0,0.0,0.0,0.0,0.0,0.0,0.0,0.0,0.0,0.0,0.0,0.0,0.0,0.0,0.0,0.0,0.0,0.0,0.0,0.0,0.0,0.0,-0.1078,-0.1329,-0.1764,-0.2533,-0.3734,-0.3269,-0.0975,-0.0331,0.0529,0.0,0.0,0.0,0.0,0.0,0.0,0.0,0.0,0.0,0.0,0.0,0.0,0.0,0.0,0.0,0.0,0.0,0.0,0.0,0.0,0.0,0.0,0.0,0.0,0.0,0.0,0.0,0.0,0.0,0.0,0.0,0.0,0.0,0.0,0.0,0.0,0.0,0.0,0.0,0.0,0.0,1.7603,1.9371,2.0274,0.0,0.0,0.0,0.0,2.1973,1.6989,0.0,0.0,0.0,0.0,0.0,0.0,0.0,0.0,0.0,0.0,0.0,0.0,0.0,0.0,0.0,0.0,0.0,0.0,0.0,0.0,0.0,0.0,0.0,0.0,0.0,0.0,0.0,0.0,0.0,0.0,0.0,0.0,0.0,0.0,0.0,0.0,0.0,0.0,0.0,0.0,0.0,0.0,0.0,0.0,0.0,0.0,0.0,0.0,0.0,0.0,0.0,0.0,0.0,0.0,0.0,0.0,-0.3785,-0.3856,-0.3991,-0.4197,-0.4054,-0.3969,-0.3935,-0.1412,0.0541,0.0,0.0,0.0,0.0,0.0,0.0,0.0,0.0,0.0,0.0,0.0,0.0,0.0,0.0,0.0,0.0,0.0,0.0,0.0,0.0,0.0,0.0,0.0,0.0,0.0,0.0,0.0,0.0,0.0,0.0,0.0,0.0,0.0,0.0,0.0,0.0,0.0,0.0,0.0,0.0,0.0,2.1608,2.0248,2.1226,2.2354,0.0,0.0,2.3959,2.5987,2.4658,0.0,0.0,0.0,0.0,0.0,0.0,0.0,0.0,0.0,0.0,0.0,0.0,0.0,0.0,0.0,0.0,0.0,0.0,0.0,0.0,0.0,0.0,0.0,0.0,0.0,0.0,0.0,0.0,0.0,0.0,0.0,0.0,0.0,0.0,0.0,0.0,0.0,0.0,0.0,0.0,0.0,0.0,0.0,0.0,0.0,0.0,0.0,0.0,0.0,0.0,0.0,0.0,0.0,0.0,0.0,-0.4004,-0.5098,-0.5389,-0.5555,-0.5602,-0.5094,-0.4595,-0.4163,-0.2296,-0.0728,0.0,0.0,0.0,0.0,0.0,0.0,0.0,0.0,0.0,0.0,0.0,0.0,0.0,0.0,0.0,0.0,0.0,0.0,0.0,0.0,0.0,0.0,0.0,0.0,0.0,0.0,0.0,0.0,0.0,0.0,0.0,0.0,0.0,0.0,0.0,0.0,0.0,0.0,0.0,0.0,0.0,0.0,2.167,2.2831,0.0,0.0,0.0,2.4734,2.5578,0.0,0.0,0.0,0.0,0.0,0.0,0.0,0.0,0.0,0.0,0.0,0.0,0.0,0.0,0.0,0.0,0.0,0.0,0.0,0.0,0.0,0.0,0.0,0.0,0.0,0.0,0.0,0.0,0.0,0.0,0.0,0.0,0.0,0.0,0.0,0.0,0.0,0.0,0.0,0.0,0.0,0.0,0.0,0.0,0.0,0.0,0.0,0.0,0.0,0.0,0.0,0.0,0.0,0.0,0.0,0.0,0.0,-0.6586,-0.7069,-0.7285,-0.7224,-0.664,-0.5559,-0.3958,-0.3108,0.0,0.0,0.0,0.0,0.0,0.0,0.0,0.0,0.0,0.0,0.0,0.0,0.0,0.0,0.0,0.0,0.0,0.0,0.0,0.0,0.0,0.0,0.0,0.0,0.0,0.0,0.0,-0.6297,0.0,0.0,0.0,0.0,0.0,0.0,0.0,0.0,0.0,0.0,0.0,0.0,0.0,0.0,2.2902,2.3155,2.4223,2.4371,0.0,0.0,2.5128,2.5147,2.4139,2.1535,0.0,0.0,0.0,0.0,0.0,0.0,0.0,0.0,0.0,0.0,0.0,0.0,0.0,0.0,0.0,0.0,0.0,0.0,0.0,0.0,0.0,0.0,0.0,0.0,0.0,0.0,0.0,0.0,0.0,0.0,0.0,0.0,0.0,0.0,0.0,0.0,0.0,0.0,0.0,0.0,0.0,0.0,0.0,0.0,0.0,0.0,0.0,0.0,0.0,0.0,0.0,0.0,0.0,0.0,0.0,-0.8803,-0.9451,-0.9594,-0.9311,-0.881,-0.7092,-0.4024,-0.3829,-0.2609,0.0,0.0,0.0,0.0,0.0,0.0,0.0,0.0,0.0,0.0,0.0,0.0,0.0,0.0,0.0,0.0,0.0,0.0,0.0,0.0,0.0,0.0,0.0,0.0,0.0,0.0,0.0,0.0,0.0,0.0,0.0,0.0,0.0,0.0,0.0,0.0,0.0,0.0,0.0,0.0,0.0,2.4721,2.4498,2.5082,2.4793,0.0,0.0,2.5612,2.6267,2.6826,2.5116,1.8697,0.0,0.0,0.0,0.0,0.0,0.0,0.0,0.0,0.0,0.0,0.0,0.0,0.0,0.0,0.0,0.0,0.0,0.0,0.0,0.0,0.0,0.0,0.0,0.0,0.0,0.0,0.0,0.0,0.0,0.0,0.0,0.0,0.0,0.0,0.0,0.0,0.0,0.0,0.0,0.0,0.0,0.0,0.0,0.0,0.0,0.0,0.0,0.0,0.0,0.0,0.0,0.0,0.0,-0.7582,-0.9264,-1.0828,-1.1249,-1.0578,-1.0366,-0.9111,-0.6667,-0.5056,-0.327,0.0,0.0,0.0,0.0,0.0,0.0,0.0,0.0,0.0,0.0,0.0,0.0,0.0,0.0,0.0,0.0,0.0,0.0,0.0,0.0,0.0,0.0,0.0,0.0,0.0,0.0,0.0,0.0,-0.9447,-1.0706,-1.1324,0.0,0.0,0.0,0.0,0.0,0.0,0.0,0.0,0.0,0.0,2.4417,2.3649,2.4606,0.0,0.0,2.0695,2.1599,2.3237,1.8935,1.6113,1.8062,1.3536,0.0,0.0,0.0,0.0,0.0,0.0,0.0,0.0,0.0,0.0,0.0,0.0,0.0,0.0,0.0,0.0,0.0,0.0,0.0,0.0,0.0,0.0,0.0,0.0,0.0,0.0,0.0,0.0,0.0,0.0,0.0,0.0,0.0,0.0,0.0,0.0,0.0,0.0,0.0,0.0,0.0,0.0,0.0,0.0,0.0,0.0,0.0,0.0,0.0,0.0,0.0,0.0,-0.8264,-1.0006,-1.199,-1.2673,-1.1956,-1.1917,-1.0868,-0.881,-0.6739,-0.4757,0.0,0.0,0.0,0.0,0.0,0.0,0.0,0.0,0.0,0.0,0.0,0.0,0.0,0.0,0.0,0.0,0.0,0.0,0.0,0.0,0.0,0.0,0.0,0.0,0.0,0.0,0.0,0.0,-1.1567,-1.1696,-1.0572,0.0,0.0,0.0,0.0,0.0,0.0,0.0,0.0,0.0,0.0,2.3738,2.4367,2.4535,2.2809,1.7809,1.6731,1.6803,1.7593,1.1496,0.8247,1.2687,0.0,0.0,0.0,0.0,0.0,0.0,0.0,0.0,0.0,0.0,0.0,0.0,0.0,0.0,0.0,0.0,0.0,0.0,0.0,0.0,0.0,0.0,0.0,0.0,0.0,0.0,0.0,0.0,0.0,0.0,-0.2781,0.0,0.0,0.0,0.0,0.0,0.0,0.0,0.0,0.0,0.0,0.0,0.0,0.0,0.0,0.0,0.0,0.0,0.0,0.0,0.0,0.0,0.0,-0.872,-1.1382,-1.3002,-1.3782,-1.3629,-1.3513,-1.2281,-0.9886,-0.901,-0.7299,-0.4514,0.0,0.0,0.0,0.0,0.0,0.0,0.0,0.0,0.0,0.0,0.0,0.0,0.0,0.0,0.0,0.0,0.0,0.0,0.0,0.0,0.0,0.0,0.0,0.0,0.0,0.0,-1.278,-1.3196,-1.2358,0.0,0.0,0.0,0.0,0.0,0.0,0.0,0.0,0.0,0.0,1.8921,2.2683,2.6836,2.5071,2.0487,1.3788,1.2483,1.152,0.9328,0.6134,0.3535,0.0,0.0,0.0,0.0,0.0,0.0,0.0,0.0,0.0,0.0,0.0,0.0,0.0,0.0,0.0,0.0,0.0,0.0,0.0,0.0,0.0,0.0,0.0,0.0,0.0,0.0,0.0,-1.9989,-1.6455,0.0,0.0,0.0,0.0,0.0,0.0,0.0,0.0,0.0,0.0,0.0,-1.0334,-1.1593,0.0,0.0,0.0,0.0,0.0,0.0,0.0,0.0,0.0,0.0,0.0,0.0,-0.9038,-1.0988,-1.3217,-1.4298,-1.4234,-1.4288,-1.3492,-1.1842,-1.0396,-0.8373,-0.5712,0.0,0.0,0.0,0.0,0.0,0.0,0.0,0.0,0.0,0.0,0.0,0.0,0.0,0.0,0.0,0.0,0.0,0.0,0.0,0.0,0.0,0.0,0.0,0.0,0.0,-1.1478,0.0,0.0,0.0,0.0,0.0,0.0,0.0,0.0,0.0,0.0,0.0,0.0596,0.6268,1.2384,1.4085,0.7932,1.2552,1.3826,0.0,0.0,0.0,0.0,0.0,0.0,0.0,0.0,0.0,0.0,0.0,0.0,0.0,0.0,0.9627,0.3305,-0.0063,-0.2579,-0.4772,0.0,0.0,0.0,0.0,0.0,0.0,0.0,0.0,0.0,0.0,0.0,0.0,0.0,0.0,-2.4695,0.0,-1.9602,0.0,0.0,0.0,0.0,0.0,0.0,0.0,0.0,-1.3346,-1.4409,-1.4009,-1.4602,-1.5004,0.0,-1.2644,-1.0091,0.0,0.0,0.0,0.0,0.0,0.0,0.0,0.0,-0.9402,-1.0956,-1.3231,-1.4544,-1.4759,-1.4786,-1.4161,-1.2887,-1.1076,-0.9364,-0.7768,-0.5531,-0.3742,0.0,0.0,0.0,0.0,0.0,0.0,0.0,0.0,0.0,0.0,0.0,0.0,0.0,0.0,0.0,0.0,0.0,0.0,0.0,0.0,0.0,0.0,0.0,-1.2028,0.0,0.0,0.0,0.0,0.0,0.0,0.0,0.0,0.0,-1.4545,-1.0154,-0.6349,-0.3659,0.4757,0.8121,0.1396,0.0,0.0,0.0,0.0,0.0,0.0,0.0,-1.3165,-0.9451,-1.4991,-1.7887,-1.1685,-0.315,0.4105,0.7872,0.0,0.0,0.7895,0.4537,0.1427,-0.1283,-0.3839,-0.637,-0.8949,-1.0664,-1.2261,0.0,0.0,0.0,0.0,0.0,0.0,0.0,0.0,-3.0085,-2.8999,0.0,-2.5368,0.0,0.0,0.0,0.0,0.0,-1.2779,0.0,0.0,-1.6526,-1.7455,-1.686,-1.6612,-1.6452,-1.6332,-1.5324,-1.4093,-1.2625,-0.9022,0.0,0.0,0.0,0.0,0.0,0.0,-0.9852,-1.1346,-1.3136,-1.446,-1.5196,-1.4983,-1.4271,-1.299,-1.1145,-1.0296,-1.0502,-0.8693,-0.7568,-0.7196,-0.5667,0.0,0.0,0.0,0.0,0.0,0.0,0.0,0.0,0.0,0.0,0.0,0.0,0.0,0.0,0.0,0.0,0.0,0.0,0.0,0.0,-1.2362,0.0,0.0,0.0,0.0,0.0,0.0,0.0,0.0,0.0,0.0,-1.8489,-1.5277,-1.3622,-1.385,0.0,0.0,0.0,0.0,0.1817,-0.4408,-0.584,-0.7607,-1.1236,-1.565,-1.9065,-2.0524,0.0,0.0,-2.3892,-1.3555,-0.3525,0.1008,0.4688,0.9302,1.5128,1.1502,0.7508,0.509,0.0093,-0.4343,-0.6579,-0.9488,-1.1958,-3.8635,0.0,0.0,0.0,0.0,-3.4267,-3.4795,-3.612,-3.4908,-3.3318,-3.1347,-2.8992,0.0,0.0,0.0,0.0,0.0,0.0,-1.6574,-1.6086,-1.8133,-1.8449,-1.7225,-1.8015,-1.8369,-1.832,-1.6839,-1.5962,-1.5426,-1.2819,-1.0257,-0.7821,0.0,0.0,0.0,0.0,-0.9896,-1.0921,-1.2488,-1.3729,-1.4574,-1.4399,-1.375,-1.253,-1.1677,-1.1081,-1.0748,-0.9702,-0.9282,-0.9554,-0.8522,0.0,0.0,0.0,0.0,0.0,0.0,0.0,0.0,0.0,0.0,0.0,0.0,0.0,0.0,0.0,0.0,0.0,0.0,0.0,-1.1868,-1.3706,-1.4426,0.0,0.0,0.0,0.0,0.0,0.0,0.0,0.0,0.0,-2.4773,-2.1748,-1.8985,0.0,0.0,-0.9076,-0.5998,-0.6199,-0.7064,-0.8131,0.0,0.0,0.0,-1.7771,-2.0481,-2.238,-2.4025,-2.5461,-2.6545,-2.0334,-1.364,-0.8906,-0.3479,0.1798,0.6078,0.8157,0.764,0.52,0.1442,-0.2502,-0.5863,-0.9257,-1.2438,-4.3098,-4.0924,-3.9349,-3.8833,-3.8819,-3.7805,-3.8015,-3.8928,-3.7543,-3.6181,-3.4897,-3.2845,-3.0061,-2.6753,-2.353,0.0,0.0,0.0,-1.9287,-1.8674,-1.9502,-1.9346,-1.8288,-1.8924,-1.95,-1.9728,-1.8165,-1.7216,-1.6842,-1.5288,-1.3045,-1.0218,0.0,0.0,-0.9179,-0.9695,-1.0203,-1.0829,-1.2107,-1.3135,-1.3848,-1.409,-1.3768,-1.2891,-1.245,-1.1981,-1.1415,-1.072,-1.0532,-1.0961,-1.0255,-1.0323,0.0,0.0,0.0,0.0,0.0,0.0,0.0,0.0,0.0,0.0,0.0,-0.8999,-0.8728,0.0,0.0,0.0,-0.9924,-1.2202,-1.5043,-1.5676,0.0,0.0,0.0,0.0,0.0,0.0,0.0,-2.6372,-2.8251,-2.9522,-2.8915,-2.7358,-2.5083,-2.1949,-1.9324,-1.6803,-1.4498,0.0,-1.2914,-1.2012,-1.4528,-1.7009,-1.8317,-2.0457,-2.2558,-2.4218,-2.7076,-2.9337,-3.0064,-2.6524,-2.1995,-1.7126,-1.1251,-0.5118,0.0463,0.4213,0.6326,0.5022,0.2139,-0.1412,-0.5115,-0.9071,-1.2673,-4.6369,-4.5755,-4.3092,-4.1813,-4.1428,-4.0621,-4.0271,-4.0083,-3.8391,-3.7878,-3.7919,-3.6227,-3.4006,-3.1092,-2.6887,0.0,-2.4139,-2.283,-2.197,-2.1458,-2.0844,-2.0204,-1.9594,-1.9553,-1.9968,-2.0711,-1.9302,-1.8143,-1.724,-1.6658,-1.5192,-1.2959,-1.1535,-1.0916,-1.103,-1.0745,-1.0669,-1.0843,-1.1884,-1.2733,-1.3254,-1.3882,-1.4055,-1.3629,-1.3251,-1.275,-1.2187,-1.1577,-1.1327,-1.146,-1.1091,-1.1004,-1.1304,0.0,0.0,0.0,0.0,0.0,0.0,0.0,0.0,0.0,0.0,0.0,0.0,0.0,0.0,0.0,-1.325,0.0,-1.9007,-1.8188,0.0,0.0,0.0,-1.4583,-2.259,-2.9718,-3.2928,-3.0223,0.0,0.0,-3.1443,0.0,-3.1183,-2.7666,-2.3438,-2.0361,-1.9322,-1.7815,-1.6681,-1.608,-1.6702,-1.8352,-2.1219,-2.3566,-2.5405,-2.6549,-2.9963,-3.2934,-3.4147,-3.2023,-2.8414,-2.4101,-1.8282,-1.1552,-0.337,0.0472,0.3286,0.4559,0.2323,-0.075,-0.4122,-0.8452,-1.2404,-4.652,-4.599,-4.5233,-4.446,-4.3441,-4.2695,-4.1798,-4.099,-3.9353,-3.8246,-3.7642,-3.5769,-3.3671,-3.1247,-2.9619,-2.8042,-2.6451,-2.5777,-2.4404,-2.2516,-2.2375,-2.1218,-1.9285,-2.0267,-2.0853,-2.0985,-2.0206,-1.9293,-1.8348,-1.6869,-1.5568,-1.4424,-1.2902,-1.1579,-1.0675,-1.0666,-1.0516,-1.0215,-1.1367,-1.2484,-1.3522,-1.3649,-1.353,-1.3195,-1.275,-1.2013,-1.1051,-1.0897,-1.0773,-1.0634,-1.1121,-1.1548,-1.1879,-1.1189,0.0,0.0,0.0,0.0,0.0,0.0,0.0,0.0,0.0,-1.7784,-1.7896,0.0,-1.5298,0.0,-1.8994,-2.0083,-2.0907,-2.1307,0.0,0.0,-2.352,-2.4245,-3.0246,-3.3714,-3.5062,-3.3556,-3.3979,-3.4163,-3.3613,-3.4142,-3.3611,-3.0938,-2.7623,-2.4293,-2.1129,-2.1285,-2.1325,-2.0326,-2.0446,-2.1533,-2.3541,-2.6629,-2.8947,-2.9426,-3.2058,-3.4942,-3.7551,-3.5251,-3.2037,-2.8681,-2.3163,-1.683,-1.0456,-0.4477,0.0549,0.2809,0.2447,0.0749,-0.2374,-0.7011,-1.1573,-4.6908,-4.6108,-4.5995,-4.5519,-4.4604,-4.3598,-4.2672,-4.1592,-3.9966,-3.8853,-3.7959,-3.5945,-3.3874,-3.196,-3.1124,-3.0004,-2.8517,-2.742,-2.5954,-2.4315,-2.3542,-2.2147,-2.0143,-2.0928,-2.1277,-2.1127,-2.0448,-1.9662,-1.883,-1.7522,-1.6238,-1.5011,-1.397,-1.2653,-1.1063,-1.094,-1.0837,-1.0653,-1.1527,-1.2452,-1.3353,-1.3363,-1.3168,-1.2747,-1.2509,-1.1865,-1.0741,-1.0836,-1.0755,-1.0428,-1.1025,-1.1588,-1.2006,-1.1487,-1.1277,0.0,0.0,0.0,0.0,0.0,0.0,0.0,0.0,0.0,0.0,0.0,-1.8485,-2.1053,-2.3035,-2.4473,-2.5217,-2.5196,-2.6651,-3.0433,-3.1499,-3.2708,-3.4663,-3.6869,-3.7703,-3.6344,-3.6011,-3.5723,-3.5271,-3.5392,-3.4754,-3.2804,-3.0869,-2.831,-2.5009,-2.445,-2.4212,-2.3544,-2.356,-2.4484,-2.6493,-2.9299,-3.1497,-3.2373,-3.4053,-3.6259,-3.8398,-3.6537,-3.3743,-3.1036,-2.5842,-1.9842,-1.3925,-0.7224,-0.1436,0.2015,0.3082,0.1766,-0.1161,-0.5734,-1.034,-4.7354,-4.6543,-4.6202,-4.574,-4.5008,-4.3937,-4.2995,-4.2057,-4.0604,-3.9428,-3.8563,-3.624,-3.4492,-3.3021,-3.203,-3.1194,-3.0329,-2.8513,-2.7155,-2.6348,-2.4698,-2.3139,-2.1785,-2.1632,-2.1474,-2.1319,-2.0387,-1.9641,-1.8935,-1.8175,-1.6884,-1.5131,-1.4693,-1.3602,-1.1856,-1.1453,-1.1306,-1.1442,-1.2047,-1.2552,-1.2969,-1.3144,-1.2908,-1.2375,-1.2382,-1.1858,-1.0736,-1.101,-1.0927,-1.0349,-1.0981,-1.1521,-1.1742,-1.155,-1.1627,0.0,-1.2103,0.0,0.0,0.0,0.0,0.0,0.0,0.0,0.0,-2.0619,-2.2048,-2.3239,-2.6408,-2.895,-3.036,-2.9448,-3.0486,-3.473,-3.8294,-3.9551,-3.7644,-3.957,-4.0448,-3.8787,-3.8222,-3.7613,-3.6682,-3.6289,-3.556,-3.4128,-3.3387,-3.1838,-2.9194,-2.7282,-2.6284,-2.632,-2.6357,-2.7313,-2.9569,-3.1545,-3.3178,-3.4498,-3.5563,-3.6944,-3.8287,-3.6806,-3.4659,-3.2199,-2.7332,-2.142,-1.5297,-0.8807,-0.2748,0.2009,0.3454,0.2963,-0.0175,-0.45,-0.8973,-4.7821,-4.7497,-4.712,-4.6192,-4.5043,-4.4367,-4.3489,-4.2448,-4.1384,-3.9807,-3.7798,-3.6332,-3.5058,-3.3824,-3.3221,-3.2387,-3.1365,-3.0033,-2.8783,-2.7561,-2.6073,-2.4848,-2.3793,-2.2961,-2.2595,-2.2542,-2.1112,-1.9913,-1.9062,-1.7849,-1.6663,-1.5495,-1.4118,-1.3168,-1.2712,0.0,0.0,0.0,-1.2292,-1.2759,-1.2837,-1.3101,-1.2787,-1.1951,-1.1919,0.0,-1.003,-1.0694,-1.0512,-0.9284,-1.1616,0.0,0.0,0.0,0.0,0.0,0.0,0.0,0.0,0.0,0.0,0.0,-2.0389,-2.0721,-2.069,-2.5549,-2.8313,-2.7503,-3.0828,-3.3252,-3.3594,-3.3487,-3.473,-3.7991,-4.1022,-4.24,-4.1533,-4.2182,-4.2322,-4.1305,-4.0456,-3.9518,-3.8452,-3.8292,-3.7593,-3.5846,-3.535,-3.4251,-3.1872,-2.9804,-2.8816,-2.914,-2.9372,-3.0239,-3.1585,-3.3019,-3.4073,-3.4888,-3.5741,-3.672,-3.7505,-3.7181,-3.5833,-3.3666,-2.8735,-2.2791,-1.6408,-0.9518,-0.3199,0.1274,0.3421,0.3746,0.0956,-0.3142,-0.7566,-4.8225,0.0,-4.6921,-4.5854,0.0,-4.4124,-4.3146,-4.2078,-4.1162,-3.9657,-3.7748,-3.6764,-3.5747,-3.4748,-3.4159,-3.3174,-3.1968,-3.1046,-2.9942,-2.8706,-2.7206,-2.6039,-2.5051,-2.3501,-2.2624,-2.2349,-2.0689,-1.9483,-1.8635,-1.7674,-1.6578,-1.5561,-1.4595,-1.3661,-1.2727,-1.1885,-1.1434,-1.1471,-1.2073,-1.2459,-1.2487,-1.2743,-1.2672,-1.2267,0.0,0.0,0.0,0.0,0.0,0.0,0.0,0.0,0.0,0.0,0.0,-1.5638,-1.6376,-1.6492,-1.602,-1.9287,-2.1897,-2.3087,-2.4632,-2.5374,-2.4929,-2.9111,-3.1592,-3.1278,-3.4139,-3.618,-3.6702,-3.7517,-3.8771,-4.06,-4.2231,-4.3086,-4.2972,-4.3743,-4.3815,-4.2559,-4.1651,-4.0709,-3.9751,-3.9229,-3.8313,-3.6702,-3.6114,-3.5084,-3.2844,-3.1454,-3.075,-3.065,-3.083,-3.1323,-3.2127,-3.3176,-3.3879,-3.3864,-3.4995,-3.6286,-3.7041,-3.6791,-3.5823,-3.3485,-2.8796,-2.2907,-1.6252,-0.9393,-0.3243,0.1,0.3227,0.3243,0.0933,-0.2547,-0.6537,-4.8433,-4.7979,-4.6802,-4.5661,-4.4465,-4.3796,-4.2663,-4.1215,0.0,0.0,0.0,-3.7374,-3.6455,-3.5504,-3.4878,-3.3925,-3.2544,-3.1746,-3.0813,-2.9732,-2.8155,-2.6984,-2.6105,-2.3982,-2.2661,-2.1988,-2.0206,-1.9004,-1.837,-1.7533,-1.6625,-1.5609,-1.5299,-1.4283,-1.2729,-1.195,-1.1522,-1.1486,-1.1859,-1.2086,-1.2111,-1.2431,-1.2612,-1.2567,-1.2513,-1.248,-1.2424,-1.2941,-1.281,-1.1972,-1.3153,-1.4209,-1.4941,-1.4997,-1.5769,-1.745,-1.8303,-1.8874,-1.9289,-2.2192,-2.4472,-2.565,-2.8399,-2.9963,-2.9703,-3.1968,-3.3622,-3.4305,-3.6408,-3.8158,-3.9165,-4.0522,-4.1699,-4.2328,-4.2687,-4.2992,-4.3341,-4.4325,-4.4451,-4.332,-4.2468,-4.1669,-4.0818,-3.9968,-3.8869,-3.7518,-3.6789,-3.5279,-3.2985,-3.2109,-3.1777,-3.1376,-3.1446,-3.176,-3.2301,-3.2984,-3.3195,-3.3072,-3.4423,-3.571,-3.6267,-3.6327,-3.5265,-3.2976,-2.8183,-2.2108,-1.5242,-0.8578,-0.289,0.1934,0.3141,0.27,0.0412,-0.2585,-0.6208,-4.8708,-4.8212,-4.7944,-4.6476,-4.4257,-4.3832,-4.2285,-4.0106,-3.9884,-3.9534,-3.8803,-3.8457,-3.7406,-3.5738,-3.5699,-3.4774,-3.3379,-3.2082,-3.1406,0.0,-2.8849,-2.7742,-2.7284,-2.5047,-2.3703,-2.2978,-2.0732,-1.9325,-1.8737,-1.7506,-1.653,-1.5871,-1.5247,-1.4385,-1.3194,-1.2534,-1.2157,-1.2174,-1.2238,-1.2072,-1.1797,-1.2628,-1.2759,-1.2062,-1.2354,-1.2353,-1.2089,-1.2853,-1.3333,-1.3424,-1.4834,-1.6009,-1.6855,-1.7121,-1.7531,-1.8042,-1.9491,-2.0324,-2.0376,-2.3435,-2.6045,-2.7665,-2.9565,-3.1189,-3.2451,-3.4375,-3.5579,-3.5672,-3.713,-3.8791,-4.0088,-4.0796,-4.158,-4.2577,-4.2847,-4.3192,-4.3922,-4.363,-4.3557,-4.3943,-4.3488,-4.2577,-4.1614,-4.0834,-3.9964,-3.9148,-3.7753,-3.6167,-3.2947,-3.1856,-3.1839,-3.1821,-3.2271,-3.2706,-3.2817,-3.3119,-3.3401,-3.4059,-3.4306,-3.4896,-3.5454,-3.6008,-3.5053,-3.2032,-2.6893,-2.0762,-1.3215,-0.6777,-0.1474,0.292,0.3643,0.2325,-0.0407,-0.3821,-0.7142,-4.838,-4.7999,-4.7321,-4.5892,-4.4302,-4.2899,-4.1437,-4.0174,-3.9503,-3.9121,-3.8824,-3.8487,-3.7732,-3.6793,-3.5881,-3.5042,-3.4026,-3.2732,-3.1777,-3.113,-2.9189,-2.7892,-2.6993,-2.4713,-2.3299,-2.2513,-2.0208,-1.8779,-1.8141,-1.6839,-1.5864,-1.5374,-1.4674,-1.4072,-1.3659,-1.2837,-1.241,-1.2198,-1.2241,-1.2175,-1.1881,-1.2551,-1.2641,-1.2186,-1.2388,-1.2556,-1.2705,-1.3377,-1.3965,-1.4427,-1.5437,-1.6309,-1.6942,-1.7707,-1.8402,-1.9066,-2.0085,-2.1011,-2.1658,-2.4225,-2.6395,-2.7833,-2.9426,-3.111,-3.2836,-3.4352,-3.5326,-3.5666,-3.6768,-3.8106,-3.9643,-4.0456,-4.1197,-4.2027,-4.2555,-4.3083,-4.3411,-4.3322,-4.3105,-4.3123,-4.2866,-4.2172,-4.0949,-4.0458,-3.9862,-3.8925,-3.7482,-3.5208,-3.2474,-3.1965,-3.1929,-3.1927,-3.2187,-3.2487,-3.2702,-3.2756,-3.2931,-3.3225,-3.3751,-3.3991,-3.41,-3.4908,-3.3991,-2.9783,-2.3229,-1.6205,-1.0283,-0.4908,0.0,0.3161,0.3348,0.1486,-0.1651,-0.5896,-1.0029,-4.8079,-4.7795,-4.6853,-4.5673,-4.4132,-4.1912,-4.0653,-4.026,-3.9186,-3.8709,-3.854,-3.8308,-3.7977,-3.7356,-3.607,-3.5179,-3.4414,-3.3071,-3.2052,-3.1141,-2.9382,-2.7923,-2.6774,-2.4477,-2.2886,-2.1896,-1.9722,-1.8347,-1.7647,-1.6152,-1.5212,-1.4835,-1.4029,-1.3796,-1.4096,-1.3191,-1.2607,-1.2491,-1.2437,-1.2178,-1.1788,-1.2273,-1.2434,-1.2323,-1.2474,-1.2785,-1.3233,-1.3629,-1.4211,-1.489,-1.5433,-1.607,-1.6779,-1.782,-1.8887,-1.9874,-2.0417,-2.1384,-2.3059,-2.4781,-2.6341,-2.7601,-2.9043,-3.0733,-3.2477,-3.3502,-3.4386,-3.5249,-3.6057,-3.7202,-3.8706,-3.9703,-4.0446,-4.1002,-4.2075,-4.2659,-4.2647,-4.2705,-4.2629,-4.2152,-4.2022,-4.1486,-4.0474,-3.9965,-3.9305,-3.7899,-3.6146,-3.4253,-3.2528,-3.1984,-3.1875,-3.1912,-3.2001,-3.2196,-3.2371,-3.244,-3.2406,-3.2196,-3.298,-3.3117,-3.2909,-3.3778,-3.2626,-2.7516,-1.8657,-1.186,-0.7968,-0.3105,0.1351,0.4133,0.358,0.0759,-0.3804,-0.8253,-1.2301,-4.8089,-4.7385,-4.7692,-4.6351,-4.3929,-4.1589,-4.0341,-3.967,-3.8736,-3.8272,-3.7987,-3.8261,-3.797,-3.7222,-3.6296,-3.5343,-3.4444,-3.2849,-3.1892,-3.1254,-2.956,-2.8133,-2.6947,-2.4984,-2.3238,-2.1854,-1.9803,-1.839,-1.771,-1.6052,-1.4944,-1.44,-1.3632,-1.3736,-1.4344,-1.3568,-1.3295,-1.3777,-1.3142,-1.2161,-1.1142,-1.1861,-1.2227,-1.2056,-1.2523,-1.2903,-1.3132,-1.3174,-1.3565,-1.4308,-1.4732,-1.5603,-1.7015,-1.8005,-1.9037,-2.0147,-2.0439,-2.1637,-2.4109,-2.5067,-2.6083,-2.756,-2.8885,-3.0351,-3.1969,-3.2371,-3.3178,-3.457,-3.5542,-3.6584,-3.8003,-3.8664,-3.9244,-3.9921,-4.131,-4.2203,-4.1849,-4.1499,-4.1504,-4.215,-4.1541,-4.113,-4.0772,-4.0207,-3.8958,-3.6949,-3.5757,-3.4198,-3.2279,-3.176,-3.1668,-3.18,-3.1929,-3.2179,-3.2406,-3.2456,-3.2422,-3.2213,-3.2547,-3.2451,-3.2031,-3.1756,-3.1,-2.5205,-1.6599,-0.9106,-0.5403,-0.1228,0.2825,0.45,0.3353,0.008,-0.635,-1.028,-1.2383,-4.7687,-4.6913,-4.7021,-4.5867,-4.3731,-4.1649,-4.0491,-3.9935,-3.8694,-3.801,-3.7878,-3.7912,-3.7659,-3.7535,-3.6304,-3.5493,-3.4977,-3.2862,-3.185,-3.1511,-2.9183,-2.7901,-2.7352,-2.4499,-2.2845,-2.2085,-1.9344,-1.771,-1.7004,-1.513,-1.3828,-1.3275,-1.3105,-1.3548,-1.4152,-1.3502,-1.3514,-1.4118,-1.3164,-1.2258,-1.1619,-1.1967,-1.2192,-1.2078,-1.2184,-1.2484,-1.2825,-1.302,-1.3575,-1.4536,-1.4567,-1.529,-1.7052,-1.8675,-1.9655,-1.9984,-2.0852,-2.2199,-2.4185,-2.4901,-2.5897,-2.7299,-2.861,-2.9986,-3.1442,-3.2162,-3.302,-3.4085,-3.4784,-3.5703,-3.7154,-3.7935,-3.8478,-3.8974,-3.9997,-4.0753,-4.0944,-4.1092,-4.1209,-4.0914,-4.0598,-4.022,-3.9829,-3.9323,-3.8118,-3.6414,-3.5579,-3.4531,-3.2473,-3.2202,-3.2288,-3.2123,-3.2284,-3.2753,-3.3051,-3.2838,-3.2719,-3.2755,-3.2603,-3.2042,-3.0702,-2.9829,-2.8091,-2.3142,-1.4205,-0.7179,-0.3721,0.0372,0.4309,0.4924,0.1457,-0.29,-0.7818,-1.0157,-1.1267,-4.7116,-4.6661,-4.6059,-4.4939,-4.3345,-4.1337,-4.0174,-3.968,-3.8166,-3.7517,-3.7506,-3.7132,-3.7143,-3.7133,-3.5919,-3.5253,-3.4763,-3.2656,-3.166,-3.1268,-2.8857,-2.7603,-2.7093,-2.4304,-2.252,-2.1745,-1.9008,-1.6978,-1.5832,-1.4179,-1.2916,-1.2374,-1.2428,-1.3049,-1.3807,-1.3333,-1.3557,-1.4404,-1.3424,-1.2713,-1.257,-1.2494,-1.2341,-1.195,-1.1789,-1.202,-1.2581,-1.2851,-1.3478,-1.4621,-1.4543,-1.5291,-1.7035,-1.8991,-2.0023,-2.0067,-2.1091,-2.2427,-2.3835,-2.4612,-2.5578,-2.6906,-2.8253,-2.9587,-3.0858,-3.1953,-3.2901,-3.3757,-3.4271,-3.5174,-3.6458,-3.737,-3.7883,-3.802,-3.8881,-3.9765,-4.0131,-4.0416,-4.0157,-3.963,-3.957,-3.9393,-3.8811,-3.8232,-3.7301,-3.6017,-3.5687,-3.5019,-3.312,-3.2902,-3.3107,-3.249,-3.263,-3.29,-3.3364,-3.3095,-3.2977,-3.2827,-3.2469,-3.1345,-2.9459,-2.8122,-2.5633,-2.0705,-1.2048,-0.5898,-0.2463,0.1639,0.4827,0.4161,0.1151,-0.3512,-0.6689,-0.8634,-0.9082,-4.6286,-4.6503,-4.5049,-4.3802,-4.2741,-4.0513,-3.9328,-3.8875,-3.7219,-3.6556,-3.6423,-3.6178,-3.6044,-3.5981,-3.5357,-3.4547,-3.3592,-3.2093,-3.1001,-3.0329,-2.8501,-2.7222,-2.6227,-2.4205,-2.2507,-2.117,-1.9015,-1.6441,-1.3708,-1.3084,-1.2462,-1.1688,-1.1503,-1.22,-1.3284,-1.3035,-1.3516,-1.4759,-1.406,-1.3818,-1.4016,-1.3339,-1.2447,-1.1668,-1.1405,-1.1692,-1.2319,-1.2589,-1.3129,-1.4101,-1.4594,-1.5581,-1.7102,-1.8636,-1.9788,-2.0501,-2.1134,-2.2132,-2.3455,-2.4261,-2.5159,-2.6417,-2.7741,-2.9115,-3.0484,-3.1564,-3.2568,-3.3522,-3.4244,-3.5062,-3.6079,-3.6861,-3.7272,-3.729,-3.8581,-3.9417,-3.9476,-3.8821,-3.8503,-3.8556,-3.8528,-3.8436,-3.84,-3.7576,-3.666,-3.58,-3.5543,-3.4892,-3.345,-3.3416,-3.358,-3.3152,-3.2809,-3.2608,-3.2826,-3.2891,-3.2808,-3.2581,-3.2004,-3.0785,-2.856,-2.6204,-2.2905,-1.8646,-1.1579,-0.5845,-0.1691,0.1539,0.4093,0.4003,0.1957,-0.1767,-0.4379,-0.5867,-0.6012,-4.4905,-4.4694,-4.3919,-4.3063,-4.197,-4.0185,-3.9111,-3.8384,-3.7406,-3.6576,-3.6076,-3.5921,-3.5541,-3.4891,-3.4644,-3.4211,-3.3414,-3.187,-3.0918,-3.0374,-2.8324,-2.7292,-2.6961,-2.4292,-2.2477,-2.1439,-1.9199,-1.6605,-1.3934,-1.2791,-1.2005,-1.1377,-1.1284,-1.1606,-1.2153,-1.2529,-1.3105,-1.366,-1.3591,-1.3599,-1.3518,-1.3107,-1.2677,-1.2304,-1.1907,-1.1957,-1.2378,-1.2845,-1.3545,-1.4577,-1.4904,-1.5701,-1.7116,-1.856,-1.9681,-2.0478,-2.1006,-2.1859,-2.3229,-2.4374,-2.5248,-2.5914,-2.6953,-2.8489,-3.0096,-3.0958,-3.1759,-3.3009,-3.3866,-3.4695,-3.563,-3.6319,-3.6679,-3.6893,-3.7757,-3.8454,-3.8222,-3.7636,-3.7225,-3.7398,-3.7158,-3.6958,-3.7358,-3.704,-3.6301,-3.5556,-3.5839,-3.517,-3.3835,-3.3973,-3.4409,-3.3572,-3.3266,-3.3155,-3.282,-3.2884,-3.2773,-3.2389,-3.1703,-3.0049,-2.8024,-2.5503,-2.2417,-1.8127,-1.1458,-0.5336,-0.0953,0.4238,0.6162,0.5587,0.3364,0.1264,-0.1553,-0.1862,-0.1465,-4.4409,-4.3549,-4.3036,-4.2304,-4.1354,-3.9722,-3.8616,-3.7911,-3.7076,-3.6237,-3.5603,-3.5294,-3.4922,-3.4248,-3.3843,-3.3361,-3.2913,-3.1517,-3.0615,-2.9945,-2.7911,-2.695,-2.6681,-2.4187,-2.2432,-2.1386,-1.8674,-1.6106,-1.4091,-1.2587,-1.16,-1.1171,-1.0919,-1.12,-1.1715,-1.2211,-1.2596,-1.3182,-1.3557,-1.3569,-1.333,-1.3195,-1.3034,-1.2797,-1.2422,-1.2325,-1.2488,-1.292,-1.36,-1.449,-1.4777,-1.5623,-1.716,-1.8366,-1.9465,-2.0325,-2.0704,-2.146,-2.2774,-2.4036,-2.4904,-2.5518,-2.6629,-2.805,-2.9593,-3.0418,-3.1414,-3.2413,-3.3251,-3.4058,-3.4869,-3.5426,-3.5941,-3.6545,-3.7164,-3.7558,-3.765,-3.6858,-3.6438,-3.6305,-3.5525,-3.5471,-3.623,-3.6125,-3.5721,-3.5118,-3.5896,-3.5573,-3.4146,-3.4627,-3.5226,-3.4121,-3.4041,-3.386,-3.3425,-3.3087,-3.2403,-3.1934,-3.1205,-2.948,-2.737,-2.4808,-2.1524,-1.712,-1.1614,-0.5441,0.0439,0.6098,0.7888,0.7764,0.6664,0.4816,0.3488,0.2965,0.3818,-4.4584,-4.3523,-4.242,-4.1354,-4.0504,-3.8937,-3.7726,-3.7158,-3.6222,-3.5517,-3.4838,-3.4298,-3.4047,-3.366,-3.299,-3.2302,-3.1721,-3.086,-2.9823,-2.8715,-2.721,-2.6389,-2.6008,-2.3908,-2.2191,-2.0911,-1.7401,-1.5161,-1.4033,-1.2479,-1.1466,-1.1167,-1.0489,-1.1017,-1.2583,-1.2114,-1.255,-1.3648,-1.3955,-1.4009,-1.4047,-1.3862,-1.3494,-1.2915,-1.2713,-1.2698,-1.2675,-1.2755,-1.3222,-1.3894,-1.4316,-1.5389,-1.716,-1.804,-1.8945,-1.9988,-2.0345,-2.108,-2.2176,-2.2985,-2.3995,-2.5208,-2.6647,-2.7672,-2.8625,-3.0051,-3.1221,-3.1671,-3.2426,-3.3256,-3.3951,-3.446,-3.518,-3.6493,-3.6829,-3.7143,-3.7255,-3.656,-3.5669,-3.5252,-3.4142,-3.3802,-3.4791,-3.5101,-3.4854,-3.4922,-3.5566,-3.5717,-3.4441,-3.5335,-3.5806,-3.5131,-3.4659,-3.4392,-3.3841,-3.3253,-3.2254,-3.1319,-3.0468,-2.912,-2.6748,-2.4238,-2.0979,-1.6602,-0.945,-0.3226,0.383,0.8867,1.0355,1.0281,0.924,0.8797,0.8293,0.8125,0.9552,-4.2717,-4.1359,-4.1387,-4.065,-3.9487,-3.869,-3.7726,-3.6676,-3.6254,-3.5382,-3.4388,-3.4047,-3.3544,-3.2921,-3.254,-3.1835,-3.0746,-2.9744,-2.8977,-2.8421,-2.722,-2.6354,-2.555,-2.3732,-2.161,-1.9382,-1.7339,-1.5597,-1.4245,-1.2991,-1.201,-1.1339,-1.0999,-1.1117,-1.1741,-1.1763,-1.2203,-1.2645,-1.3333,-1.3475,-1.3157,-1.373,-1.3741,-1.3328,-1.2981,-1.2865,-1.2854,-1.3318,-1.3488,-1.3364,-1.4186,-1.5334,-1.6625,-1.7489,-1.8296,-1.92,-2.0425,-2.1203,-2.1749,-2.2232,-2.3251,-2.4792,-2.5998,-2.7248,-2.8483,-2.9118,-2.9939,-3.0912,-3.1909,-3.2767,-3.3518,-3.4316,-3.5059,-3.602,-3.6402,-3.6331,-3.591,-3.4972,-3.4288,-3.4023,-3.3261,-3.3224,-3.3913,-3.4146,-3.4111,-3.411,-3.506,-3.5362,-3.4579,-3.5605,-3.6418,-3.5721,-3.5332,-3.457,-3.3752,-3.2816,-3.1735,-3.0695,-2.9728,-2.854,-2.6214,-2.3724,-2.0362,-1.4705,-0.7629,-0.0631,0.6375,1.064,1.2277,1.3425,1.3137,1.2905,1.2757,1.3559,1.4876,-4.1394,-4.0178,-4.014,-3.9506,-3.8498,-3.7995,-3.696,-3.5946,-3.5767,-3.4969,-3.4021,-3.367,-3.3175,-3.2422,-3.2038,-3.1258,-3.0272,-2.8902,-2.8291,-2.7873,-2.6772,-2.5885,-2.4883,-2.2855,-2.0786,-1.8668,-1.722,-1.5921,-1.4587,-1.3281,-1.2225,-1.1579,-1.131,-1.1359,-1.1478,-1.1621,-1.1905,-1.2499,-1.3037,-1.3222,-1.3259,-1.362,-1.3766,-1.3449,-1.3116,-1.283,-1.2703,-1.3296,-1.3457,-1.3322,-1.4302,-1.5406,-1.6137,-1.7209,-1.8142,-1.8852,-1.9838,-2.0754,-2.1305,-2.1698,-2.236,-2.377,-2.4957,-2.6635,-2.8292,-2.8519,-2.8841,-3.0103,-3.0709,-3.1512,-3.2592,-3.335,-3.4237,-3.5237,-3.5739,-3.5651,-3.4891,-3.4133,-3.3628,-3.3421,-3.2757,-3.2704,-3.2967,-3.3442,-3.3511,-3.3665,-3.4711,-3.5684,-3.5144,-3.6025,-3.6083,-3.581,-3.5137,-3.4322,-3.3481,-3.2396,-3.1182,-3.0058,-2.8989,-2.7607,-2.5774,-2.344,-2.0433,-1.2434,-0.5063,0.1537,0.8443,1.2474,1.4907,1.5715,1.6759,1.7109,1.7242,1.8532,1.9851,-4.0475,-4.0118,-3.8897,-3.8143,-3.7636,-3.6753,-3.5906,-3.5167,-3.4872,-3.4368,-3.3739,-3.3165,-3.2667,-3.2038,-3.1258,-3.0593,-2.9916,-2.8528,-2.7495,-2.7001,-2.6002,-2.4841,-2.3482,-2.1727,-1.9917,-1.8308,-1.7199,-1.5986,-1.4706,-1.3457,-1.2342,-1.1907,-1.1615,-1.1467,-1.194,-1.1733,-1.2196,-1.3152,-1.3078,-1.3163,-1.364,-1.3584,-1.3359,-1.3277,-1.2846,-1.2424,-1.2298,-1.2635,-1.2975,-1.3214,-1.4563,-1.5404,-1.5904,-1.7154,-1.805,-1.8611,-1.9086,-1.9944,-2.0747,-2.1495,-2.1929,-2.2486,-2.4101,-2.5862,-2.7535,-2.7782,-2.8074,-2.9025,-2.9326,-2.9943,-3.1214,-3.2031,-3.2918,-3.4235,-3.4977,-3.5105,-3.4891,-3.4243,-3.3606,-3.326,-3.257,-3.2104,-3.249,-3.2995,-3.3239,-3.3636,-3.4467,-3.5096,-3.5671,-3.5756,-3.5837,-3.5489,-3.4942,-3.402,-3.3125,-3.1898,-3.069,-2.952,-2.834,-2.6895,-2.4926,-2.247,-1.8749,-1.0755,-0.346,0.3335,0.9303,1.339,1.7038,1.892,1.99,2.0854,2.1894,2.2859,2.4083,-3.9052,-3.8166,-3.7902,-3.7306,-3.654,-3.6287,-3.559,-3.4842,-3.4566,-3.3789,-3.2979,-3.2676,-3.1901,-3.087,-3.0611,-2.9821,-2.8854,-2.778,-2.7,-2.6311,-2.4925,-2.3695,-2.2632,-2.15,-1.9897,-1.8006,-1.7448,-1.6504,-1.4849,-1.4021,-1.3406,-1.2791,-1.2612,-1.2631,-1.2732,-1.2155,-1.2456,-1.3153,-1.283,-1.2652,-1.2906,-1.2924,-1.2583,-1.2043,-1.1778,-1.1629,-1.1618,-1.1844,-1.2604,-1.3733,-1.4323,-1.5416,-1.6494,-1.6763,-1.7069,-1.7702,-1.8716,-1.9514,-2.0321,-2.1227,-2.1948,-2.2498,-2.3585,-2.4672,-2.488,-2.6398,-2.7257,-2.8015,-2.8667,-2.9541,-3.0317,-3.1381,-3.2567,-3.3673,-3.4349,-3.4736,-3.4655,-3.3506,-3.2831,-3.3743,-3.3151,-3.2891,-3.3124,-3.3222,-3.3194,-3.3439,-3.3821,-3.4019,-3.4504,-3.596,-3.6341,-3.5491,-3.4818,-3.3768,-3.2666,-3.1405,-3.0194,-2.901,-2.7723,-2.6352,-2.3834,-2.0911,-1.6033,-0.9613,-0.3587,0.3031,0.9248,1.4481,1.7772,2.1397,2.3023,2.3955,2.5246,2.6346,2.7565,-3.7451,-3.674,-3.6534,-3.6028,-3.5404,-3.4865,-3.4283,-3.3555,-3.3456,-3.2909,-3.2124,-3.1845,-3.1258,-3.0352,-3.0083,-2.9483,-2.8227,-2.7355,-2.673,-2.5899,-2.4024,-2.2662,-2.1712,-2.0716,-1.9354,-1.7972,-1.7493,-1.6264,-1.4965,-1.4555,-1.3922,-1.3014,-1.3108,-1.2986,-1.2409,-1.2423,-1.2656,-1.3086,-1.2769,-1.2538,-1.2751,-1.2487,-1.2123,-1.161,-1.1327,-1.1149,-1.1048,-1.1142,-1.2209,-1.3876,-1.4366,-1.4753,-1.5981,-1.645,-1.6577,-1.6996,-1.8186,-1.9133,-1.9656,-2.0571,-2.1376,-2.2049,-2.2898,-2.3342,-2.38,-2.5081,-2.6102,-2.712,-2.7976,-2.8647,-2.9531,-3.1089,-3.2515,-3.3219,-3.3559,-3.4068,-3.4754,-3.357,-3.3223,-3.3722,-3.3575,-3.3046,-3.3598,-3.3431,-3.3119,-3.3007,-3.3598,-3.3323,-3.3177,-3.5188,-3.6361,-3.5315,-3.4482,-3.3539,-3.2497,-3.1291,-3.0194,-2.8975,-2.6539,-2.5262,-2.2631,-1.95,-1.5451,-1.0076,-0.376,0.25,0.8769,1.4882,1.9881,2.3032,2.5173,2.6951,2.8059,2.8796,3.017,-3.5776,-3.5396,-3.4804,-3.4452,-3.4013,-3.3208,-3.2622,-3.1998,-3.2006,-3.1696,-3.1219,-3.0965,-3.0602,-3.0222,-2.9735,-2.9025,-2.8151,-2.6976,-2.6149,-2.4959,-2.3301,-2.1799,-2.085,-1.951,-1.8545,-1.7815,-1.7127,-1.6018,-1.5007,-1.471,-1.3947,-1.3138,-1.3042,-1.2685,-1.2428,-1.2546,-1.2973,-1.3262,-1.2719,-1.2565,-1.2615,-1.2215,-1.1626,-1.1131,-1.0713,-1.0327,-1.0122,-1.0379,-1.1581,-1.4195,-1.3843,-1.3889,-1.451,-1.5861,-1.6475,-1.6645,-1.7534,-1.8472,-1.8903,-1.9633,-2.0488,-2.1322,-2.1654,-2.2155,-2.3349,-2.4295,-2.5142,-2.6271,-2.6872,-2.7624,-2.8741,-3.0861,-3.2014,-3.2408,-3.2586,-3.3282,-3.3989,-3.3794,-3.3461,-3.3856,-3.3328,-3.3275,-3.3423,-3.3532,-3.3373,-3.3269,-3.3485,-3.2847,-3.3001,-3.4463,-3.5066,-3.4552,-3.3844,-3.3278,-3.2258,-3.1228,-3.0184,-2.8925,-2.5689,-2.3491,-2.114,-1.821,-1.531,-1.0851,-0.5292,0.1327,0.8433,1.4475,2.016,2.4735,2.6935,2.8734,3.022,3.0674,3.1667,-3.4326,-3.3967,-3.3387,-3.302,-3.2727,-3.2545,-3.2143,-3.1806,-3.1832,-3.1276,-3.0692,-3.0441,-3.0056,-2.9387,-2.8852,-2.816,-2.7416,-2.6246,-2.4898,-2.2704,-2.218,-2.0991,-2.0,-1.8863,-1.7917,-1.7141,-1.682,-1.6012,-1.4937,-1.4647,-1.4341,-1.3644,-1.3283,-1.3299,-1.3067,-1.279,-1.3129,-1.3411,-1.2667,-1.2137,-1.2056,-1.1353,-1.0627,-0.9911,-0.9295,-0.8715,-0.8337,-0.8635,-0.9436,-1.0481,-1.1682,-1.2575,-1.3391,-1.4118,-1.5003,-1.5971,-1.6781,-1.7689,-1.8499,-1.9165,-2.007,-2.1034,-2.1277,-2.2073,-2.3419,-2.3876,-2.4507,-2.5325,-2.5959,-2.6891,-2.811,-2.9301,-3.0368,-3.1086,-3.1793,-3.2384,-3.2914,-3.2854,-3.2741,-3.2875,-3.3313,-3.3723,-3.4017,-3.4064,-3.3939,-3.3721,-3.3184,-3.2475,-3.2978,-3.388,-3.3847,-3.3634,-3.3069,-3.247,-3.159,-3.0352,-2.8942,-2.7788,-2.4927,-2.1827,-1.9465,-1.7764,-1.519,-1.1599,-0.7222,-0.029,0.6798,1.3347,1.8918,2.3712,2.8299,2.9934,3.1195,3.1992,3.3096,-3.3279,-3.2803,-3.2206,-3.1963,-3.1932,-3.1579,-3.1224,-3.1089,-3.1203,-3.0546,-2.9551,-2.9404,-2.8948,-2.8261,-2.7939,-2.7264,-2.6396,-2.5407,-2.3769,-2.2133,-2.1747,-2.0998,-1.9459,-1.8551,-1.7497,-1.6095,-1.603,-1.5493,-1.4836,-1.459,-1.435,-1.3786,-1.3534,-1.3307,-1.3297,-1.3113,-1.3217,-1.3276,-1.2689,-1.2062,-1.1665,-1.0616,-0.9615,-0.887,-0.824,-0.7845,-0.7587,-0.7717,-0.8149,-0.8781,-0.9691,-1.0878,-1.2189,-1.2984,-1.3957,-1.4932,-1.6191,-1.6935,-1.7745,-1.8577,-1.9347,-1.9927,-2.0188,-2.098,-2.2003,-2.276,-2.3541,-2.4177,-2.508,-2.6187,-2.7374,-2.8061,-2.8921,-2.9788,-3.0679,-3.1116,-3.1136,-3.1663,-3.2281,-3.2498,-3.3028,-3.3228,-3.3458,-3.3796,-3.4139,-3.3795,-3.3635,-3.296,-3.2137,-3.286,-3.2985,-3.2738,-3.2246,-3.1612,-3.0753,-2.9351,-2.7397,-2.5924,-2.3912,-2.0798,-1.7993,-1.6725,-1.5474,-1.1777,-0.8087,-0.2604,0.4289,1.0879,1.7197,2.2516,2.6734,2.978,3.2112,3.3038,3.4303,-3.2223,-3.1525,-3.1049,-3.1009,-3.1084,-3.0365,-2.994,-3.0085,-3.005,-2.9383,-2.834,-2.8162,-2.7889,-2.7383,-2.7132,-2.6506,-2.5423,-2.4533,-2.3163,-2.1895,-2.1968,-2.1067,-1.9673,-1.8506,-1.708,-1.5321,-1.5493,-1.5195,-1.4736,-1.4512,-1.4244,-1.3577,-1.3418,-1.3177,-1.2936,-1.3145,-1.313,-1.2872,-1.2503,-1.1807,-1.1089,-0.9948,-0.8927,-0.7821,-0.7273,-0.7013,-0.6812,-0.6875,-0.714,-0.7649,-0.7927,-0.9058,-1.0564,-1.2135,-1.3304,-1.3923,-1.5358,-1.6351,-1.713,-1.7967,-1.8544,-1.8292,-1.9081,-1.9854,-2.0834,-2.1813,-2.2539,-2.3354,-2.4226,-2.5381,-2.6442,-2.72,-2.7763,-2.8548,-2.9369,-2.964,-2.938,-3.0325,-3.0857,-3.1756,-3.2112,-3.2433,-3.2667,-3.3007,-3.3456,-3.3859,-3.3677,-3.3385,-3.2504,-3.1757,-3.1864,-3.1759,-3.1252,-3.0021,-2.9092,-2.8363,-2.6391,-2.4853,-2.3007,-2.0048,-1.7168,-1.6149,-1.4986,-1.2649,-0.8638,-0.363,0.1401,0.747,1.3868,2.0396,2.5605,2.9113,3.1678,3.3859,3.5313,-3.0488,-2.9771,-2.9433,-2.9221,-2.9106,-2.8966,-2.8968,-2.8876,-2.8806,-2.8314,-2.7832,-2.7494,-2.7366,-2.6964,-2.6583,-2.5649,-2.4634,-2.3867,-2.2959,-2.1842,-2.1786,-2.1112,-2.0114,-1.8644,-1.7131,-1.5892,-1.5557,-1.5244,-1.4653,-1.4553,-1.4228,-1.3529,-1.3164,-1.2886,-1.2834,-1.2802,-1.2714,-1.2534,-1.2119,-1.139,-1.0299,-0.9302,-0.8095,-0.6684,-0.6064,-0.5667,-0.5453,-0.5594,-0.5902,-0.6143,-0.714,-0.8112,-0.9192,-1.0724,-1.2189,-1.351,-1.4643,-1.5762,-1.6822,-1.7515,-1.8548,-1.9437,-1.9863,-2.0487,-2.1296,-2.1825,-2.2149,-2.2765,-2.3508,-2.4447,-2.5353,-2.6245,-2.6834,-2.7513,-2.8627,-2.9609,-2.8715,-2.8296,-2.8535,-2.9586,-3.0572,-3.1533,-3.1613,-3.1813,-3.2295,-3.2757,-3.3074,-3.3059,-3.2701,-3.1585,-3.0766,-3.056,-3.0262,-2.8739,-2.7245,-2.6658,-2.5499,-2.427,-2.2339,-1.9659,-1.7241,-1.6013,-1.4357,-1.2558,-1.0352,-0.6679,-0.1335,0.4245,1.0408,1.686,2.263,2.8281,3.0994,3.3293,3.5522,-2.9795,-2.9203,-2.8737,-2.8483,-2.8587,-2.8447,-2.8494,-2.8688,-2.8349,-2.7857,-2.7283,-2.6857,-2.6409,-2.6113,-2.5834,-2.4999,-2.427,-2.3487,-2.2769,-2.2004,-2.1733,-2.1334,-2.0405,-1.8955,-1.7529,-1.6391,-1.592,-1.5432,-1.4568,-1.4538,-1.4196,-1.353,-1.3204,-1.2994,-1.2803,-1.2742,-1.2715,-1.2476,-1.1768,-1.0746,-0.9429,-0.8421,-0.6889,-0.5841,-0.5214,-0.4933,-0.482,-0.4842,-0.523,-0.5696,-0.6427,-0.7269,-0.8317,-0.9627,-1.139,-1.2994,-1.425,-1.5491,-1.6695,-1.7482,-1.836,-1.8905,-1.9427,-1.9848,-2.0415,-2.092,-2.1677,-2.2421,-2.2967,-2.3636,-2.4229,-2.5141,-2.5453,-2.5791,-2.7157,-2.7712,-2.727,-2.6519,-2.6875,-2.7695,-2.9016,-2.9897,-3.0037,-3.0385,-3.0965,-3.1557,-3.2194,-3.2428,-3.2523,-3.1504,-3.0202,-2.9816,-2.9504,-2.8247,-2.6678,-2.5789,-2.4576,-2.3258,-2.195,-1.9258,-1.7164,-1.5845,-1.4668,-1.3247,-1.0865,-0.8453,-0.474,0.0626,0.697,1.3022,1.8534,2.3906,2.9104,3.2749,3.4903,-2.9213,-2.8627,-2.802,-2.7955,-2.8018,-2.7912,-2.7959,-2.8086,-2.7838,-2.7289,-2.6542,-2.606,-2.563,-2.5183,-2.4888,-2.4618,-2.3984,-2.3362,-2.268,-2.2047,-2.1761,-2.1403,-2.0511,-1.9267,-1.7738,-1.6785,-1.6149,-1.5605,-1.4863,-1.4611,-1.4081,-1.3498,-1.3383,-1.2961,-1.2571,-1.2542,-1.2844,-1.2229,-1.1526,-1.0081,-0.8513,-0.7127,-0.5867,-0.4943,-0.4849,-0.4647,-0.4488,-0.4604,-0.487,-0.5323,-0.5798,-0.6461,-0.7602,-0.8926,-1.0646,-1.2523,-1.4145,-1.533,-1.6408,-1.7392,-1.8025,-1.8427,-1.8614,-1.8892,-1.9298,-2.0115,-2.1005,-2.2078,-2.2665,-2.298,-2.3365,-2.3865,-2.4157,-2.4474,-2.5059,-2.555,-2.5591,-2.5439,-2.5701,-2.6611,-2.772,-2.8474,-2.8901,-2.9296,-2.9927,-3.0537,-3.1144,-3.1351,-3.1366,-3.0925,-2.9952,-2.9416,-2.8801,-2.7777,-2.6528,-2.545,-2.3865,-2.2004,-2.1042,-1.9275,-1.7296,-1.5553,-1.4496,-1.3516,-1.1709,-0.9197,-0.6061,-0.3486,0.1362,0.7002,1.3551,1.9686,2.5182,3.0507,3.4005,-2.8157,-2.7315,-2.7194,-2.6847,-2.6566,-2.6678,-2.6586,-2.6518,-2.6441,-2.61,-2.5771,-2.5373,-2.5199,-2.4996,-2.4487,-2.4239,-2.386,-2.3355,-2.2623,-2.1831,-2.1582,-2.1176,-2.0225,-1.9038,-1.8101,-1.7168,-1.6436,-1.5903,-1.5258,-1.4805,-1.414,-1.3448,-1.2991,-1.2477,-1.2156,-1.2279,-1.1865,-1.1296,-1.087,-0.9486,-0.7458,-0.6207,-0.53,-0.4602,-0.4153,-0.3988,-0.4031,-0.4178,-0.4405,-0.4896,-0.5332,-0.6108,-0.7256,-0.8467,-1.0092,-1.1727,-1.3227,-1.4537,-1.5689,-1.6703,-1.7539,-1.7959,-1.837,-1.8594,-1.8992,-1.9576,-2.0426,-2.1393,-2.1877,-2.2249,-2.2702,-2.3065,-2.3365,-2.3616,-2.3969,-2.4247,-2.435,-2.4513,-2.477,-2.5204,-2.6309,-2.7442,-2.824,-2.8519,-2.8885,-2.9486,-3.003,-3.025,-3.0434,-3.017,-2.9688,-2.9151,-2.8715,-2.7739,-2.6234,-2.5148,-2.3388,-2.1207,-2.0235,-1.9229,-1.7216,-1.5428,-1.4656,-1.3488,-1.1784,-1.0591,-0.854,-0.6178,-0.3732,0.122,0.8095,1.4897,2.1493,2.6724,3.1657,-2.7435,-2.7073,-2.6943,-2.6457,-2.5888,-2.6215,-2.6121,-2.5919,-2.5834,-2.5802,-2.5612,-2.5305,-2.5054,-2.4896,-2.4355,-2.4108,-2.386,-2.3238,-2.2423,-2.161,-2.1355,-2.076,-2.0119,-1.8981,-1.8107,-1.7427,-1.6727,-1.6147,-1.5482,-1.4832,-1.4124,-1.3357,-1.2944,-1.2515,-1.2038,-1.205,-1.1745,-1.1105,-1.0094,-0.8497,-0.6993,-0.5936,-0.5043,-0.4163,-0.3716,-0.3616,-0.3748,-0.3526,-0.386,-0.4355,-0.5012,-0.5563,-0.6542,-0.7739,-0.9211,-1.0413,-1.1859,-1.3454,-1.5179,-1.6142,-1.6843,-1.7357,-1.7833,-1.8412,-1.8798,-1.9341,-1.9922,-2.0613,-2.1071,-2.1514,-2.2025,-2.2408,-2.2408,-2.2592,-2.2836,-2.3245,-2.3458,-2.3539,-2.3794,-2.4297,-2.4878,-2.6064,-2.7083,-2.7521,-2.7866,-2.8501,-2.906,-2.9448,-2.9858,-3.0084,-2.9536,-2.889,-2.8489,-2.7947,-2.6239,-2.4726,-2.3084,-2.1232,-2.0195,-1.8918,-1.6858,-1.5369,-1.4648,-1.3517,-1.1877,-1.0943,-1.0382,-0.8212,-0.5201,-0.1314,0.2781,0.9425,1.6013,2.1798,2.7045,-2.6952,-2.6709,-2.6327,-2.5847,-2.5397,-2.5726,-2.5745,-2.5549,-2.5618,-2.5638,-2.5424,-2.5138,-2.4922,-2.4673,-2.4232,-2.386,-2.3736,-2.2981,-2.2173,-2.1562,-2.0893,-2.0385,-1.9735,-1.8854,-1.8107,-1.7491,-1.6779,-1.6303,-1.5783,-1.4982,-1.408,-1.3444,-1.3068,-1.2627,-1.2235,-1.1893,-1.1642,-1.0973,-0.9552,-0.8139,-0.6861,-0.5981,-0.5144,-0.4269,-0.3694,-0.3403,-0.3547,-0.3482,-0.3671,-0.4031,-0.462,-0.5219,-0.6061,-0.7045,-0.8279,-0.9502,-1.0857,-1.2226,-1.3889,-1.5122,-1.5877,-1.6455,-1.7107,-1.7823,-1.8574,-1.9111,-1.9512,-1.9908,-2.0335,-2.0722,-2.1094,-2.1549,-2.1663,-2.1663,-2.1726,-2.2199,-2.2678,-2.3033,-2.3306,-2.3628,-2.4204,-2.4739,-2.5685,-2.6318,-2.6893,-2.7473,-2.7993,-2.8574,-2.9166,-2.9777,-2.9362,-2.8728,-2.8417,-2.7683,-2.5775,-2.4122,-2.2525,-2.1204,-2.0154,-1.8739,-1.6759,-1.5519,-1.478,-1.3447,-1.2069,-1.1371,-1.0871,-0.8765,-0.6576,-0.3474,-0.009,0.4419,1.0166,1.6383,2.294,-2.6587,-2.5733,-2.5365,-2.4988,-2.4765,-2.4984,-2.5132,-2.5155,-2.5378,-2.5533,-2.5471,-2.4914,-2.4474,-2.4176,-2.386,-2.3487,-2.323,-2.2738,-2.1992,-2.132,-2.0785,-2.0185,-1.9453,-1.8707,-1.8151,-1.7563,-1.679,-1.6389,-1.6017,-1.5058,-1.4288,-1.3707,-1.3232,-1.2866,-1.2447,-1.2002,-1.1452,-1.0712,-0.9482,-0.8444,-0.7361,-0.638,-0.5478,-0.4708,-0.4106,-0.3726,-0.3396,-0.3484,-0.368,-0.3912,-0.428,-0.4857,-0.5802,-0.647,-0.7474,-0.8866,-0.9832,-1.1114,-1.2458,-1.3954,-1.4991,-1.5488,-1.6281,-1.7306,-1.8174,-1.835,-1.8771,-1.9407,-1.9931,-2.004,-2.0369,-2.0593,-2.0926,-2.1339,-2.1449,-2.1672,-2.2262,-2.2898,-2.3143,-2.3182,-2.3659,-2.4343,-2.4818,-2.5588,-2.6313,-2.6881,-2.7408,-2.7978,-2.8795,-2.9297,-2.902,-2.8573,-2.8367,-2.7225,-2.5108,-2.3644,-2.2612,-2.1164,-1.9833,-1.8437,-1.6797,-1.582,-1.481,-1.3969,-1.2768,-1.2062,-1.1201,-0.9515,-0.7809,-0.6074,-0.3021,0.1142,0.703,1.3929,2.024,-2.6338,-2.615,-2.5199,-2.4487,-2.4007,-2.46,-2.4619,-2.4584,-2.5062,-2.5176,-2.4978,-2.4706,-2.4366,-2.3981,-2.3487,-2.3238,-2.2981,-2.2237,-2.1651,-2.1233,-2.0664,-1.9978,-1.9262,-1.8815,-1.8391,-1.7661,-1.7008,-1.6412,-1.6045,-1.5227,-1.4623,-1.413,-1.35,-1.2866,-1.2336,-1.2086,-1.1639,-1.1274,-1.018,-0.8925,-0.8092,-0.72,-0.6165,-0.4896,-0.4277,-0.3985,-0.372,-0.3566,-0.3708,-0.3836,-0.4151,-0.4763,-0.5375,-0.5875,-0.6903,-0.8212,-0.9011,-0.9931,-1.1323,-1.2826,-1.398,-1.5105,-1.6147,-1.716,-1.7898,-1.8256,-1.8767,-1.9262,-1.9675,-1.9806,-2.0179,-2.0236,-2.0369,-2.1041,-2.1464,-2.1681,-2.2147,-2.2888,-2.3156,-2.3313,-2.3686,-2.424,-2.4646,-2.4993,-2.5724,-2.6386,-2.6891,-2.7444,-2.8284,-2.8794,-2.855,-2.8204,-2.7948,-2.6858,-2.4777,-2.3737,-2.285,-2.1234,-1.9585,-1.8143,-1.676,-1.5668,-1.4729,-1.404,-1.3396,-1.2501,-1.1528,-1.0438,-0.905,-0.7531,-0.5408,-0.2547,0.4059,1.1235,1.6575,-2.5978,-2.605,-2.5083,-2.4417,-2.4151,-2.4287,-2.4268,-2.4179,-2.4316,-2.4297,-2.4069,-2.4047,-2.3775,-2.3481,-2.3113,-2.2731,-2.248,-2.1985,-2.1488,-2.1089,-2.0703,-2.003,-1.9431,-1.8859,-1.8446,-1.7763,-1.7048,-1.6417,-1.6172,-1.5346,-1.4639,-1.4182,-1.3873,-1.3234,-1.2946,-1.2388,-1.2233,-1.1919,-1.1044,-0.9634,-0.8784,-0.7851,-0.6719,-0.5357,-0.463,-0.4077,-0.3882,-0.3654,-0.35,-0.3634,-0.3909,-0.4349,-0.4844,-0.5487,-0.6388,-0.7387,-0.8223,-0.9011,-1.0323,-1.213,-1.3436,-1.4568,-1.598,-1.6957,-1.7734,-1.8313,-1.8644,-1.9139,-1.9492,-1.9838,-2.006,-2.0027,-2.0466,-2.1247,-2.2293,-2.2571,-2.2891,-2.3447,-2.3375,-2.3416,-2.391,-2.442,-2.4707,-2.514,-2.5893,-2.6352,-2.6629,-2.7179,-2.7831,-2.8183,-2.8093,-2.7769,-2.7439,-2.6038,-2.4543,-2.3549,-2.2515,-2.1039,-1.9433,-1.8004,-1.6711,-1.5617,-1.4887,-1.4435,-1.371,-1.2856,-1.2064,-1.1293,-1.0268,-0.9142,-0.6596,-0.3796,0.0535,0.7259,1.1374,-2.5127,-2.5119,-2.4757,-2.4813,-2.4779,-2.4003,-2.3835,-2.4015,-2.3585,-2.32,-2.2907,-2.2879,-2.2574,-2.2419,-2.2237,-2.2104,-2.1859,-2.1607,-2.1362,-2.1109,-2.0783,-2.0242,-1.9741,-1.9195,-1.8505,-1.7612,-1.6879,-1.6417,-1.6212,-1.5412,-1.4585,-1.4219,-1.4123,-1.4056,-1.411,-1.3685,-1.3036,-1.2414,-1.1608,-1.0504,-0.93,-0.8329,-0.7217,-0.6132,-0.5207,-0.4637,-0.4086,-0.3933,-0.3682,-0.3355,-0.3747,-0.4286,-0.5044,-0.5266,-0.6009,-0.6949,-0.7718,-0.8322,-0.9042,-1.169,-1.3285,-1.4268,-1.5586,-1.6911,-1.7975,-1.8375,-1.8451,-1.9051,-1.9287,-1.9418,-1.9545,-2.001,-2.0876,-2.1807,-2.286,-2.357,-2.3841,-2.4157,-2.4209,-2.4143,-2.4413,-2.4708,-2.499,-2.5319,-2.6104,-2.6539,-2.6554,-2.6946,-2.7584,-2.7869,-2.7936,-2.7471,-2.7039,-2.5884,-2.4516,-2.3353,-2.2169,-2.067,-1.9213,-1.7725,-1.6649,-1.5727,-1.5111,-1.474,-1.4231,-1.354,-1.2921,-1.2275,-1.1002,-0.9517,-0.7047,-0.4113,-0.0414,0.3097,0.7328,-2.5246,-2.5461,-2.5336,-2.5023,-2.4723,-2.3992,-2.3745,-2.3881,-2.3386,-2.2891,-2.2608,-2.258,-2.2405,-2.2188,-2.1859,-2.1734,-2.1607,-2.1355,-2.1109,-2.1089,-2.0836,-2.0414,-1.9918,-1.9229,-1.8545,-1.7869,-1.7126,-1.6509,-1.6423,-1.5445,-1.4993,-1.4639,-1.451,-1.4741,-1.4478,-1.3959,-1.3151,-1.3183,-1.2309,-1.1175,-1.0136,-0.922,-0.82,-0.6968,-0.6037,-0.5255,-0.46,-0.4423,-0.3988,-0.3556,-0.3968,-0.4408,-0.516,-0.5513,-0.5937,-0.6845,-0.7667,-0.8436,-0.9642,-1.1578,-1.2958,-1.3919,-1.5316,-1.6716,-1.7573,-1.8276,-1.8565,-1.8988,-1.9446,-1.9703,-2.0177,-2.0888,-2.1812,-2.2772,-2.3724,-2.4381,-2.4826,-2.5133,-2.5309,-2.5194,-2.5292,-2.5722,-2.6046,-2.6086,-2.6714,-2.7039,-2.7114,-2.7167,-2.7698,-2.7893,-2.7993,-2.7312,-2.6702,-2.5637,-2.449,-2.3285,-2.1965,-2.0518,-1.8906,-1.7283,-1.6351,-1.5709,-1.5281,-1.4882,-1.4602,-1.426,-1.3572,-1.2736,-1.1359,-0.963,-0.7568,-0.5411,-0.2406,0.0499,0.3598,-2.4634,-2.5062,-2.4945,-2.4772,-2.4477,-2.385,-2.3413,-2.3107,-2.2584,-2.2208,-2.2057,-2.2022,-2.1926,-2.1649,-2.1607,-2.1488,-2.1362,-2.1235,-2.1102,-2.1076,-2.0678,-2.0164,-1.9677,-1.8966,-1.8143,-1.7727,-1.7037,-1.6273,-1.6127,-1.5549,-1.4991,-1.4713,-1.4944,-1.4914,-1.4713,-1.4339,-1.4073,-1.386,-1.2991,-1.2023,-1.0996,-0.9926,-0.8875,-0.7756,-0.6798,-0.5983,-0.5485,-0.4972,-0.463,-0.4366,-0.4372,-0.4561,-0.5376,-0.599,-0.6309,-0.706,-0.7983,-0.8869,-1.0218,-1.164,-1.2726,-1.3131,-1.5173,-1.6609,-1.7351,-1.8189,-1.8753,-1.9228,-1.9761,-2.0218,-2.0702,-2.15,-2.2307,-2.3267,-2.4094,-2.4744,-2.5168,-2.5474,-2.5633,-2.5566,-2.5858,-2.641,-2.6916,-2.7163,-2.7379,-2.7538,-2.7693,-2.7722,-2.763,-2.7785,-2.7868,-2.7259,-2.6549,-2.5609,-2.4456,-2.3127,-2.1768,-2.0383,-1.8746,-1.7065,-1.6431,-1.5882,-1.5462,-1.5103,-1.5073,-1.4822,-1.4126,-1.3145,-1.1868,-1.0495,-0.8822,-0.6595,-0.4252,-0.1486,0.1386,-2.3435,-2.3961,-2.3743,-2.4071,-2.4305,-2.3672,-2.2638,-2.1262,-2.1136,-2.1142,-2.1122,-2.1149,-2.1129,-2.1116,-2.1109,-2.1109,-2.1116,-2.1109,-2.0982,-2.0796,-2.0287,-1.9788,-1.9063,-1.8398,-1.7726,-1.7068,-1.6431,-1.6116,-1.5759,-1.5373,-1.5013,-1.4707,-1.5016,-1.5011,-1.5051,-1.5189,-1.5024,-1.4477,-1.374,-1.2654,-1.162,-1.0509,-0.9437,-0.8404,-0.7429,-0.6599,-0.6086,-0.5769,-0.5203,-0.4836,-0.4476,-0.5006,-0.5719,-0.6609,-0.6949,-0.7487,-0.8546,-0.9354,-1.0501,-1.1849,-1.2328,-1.2693,-1.4559,-1.6245,-1.7565,-1.8394,-1.882,-1.9383,-1.9958,-2.0373,-2.0941,-2.1636,-2.2425,-2.3248,-2.4036,-2.464,-2.508,-2.5326,-2.5519,-2.565,-2.5987,-2.6405,-2.6881,-2.7281,-2.7892,-2.7854,-2.7855,-2.7703,-2.7604,-2.7463,-2.7461,-2.7125,-2.644,-2.5653,-2.444,-2.3013,-2.1591,-2.0161,-1.8681,-1.7163,-1.6606,-1.6035,-1.5564,-1.5358,-1.564,-1.5324,-1.4391,-1.3484,-1.2498,-1.1066,-0.9636,-0.7439,-0.4993,-0.2594,0.0155,-2.3312,-2.3751,-2.3865,-2.3762,-2.3377,-2.2742,-2.2055,-2.1488,-2.1229,-2.1102,-2.1109,-2.0609,-2.0602,-2.0729,-2.0729,-2.0856,-2.0982,-2.0856,-2.0736,-2.0498,-1.9888,-1.9398,-1.8772,-1.801,-1.7375,-1.6918,-1.647,-1.6065,-1.5847,-1.5498,-1.5035,-1.4772,-1.5236,-1.5373,-1.5523,-1.5981,-1.5458,-1.486,-1.4195,-1.333,-1.2372,-1.124,-1.0137,-0.919,-0.8126,-0.7459,-0.6897,-0.6373,-0.5908,-0.5787,-0.511,-0.5407,-0.6891,-0.7403,-0.7733,-0.8167,-0.8653,-0.903,-1.0333,-1.1466,-1.2026,-1.2422,-1.4084,-1.6227,-1.7653,-1.8489,-1.8752,-1.9418,-2.0119,-2.062,-2.1259,-2.2064,-2.2751,-2.3565,-2.4283,-2.4784,-2.5217,-2.5548,-2.5744,-2.6214,-2.6554,-2.687,-2.725,-2.7824,-2.8395,-2.8215,-2.7985,-2.7841,-2.7532,-2.7284,-2.7091,-2.6835,-2.6343,-2.5619,-2.4259,-2.2858,-2.1394,-1.9926,-1.8605,-1.7356,-1.6451,-1.5879,-1.5581,-1.5577,-1.5859,-1.5336,-1.4474,-1.3721,-1.3185,-1.1764,-1.0268,-0.8019,-0.5748,-0.3427,-0.1002,-2.3066,-2.3245,-2.3444,-2.3163,-2.2502,-2.2355,-2.1985,-2.1614,-2.1488,-2.1242,-2.0856,-2.0227,-2.0106,-2.0361,-2.0361,-2.0482,-2.0609,-2.0475,-2.0303,-2.0052,-1.9442,-1.8933,-1.8404,-1.7643,-1.7016,-1.6567,-1.6334,-1.6003,-1.5921,-1.5736,-1.5397,-1.5248,-1.5713,-1.5738,-1.5898,-1.6239,-1.6174,-1.5465,-1.478,-1.3992,-1.3105,-1.2151,-1.1137,-1.0243,-0.9172,-0.8333,-0.772,-0.7171,-0.697,-0.6878,-0.6241,-0.6566,-0.7757,-0.8139,-0.8516,-0.8811,-0.9056,-0.9699,-1.0685,-1.1433,-1.1712,-1.2348,-1.3837,-1.5857,-1.7343,-1.825,-1.8836,-1.9474,-2.0171,-2.087,-2.1735,-2.2502,-2.3176,-2.3958,-2.4463,-2.4956,-2.5419,-2.5836,-2.6367,-2.685,-2.7293,-2.758,-2.8029,-2.8532,-2.8614,-2.8161,-2.7988,-2.7947,-2.7464,-2.6955,-2.6817,-2.6581,-2.6194,-2.5571,-2.4216,-2.2903,-2.1545,-2.0258,-1.9155,-1.7906,-1.6617,-1.6048,-1.5978,-1.5977,-1.6048,-1.5515,-1.5025,-1.4598,-1.3973,-1.2513,-1.1088,-0.9221,-0.6973,-0.4479,-0.2016,-2.2566,-2.248,-2.2487,-2.2251,-2.1734,-2.2237,-2.2237,-2.1607,-2.1747,-2.1375,-2.0615,-2.01,-1.9845,-2.01,-2.0106,-2.0106,-2.0195,-2.0043,-1.9954,-1.968,-1.9075,-1.858,-1.8066,-1.7202,-1.6844,-1.6458,-1.6167,-1.597,-1.5997,-1.5779,-1.5645,-1.5704,-1.5971,-1.62,-1.6293,-1.6624,-1.6553,-1.6098,-1.5568,-1.5023,-1.4228,-1.3174,-1.2039,-1.1376,-1.0272,-0.9303,-0.8785,-0.8439,-0.8041,-0.7832,-0.7796,-0.7885,-0.8449,-0.8824,-0.9046,-0.9375,-0.9558,-1.0211,-1.102,-1.178,-1.2082,-1.285,-1.4077,-1.5769,-1.7128,-1.836,-1.9068,-1.9662,-2.0431,-2.1273,-2.2075,-2.2708,-2.3363,-2.4136,-2.4791,-2.5298,-2.5782,-2.6306,-2.6951,-2.7378,-2.7596,-2.7979,-2.8066,-2.8547,-2.8599,-2.8128,-2.8037,-2.8106,-2.7591,-2.687,-2.6733,-2.6544,-2.6133,-2.5652,-2.4476,-2.3133,-2.1842,-2.0621,-1.954,-1.8214,-1.6824,-1.6489,-1.6447,-1.638,-1.6281,-1.6162,-1.5802,-1.5274,-1.4612,-1.3478,-1.2027,-1.0485,-0.8289,-0.5817,-0.3216,-2.2072,-2.1853,-2.1859,-2.1607,-2.1355,-2.1985,-2.1978,-2.1607,-2.1859,-2.1468,-2.0602,-1.996,-1.9711,-1.9711,-1.9711,-1.9833,-1.9922,-1.9707,-1.9518,-1.9243,-1.8726,-1.8392,-1.8096,-1.7357,-1.6931,-1.6647,-1.6298,-1.5997,-1.579,-1.5725,-1.5801,-1.5963,-1.6194,-1.6412,-1.6768,-1.7104,-1.6966,-1.6708,-1.647,-1.5847,-1.4819,-1.3997,-1.2956,-1.2016,-1.0839,-1.0153,-0.9621,-0.8992,-0.8759,-0.8627,-0.8528,-0.8788,-0.9339,-0.9341,-0.9554,-0.9916,-1.003,-1.0714,-1.1431,-1.2112,-1.2385,-1.2803,-1.3964,-1.5557,-1.713,-1.8474,-1.9418,-2.0041,-2.0762,-2.1622,-2.2303,-2.2804,-2.3441,-2.4268,-2.5068,-2.5576,-2.619,-2.6858,-2.7523,-2.7749,-2.7889,-2.8129,-2.8315,-2.8328,-2.8411,-2.8423,-2.8521,-2.8352,-2.7711,-2.7049,-2.6967,-2.6776,-2.6394,-2.5732,-2.4642,-2.3537,-2.2285,-2.0956,-1.9773,-1.8446,-1.7053,-1.6787,-1.6681,-1.6599,-1.6516,-1.6361,-1.6178,-1.583,-1.5039,-1.4085,-1.303,-1.1516,-0.9846,-0.7588,-0.4802,-2.1707,-2.1342,-2.1362,-2.1362,-2.1355,-2.1734,-2.1546,-2.1054,-2.1166,-2.0717,-1.992,-1.9453,-1.9322,-1.9194,-1.9328,-1.9364,-1.958,-1.9277,-1.9123,-1.8882,-1.875,-1.8511,-1.8043,-1.7667,-1.7381,-1.6946,-1.6387,-1.6117,-1.5856,-1.5752,-1.5997,-1.6222,-1.6419,-1.6773,-1.7132,-1.7337,-1.7346,-1.7074,-1.7128,-1.66,-1.5488,-1.4783,-1.3874,-1.2775,-1.1935,-1.1218,-1.0357,-0.9799,-0.9406,-0.9375,-0.9275,-0.9624,-1.0066,-1.0026,-1.0256,-1.0637,-1.0817,-1.0935,-1.1807,-1.2484,-1.2742,-1.3053,-1.386,-1.5576,-1.7277,-1.8542,-1.9223,-1.9854,-2.0677,-2.1514,-2.2189,-2.2731,-2.343,-2.4217,-2.4802,-2.5377,-2.6455,-2.7422,-2.7753,-2.7732,-2.8033,-2.8366,-2.8431,-2.8432,-2.8494,-2.8264,-2.8423,-2.8419,-2.778,-2.7233,-2.7172,-2.7049,-2.6725,-2.6065,-2.5117,-2.4022,-2.2823,-2.1493,-2.0194,-1.9011,-1.7879,-1.7249,-1.6854,-1.6919,-1.6822,-1.6539,-1.632,-1.6065,-1.5549,-1.4651,-1.3644,-1.2592,-1.0876,-0.914,-0.6546,-2.1506,-2.1096,-2.0982,-2.1235,-2.1488,-2.1481,-2.1074,-2.0335,-2.012,-1.96,-1.8871,-1.886,-1.8685,-1.8896,-1.8842,-1.8855,-1.8902,-1.8884,-1.8732,-1.8632,-1.8632,-1.8565,-1.8273,-1.7818,-1.748,-1.7127,-1.6678,-1.6266,-1.5943,-1.6046,-1.6084,-1.6448,-1.6655,-1.6891,-1.7367,-1.7479,-1.7394,-1.7414,-1.7432,-1.7303,-1.6666,-1.5911,-1.4881,-1.403,-1.3276,-1.2661,-1.1571,-1.0906,-1.0365,-1.0213,-1.0209,-1.0505,-1.0753,-1.0886,-1.1142,-1.1424,-1.1586,-1.1854,-1.2432,-1.3066,-1.2997,-1.3255,-1.4165,-1.5557,-1.7274,-1.8229,-1.9018,-1.9846,-2.0678,-2.1512,-2.2088,-2.2679,-2.3485,-2.4131,-2.4683,-2.5386,-2.6605,-2.7698,-2.7776,-2.7729,-2.8064,-2.844,-2.8533,-2.8543,-2.8487,-2.8245,-2.814,-2.8017,-2.7883,-2.7543,-2.7355,-2.7227,-2.7089,-2.6322,-2.5509,-2.4523,-2.3434,-2.2351,-2.1061,-1.9885,-1.872,-1.7902,-1.7429,-1.737,-1.7198,-1.6881,-1.6586,-1.6384,-1.5792,-1.5191,-1.4336,-1.3328,-1.1865,-1.0088,-0.814,-2.1308,-2.0736,-2.0736,-2.0736,-2.0856,-2.1109,-2.0823,-2.0139,-1.9273,-1.8782,-1.8337,-1.7946,-1.8131,-1.8986,-1.8256,-1.8256,-1.8782,-1.868,-1.8801,-1.8915,-1.8542,-1.8488,-1.8392,-1.7907,-1.7585,-1.7161,-1.6851,-1.6549,-1.6242,-1.6067,-1.6256,-1.6537,-1.6537,-1.7015,-1.7732,-1.7824,-1.7646,-1.7799,-1.7802,-1.7647,-1.7196,-1.6486,-1.5794,-1.479,-1.3702,-1.329,-1.2777,-1.2451,-1.1973,-1.1667,-1.1499,-1.1318,-1.1544,-1.171,-1.1979,-1.2142,-1.2319,-1.2506,-1.3057,-1.3899,-1.3916,-1.3406,-1.4484,-1.5806,-1.7116,-1.7872,-1.8721,-1.9637,-2.0551,-2.1568,-2.23,-2.2756,-2.3428,-2.395,-2.4575,-2.5505,-2.6667,-2.7264,-2.7603,-2.769,-2.796,-2.8221,-2.8384,-2.854,-2.8723,-2.8482,-2.844,-2.8404,-2.8509,-2.8103,-2.7494,-2.7384,-2.7302,-2.6889,-2.6196,-2.5201,-2.4067,-2.3026,-2.1905,-2.0651,-1.9447,-1.8414,-1.803,-1.8025,-1.7614,-1.7174,-1.6926,-1.6734,-1.6309,-1.5694,-1.4971,-1.3959,-1.2625,-1.1125,-0.9185]}]]